<?xml version="1.0" encoding="UTF-8"?>
<gpx xmlns="http://www.topografix.com/GPX/1/1" xmlns:xsi="http://www.w3.org/2001/XMLSchema-instance" version="1.1" xsi:schemaLocation="http://www.topografix.com/GPX/1/1 http://www.topografix.com/GPX/1/1/gpx.xsd">
  <metadata>
    <name>Big East Triathlon - Middle Distance Aquabike</name>
  </metadata>
  <trk>
    <name>Big East Triathlon - Middle Distance Aquabike</name>
    <trkseg>
      <trkpt lat="51.732782" lon="0.888739">
        <ele>10.883554</ele>
        <time>2021-05-23T11:52:00.000Z</time>
      </trkpt>
      <trkpt lat="51.732768" lon="0.888799">
        <ele>10.883569</ele>
        <time>2021-05-23T11:52:00.000Z</time>
      </trkpt>
      <trkpt lat="51.732498" lon="0.889634">
        <ele>10.883552</ele>
        <time>2021-05-23T11:52:06.000Z</time>
      </trkpt>
      <trkpt lat="51.731953" lon="0.889521">
        <ele>10.86226</ele>
        <time>2021-05-23T11:52:12.000Z</time>
      </trkpt>
      <trkpt lat="51.731019" lon="0.88931">
        <ele>10.783533</ele>
        <time>2021-05-23T11:52:22.000Z</time>
      </trkpt>
      <trkpt lat="51.729992" lon="0.88947">
        <ele>10.697666</ele>
        <time>2021-05-23T11:52:33.000Z</time>
      </trkpt>
      <trkpt lat="51.729836" lon="0.889494">
        <ele>10.685506</ele>
        <time>2021-05-23T11:52:35.000Z</time>
      </trkpt>
      <trkpt lat="51.728319" lon="0.889568">
        <ele>10.60153</ele>
        <time>2021-05-23T11:52:52.000Z</time>
      </trkpt>
      <trkpt lat="51.728252" lon="0.889569">
        <ele>10.604267</ele>
        <time>2021-05-23T11:52:53.000Z</time>
      </trkpt>
      <trkpt lat="51.727792" lon="0.889648">
        <ele>10.622991</ele>
        <time>2021-05-23T11:52:58.000Z</time>
      </trkpt>
      <trkpt lat="51.72772" lon="0.889657">
        <ele>10.626182</ele>
        <time>2021-05-23T11:52:59.000Z</time>
      </trkpt>
      <trkpt lat="51.727316" lon="0.88971">
        <ele>10.642575</ele>
        <time>2021-05-23T11:53:04.000Z</time>
      </trkpt>
      <trkpt lat="51.726656" lon="0.889787">
        <ele>10.638138</ele>
        <time>2021-05-23T11:53:11.000Z</time>
      </trkpt>
      <trkpt lat="51.726329" lon="0.889857">
        <ele>10.600856</ele>
        <time>2021-05-23T11:53:15.000Z</time>
      </trkpt>
      <trkpt lat="51.725293" lon="0.889911">
        <ele>10.476635</ele>
        <time>2021-05-23T11:53:27.000Z</time>
      </trkpt>
      <trkpt lat="51.723799" lon="0.890022">
        <ele>10.690445</ele>
        <time>2021-05-23T11:53:44.000Z</time>
      </trkpt>
      <trkpt lat="51.723168" lon="0.890063">
        <ele>10.850129</ele>
        <time>2021-05-23T11:53:51.000Z</time>
      </trkpt>
      <trkpt lat="51.722663" lon="0.889977">
        <ele>11.168496</ele>
        <time>2021-05-23T11:53:57.000Z</time>
      </trkpt>
      <trkpt lat="51.722258" lon="0.889751">
        <ele>11.431346</ele>
        <time>2021-05-23T11:54:02.000Z</time>
      </trkpt>
      <trkpt lat="51.721908" lon="0.889408">
        <ele>11.684991</ele>
        <time>2021-05-23T11:54:07.000Z</time>
      </trkpt>
      <trkpt lat="51.721614" lon="0.888954">
        <ele>11.925652</ele>
        <time>2021-05-23T11:54:12.000Z</time>
      </trkpt>
      <trkpt lat="51.721098" lon="0.887791">
        <ele>12.246649</ele>
        <time>2021-05-23T11:54:22.000Z</time>
      </trkpt>
      <trkpt lat="51.720819" lon="0.887329">
        <ele>12.386846</ele>
        <time>2021-05-23T11:54:26.000Z</time>
      </trkpt>
      <trkpt lat="51.72054" lon="0.886949">
        <ele>12.517913</ele>
        <time>2021-05-23T11:54:30.000Z</time>
      </trkpt>
      <trkpt lat="51.720231" lon="0.88662">
        <ele>12.712912</ele>
        <time>2021-05-23T11:54:34.000Z</time>
      </trkpt>
      <trkpt lat="51.719641" lon="0.886072">
        <ele>13.125742</ele>
        <time>2021-05-23T11:54:42.000Z</time>
      </trkpt>
      <trkpt lat="51.719017" lon="0.885491">
        <ele>13.554195</ele>
        <time>2021-05-23T11:54:50.000Z</time>
      </trkpt>
      <trkpt lat="51.718969" lon="0.885469">
        <ele>13.583276</ele>
        <time>2021-05-23T11:54:51.000Z</time>
      </trkpt>
      <trkpt lat="51.717946" lon="0.884423">
        <ele>14.586974</ele>
        <time>2021-05-23T11:55:04.000Z</time>
      </trkpt>
      <trkpt lat="51.71717" lon="0.883251">
        <ele>15.239923</ele>
        <time>2021-05-23T11:55:16.000Z</time>
      </trkpt>
      <trkpt lat="51.716837" lon="0.882925">
        <ele>15.308151</ele>
        <time>2021-05-23T11:55:20.000Z</time>
      </trkpt>
      <trkpt lat="51.71652" lon="0.882476">
        <ele>15.383348</ele>
        <time>2021-05-23T11:55:25.000Z</time>
      </trkpt>
      <trkpt lat="51.716436" lon="0.882275">
        <ele>15.410235</ele>
        <time>2021-05-23T11:55:27.000Z</time>
      </trkpt>
      <trkpt lat="51.7162" lon="0.88181">
        <ele>15.47742</ele>
        <time>2021-05-23T11:55:31.000Z</time>
      </trkpt>
      <trkpt lat="51.716083" lon="0.881596">
        <ele>15.456887</ele>
        <time>2021-05-23T11:55:33.000Z</time>
      </trkpt>
      <trkpt lat="51.715994" lon="0.881377">
        <ele>15.398353</ele>
        <time>2021-05-23T11:55:35.000Z</time>
      </trkpt>
      <trkpt lat="51.715962" lon="0.881283">
        <ele>15.376982</ele>
        <time>2021-05-23T11:55:36.000Z</time>
      </trkpt>
      <trkpt lat="51.715927" lon="0.880761">
        <ele>15.258643</ele>
        <time>2021-05-23T11:55:40.000Z</time>
      </trkpt>
      <trkpt lat="51.715918" lon="0.880607">
        <ele>15.223393</ele>
        <time>2021-05-23T11:55:41.000Z</time>
      </trkpt>
      <trkpt lat="51.7159" lon="0.880527">
        <ele>15.204823</ele>
        <time>2021-05-23T11:55:42.000Z</time>
      </trkpt>
      <trkpt lat="51.71565" lon="0.879845">
        <ele>15.030678</ele>
        <time>2021-05-23T11:55:47.000Z</time>
      </trkpt>
      <trkpt lat="51.715541" lon="0.879635">
        <ele>14.966427</ele>
        <time>2021-05-23T11:55:49.000Z</time>
      </trkpt>
      <trkpt lat="51.715413" lon="0.879393">
        <ele>14.8953</ele>
        <time>2021-05-23T11:55:51.000Z</time>
      </trkpt>
      <trkpt lat="51.715321" lon="0.879236">
        <ele>14.848962</ele>
        <time>2021-05-23T11:55:52.000Z</time>
      </trkpt>
      <trkpt lat="51.715003" lon="0.878648">
        <ele>14.722813</ele>
        <time>2021-05-23T11:55:57.000Z</time>
      </trkpt>
      <trkpt lat="51.71498" lon="0.878554">
        <ele>14.707488</ele>
        <time>2021-05-23T11:55:58.000Z</time>
      </trkpt>
      <trkpt lat="51.7149" lon="0.878318">
        <ele>14.665367</ele>
        <time>2021-05-23T11:56:00.000Z</time>
      </trkpt>
      <trkpt lat="51.714883" lon="0.878175">
        <ele>14.643705</ele>
        <time>2021-05-23T11:56:01.000Z</time>
      </trkpt>
      <trkpt lat="51.714551" lon="0.876651">
        <ele>14.388684</ele>
        <time>2021-05-23T11:56:12.000Z</time>
      </trkpt>
      <trkpt lat="51.71446" lon="0.876214">
        <ele>14.480745</ele>
        <time>2021-05-23T11:56:15.000Z</time>
      </trkpt>
      <trkpt lat="51.714407" lon="0.875883">
        <ele>14.557221</ele>
        <time>2021-05-23T11:56:17.000Z</time>
      </trkpt>
      <trkpt lat="51.71434" lon="0.875481">
        <ele>14.649505</ele>
        <time>2021-05-23T11:56:20.000Z</time>
      </trkpt>
      <trkpt lat="51.714329" lon="0.875171">
        <ele>14.715502</ele>
        <time>2021-05-23T11:56:22.000Z</time>
      </trkpt>
      <trkpt lat="51.714314" lon="0.874436">
        <ele>14.876598</ele>
        <time>2021-05-23T11:56:27.000Z</time>
      </trkpt>
      <trkpt lat="51.713902" lon="0.872851">
        <ele>15.74765</ele>
        <time>2021-05-23T11:56:39.000Z</time>
      </trkpt>
      <trkpt lat="51.713661" lon="0.871293">
        <ele>16.840714</ele>
        <time>2021-05-23T11:56:50.000Z</time>
      </trkpt>
      <trkpt lat="51.713189" lon="0.870153">
        <ele>18.029539</ele>
        <time>2021-05-23T11:56:59.000Z</time>
      </trkpt>
      <trkpt lat="51.712295" lon="0.866283">
        <ele>21.965665</ele>
        <time>2021-05-23T11:57:27.000Z</time>
      </trkpt>
      <trkpt lat="51.712094" lon="0.865177">
        <ele>23.059524</ele>
        <time>2021-05-23T11:57:35.000Z</time>
      </trkpt>
      <trkpt lat="51.712052" lon="0.864289">
        <ele>23.873814</ele>
        <time>2021-05-23T11:57:41.000Z</time>
      </trkpt>
      <trkpt lat="51.712037" lon="0.863793">
        <ele>24.323268</ele>
        <time>2021-05-23T11:57:44.000Z</time>
      </trkpt>
      <trkpt lat="51.712045" lon="0.863667">
        <ele>24.447906</ele>
        <time>2021-05-23T11:57:45.000Z</time>
      </trkpt>
      <trkpt lat="51.712028" lon="0.863481">
        <ele>24.619102</ele>
        <time>2021-05-23T11:57:46.000Z</time>
      </trkpt>
      <trkpt lat="51.711989" lon="0.863006">
        <ele>25.052207</ele>
        <time>2021-05-23T11:57:49.000Z</time>
      </trkpt>
      <trkpt lat="51.71194" lon="0.862698">
        <ele>25.263662</ele>
        <time>2021-05-23T11:57:51.000Z</time>
      </trkpt>
      <trkpt lat="51.711888" lon="0.862399">
        <ele>25.436508</ele>
        <time>2021-05-23T11:57:53.000Z</time>
      </trkpt>
      <trkpt lat="51.711811" lon="0.862141">
        <ele>25.591032</ele>
        <time>2021-05-23T11:57:55.000Z</time>
      </trkpt>
      <trkpt lat="51.711561" lon="0.861583">
        <ele>25.962702</ele>
        <time>2021-05-23T11:58:00.000Z</time>
      </trkpt>
      <trkpt lat="51.711427" lon="0.861292">
        <ele>26.160073</ele>
        <time>2021-05-23T11:58:02.000Z</time>
      </trkpt>
      <trkpt lat="51.711414" lon="0.861238">
        <ele>26.195057</ele>
        <time>2021-05-23T11:58:02.000Z</time>
      </trkpt>
      <trkpt lat="51.711346" lon="0.861064">
        <ele>26.307863</ele>
        <time>2021-05-23T11:58:03.000Z</time>
      </trkpt>
      <trkpt lat="51.711286" lon="0.860856">
        <ele>26.430374</ele>
        <time>2021-05-23T11:58:05.000Z</time>
      </trkpt>
      <trkpt lat="51.711268" lon="0.860706">
        <ele>26.513026</ele>
        <time>2021-05-23T11:58:06.000Z</time>
      </trkpt>
      <trkpt lat="51.71112" lon="0.859067">
        <ele>26.29258</ele>
        <time>2021-05-23T11:58:17.000Z</time>
      </trkpt>
      <trkpt lat="51.710913" lon="0.858193">
        <ele>25.969543</ele>
        <time>2021-05-23T11:58:23.000Z</time>
      </trkpt>
      <trkpt lat="51.710845" lon="0.857952">
        <ele>25.875503</ele>
        <time>2021-05-23T11:58:25.000Z</time>
      </trkpt>
      <trkpt lat="51.71061" lon="0.857402">
        <ele>25.419271</ele>
        <time>2021-05-23T11:58:30.000Z</time>
      </trkpt>
      <trkpt lat="51.70973" lon="0.855677">
        <ele>22.45837</ele>
        <time>2021-05-23T11:58:45.000Z</time>
      </trkpt>
      <trkpt lat="51.709645" lon="0.855499">
        <ele>22.171693</ele>
        <time>2021-05-23T11:58:47.000Z</time>
      </trkpt>
      <trkpt lat="51.709619" lon="0.855406">
        <ele>22.033992</ele>
        <time>2021-05-23T11:58:48.000Z</time>
      </trkpt>
      <trkpt lat="51.708803" lon="0.853264">
        <ele>20.276854</ele>
        <time>2021-05-23T11:59:05.000Z</time>
      </trkpt>
      <trkpt lat="51.70849" lon="0.852157">
        <ele>20.289295</ele>
        <time>2021-05-23T11:59:13.000Z</time>
      </trkpt>
      <trkpt lat="51.70795" lon="0.849935">
        <ele>21.493787</ele>
        <time>2021-05-23T11:59:29.000Z</time>
      </trkpt>
      <trkpt lat="51.707848" lon="0.849057">
        <ele>21.99348</ele>
        <time>2021-05-23T11:59:35.000Z</time>
      </trkpt>
      <trkpt lat="51.707822" lon="0.848619">
        <ele>22.243434</ele>
        <time>2021-05-23T11:59:38.000Z</time>
      </trkpt>
      <trkpt lat="51.707808" lon="0.848442">
        <ele>22.341363</ele>
        <time>2021-05-23T11:59:39.000Z</time>
      </trkpt>
      <trkpt lat="51.707573" lon="0.84546">
        <ele>22.898022</ele>
        <time>2021-05-23T12:00:00.000Z</time>
      </trkpt>
      <trkpt lat="51.707555" lon="0.845039">
        <ele>22.870574</ele>
        <time>2021-05-23T12:00:03.000Z</time>
      </trkpt>
      <trkpt lat="51.707543" lon="0.84453">
        <ele>22.838293</ele>
        <time>2021-05-23T12:00:07.000Z</time>
      </trkpt>
      <trkpt lat="51.707388" lon="0.843159">
        <ele>21.388312</ele>
        <time>2021-05-23T12:00:17.000Z</time>
      </trkpt>
      <trkpt lat="51.706908" lon="0.841672">
        <ele>19.449315</ele>
        <time>2021-05-23T12:00:29.000Z</time>
      </trkpt>
      <trkpt lat="51.706693" lon="0.840921">
        <ele>18.127022</ele>
        <time>2021-05-23T12:00:35.000Z</time>
      </trkpt>
      <trkpt lat="51.706381" lon="0.83991">
        <ele>16.369831</ele>
        <time>2021-05-23T12:00:43.000Z</time>
      </trkpt>
      <trkpt lat="51.706089" lon="0.839091">
        <ele>14.860411</ele>
        <time>2021-05-23T12:00:50.000Z</time>
      </trkpt>
      <trkpt lat="51.705545" lon="0.838009">
        <ele>13.153402</ele>
        <time>2021-05-23T12:01:00.000Z</time>
      </trkpt>
      <trkpt lat="51.705265" lon="0.836715">
        <ele>11.506518</ele>
        <time>2021-05-23T12:01:09.000Z</time>
      </trkpt>
      <trkpt lat="51.704901" lon="0.835659">
        <ele>10.810618</ele>
        <time>2021-05-23T12:01:17.000Z</time>
      </trkpt>
      <trkpt lat="51.704691" lon="0.835027">
        <ele>10.452415</ele>
        <time>2021-05-23T12:01:22.000Z</time>
      </trkpt>
      <trkpt lat="51.704491" lon="0.83469">
        <ele>10.222332</ele>
        <time>2021-05-23T12:01:25.000Z</time>
      </trkpt>
      <trkpt lat="51.704073" lon="0.834208">
        <ele>9.885128</ele>
        <time>2021-05-23T12:01:31.000Z</time>
      </trkpt>
      <trkpt lat="51.703873" lon="0.834071">
        <ele>9.858227</ele>
        <time>2021-05-23T12:01:33.000Z</time>
      </trkpt>
      <trkpt lat="51.703346" lon="0.833954">
        <ele>9.798308</ele>
        <time>2021-05-23T12:01:39.000Z</time>
      </trkpt>
      <trkpt lat="51.702219" lon="0.833713">
        <ele>9.665387</ele>
        <time>2021-05-23T12:01:52.000Z</time>
      </trkpt>
      <trkpt lat="51.702068" lon="0.83365">
        <ele>9.645098</ele>
        <time>2021-05-23T12:01:54.000Z</time>
      </trkpt>
      <trkpt lat="51.702028" lon="0.833615">
        <ele>9.638464</ele>
        <time>2021-05-23T12:01:55.000Z</time>
      </trkpt>
      <trkpt lat="51.701952" lon="0.833564">
        <ele>9.628085</ele>
        <time>2021-05-23T12:01:56.000Z</time>
      </trkpt>
      <trkpt lat="51.70185" lon="0.833443">
        <ele>9.611179</ele>
        <time>2021-05-23T12:01:57.000Z</time>
      </trkpt>
      <trkpt lat="51.701722" lon="0.833223">
        <ele>9.588978</ele>
        <time>2021-05-23T12:01:59.000Z</time>
      </trkpt>
      <trkpt lat="51.701667" lon="0.832987">
        <ele>9.570234</ele>
        <time>2021-05-23T12:02:01.000Z</time>
      </trkpt>
      <trkpt lat="51.701289" lon="0.831171">
        <ele>9.436015</ele>
        <time>2021-05-23T12:02:14.000Z</time>
      </trkpt>
      <trkpt lat="51.70086" lon="0.829647">
        <ele>9.35328</ele>
        <time>2021-05-23T12:02:26.000Z</time>
      </trkpt>
      <trkpt lat="51.700762" lon="0.829418">
        <ele>9.339826</ele>
        <time>2021-05-23T12:02:28.000Z</time>
      </trkpt>
      <trkpt lat="51.700612" lon="0.828999">
        <ele>9.328241</ele>
        <time>2021-05-23T12:02:31.000Z</time>
      </trkpt>
      <trkpt lat="51.700476" lon="0.828583">
        <ele>9.381252</ele>
        <time>2021-05-23T12:02:34.000Z</time>
      </trkpt>
      <trkpt lat="51.700118" lon="0.826559">
        <ele>9.619045</ele>
        <time>2021-05-23T12:02:49.000Z</time>
      </trkpt>
      <trkpt lat="51.699676" lon="0.824649">
        <ele>10.306186</ele>
        <time>2021-05-23T12:03:03.000Z</time>
      </trkpt>
      <trkpt lat="51.699357" lon="0.823204">
        <ele>10.880307</ele>
        <time>2021-05-23T12:03:14.000Z</time>
      </trkpt>
      <trkpt lat="51.699154" lon="0.822731">
        <ele>11.109307</ele>
        <time>2021-05-23T12:03:18.000Z</time>
      </trkpt>
      <trkpt lat="51.698034" lon="0.821094">
        <ele>11.930312</ele>
        <time>2021-05-23T12:03:35.000Z</time>
      </trkpt>
      <trkpt lat="51.697747" lon="0.820335">
        <ele>12.06842</ele>
        <time>2021-05-23T12:03:41.000Z</time>
      </trkpt>
      <trkpt lat="51.697747" lon="0.8203">
        <ele>12.072695</ele>
        <time>2021-05-23T12:03:41.000Z</time>
      </trkpt>
      <trkpt lat="51.697717" lon="0.820055">
        <ele>12.111932</ele>
        <time>2021-05-23T12:03:43.000Z</time>
      </trkpt>
      <trkpt lat="51.697597" lon="0.819333">
        <ele>12.227734</ele>
        <time>2021-05-23T12:03:48.000Z</time>
      </trkpt>
      <trkpt lat="51.697602" lon="0.819311">
        <ele>12.231213</ele>
        <time>2021-05-23T12:03:48.000Z</time>
      </trkpt>
      <trkpt lat="51.697562" lon="0.819115">
        <ele>12.261243</ele>
        <time>2021-05-23T12:03:49.000Z</time>
      </trkpt>
      <trkpt lat="51.697517" lon="0.818942">
        <ele>12.289591</ele>
        <time>2021-05-23T12:03:50.000Z</time>
      </trkpt>
      <trkpt lat="51.697468" lon="0.818774">
        <ele>12.332374</ele>
        <time>2021-05-23T12:03:51.000Z</time>
      </trkpt>
      <trkpt lat="51.697381" lon="0.818557">
        <ele>12.394476</ele>
        <time>2021-05-23T12:03:53.000Z</time>
      </trkpt>
      <trkpt lat="51.697217" lon="0.818371">
        <ele>12.479526</ele>
        <time>2021-05-23T12:03:55.000Z</time>
      </trkpt>
      <trkpt lat="51.697089" lon="0.818287">
        <ele>12.53363</ele>
        <time>2021-05-23T12:03:57.000Z</time>
      </trkpt>
      <trkpt lat="51.697049" lon="0.818293">
        <ele>12.54945</ele>
        <time>2021-05-23T12:03:57.000Z</time>
      </trkpt>
      <trkpt lat="51.696836" lon="0.818257">
        <ele>12.634458</ele>
        <time>2021-05-23T12:03:59.000Z</time>
      </trkpt>
      <trkpt lat="51.695904" lon="0.818218">
        <ele>13.004219</ele>
        <time>2021-05-23T12:04:09.000Z</time>
      </trkpt>
      <trkpt lat="51.695693" lon="0.818176">
        <ele>13.063593</ele>
        <time>2021-05-23T12:04:11.000Z</time>
      </trkpt>
      <trkpt lat="51.695601" lon="0.818091">
        <ele>13.092482</ele>
        <time>2021-05-23T12:04:12.000Z</time>
      </trkpt>
      <trkpt lat="51.695552" lon="0.818051">
        <ele>13.108117</ele>
        <time>2021-05-23T12:04:13.000Z</time>
      </trkpt>
      <trkpt lat="51.695426" lon="0.817783">
        <ele>13.170909</ele>
        <time>2021-05-23T12:04:15.000Z</time>
      </trkpt>
      <trkpt lat="51.695375" lon="0.817617">
        <ele>13.202852</ele>
        <time>2021-05-23T12:04:16.000Z</time>
      </trkpt>
      <trkpt lat="51.695251" lon="0.81709">
        <ele>13.303735</ele>
        <time>2021-05-23T12:04:20.000Z</time>
      </trkpt>
      <trkpt lat="51.695133" lon="0.816217">
        <ele>13.46359</ele>
        <time>2021-05-23T12:04:26.000Z</time>
      </trkpt>
      <trkpt lat="51.695107" lon="0.815429">
        <ele>13.523683</ele>
        <time>2021-05-23T12:04:31.000Z</time>
      </trkpt>
      <trkpt lat="51.695023" lon="0.81453">
        <ele>13.514954</ele>
        <time>2021-05-23T12:04:37.000Z</time>
      </trkpt>
      <trkpt lat="51.694699" lon="0.812679">
        <ele>13.478641</ele>
        <time>2021-05-23T12:04:50.000Z</time>
      </trkpt>
      <trkpt lat="51.694616" lon="0.811268">
        <ele>13.396588</ele>
        <time>2021-05-23T12:05:00.000Z</time>
      </trkpt>
      <trkpt lat="51.694635" lon="0.810773">
        <ele>13.368959</ele>
        <time>2021-05-23T12:05:03.000Z</time>
      </trkpt>
      <trkpt lat="51.694652" lon="0.810322">
        <ele>13.342831</ele>
        <time>2021-05-23T12:05:06.000Z</time>
      </trkpt>
      <trkpt lat="51.694581" lon="0.809736">
        <ele>13.257252</ele>
        <time>2021-05-23T12:05:10.000Z</time>
      </trkpt>
      <trkpt lat="51.694189" lon="0.80808">
        <ele>12.93781</ele>
        <time>2021-05-23T12:05:22.000Z</time>
      </trkpt>
      <trkpt lat="51.694025" lon="0.807519">
        <ele>12.822998</ele>
        <time>2021-05-23T12:05:26.000Z</time>
      </trkpt>
      <trkpt lat="51.693778" lon="0.806778">
        <ele>12.718786</ele>
        <time>2021-05-23T12:05:32.000Z</time>
      </trkpt>
      <trkpt lat="51.693596" lon="0.806036">
        <ele>12.623793</ele>
        <time>2021-05-23T12:05:38.000Z</time>
      </trkpt>
      <trkpt lat="51.693477" lon="0.805331">
        <ele>12.535906</ele>
        <time>2021-05-23T12:05:43.000Z</time>
      </trkpt>
      <trkpt lat="51.693458" lon="0.805127">
        <ele>12.513052</ele>
        <time>2021-05-23T12:05:44.000Z</time>
      </trkpt>
      <trkpt lat="51.693452" lon="0.804449">
        <ele>12.448065</ele>
        <time>2021-05-23T12:05:49.000Z</time>
      </trkpt>
      <trkpt lat="51.69343" lon="0.804046">
        <ele>12.423263</ele>
        <time>2021-05-23T12:05:52.000Z</time>
      </trkpt>
      <trkpt lat="51.693361" lon="0.803514">
        <ele>12.390567</ele>
        <time>2021-05-23T12:05:56.000Z</time>
      </trkpt>
      <trkpt lat="51.69326" lon="0.803107">
        <ele>12.364201</ele>
        <time>2021-05-23T12:05:59.000Z</time>
      </trkpt>
      <trkpt lat="51.693254" lon="0.803049">
        <ele>12.360214</ele>
        <time>2021-05-23T12:05:59.000Z</time>
      </trkpt>
      <trkpt lat="51.693098" lon="0.802571">
        <ele>12.327855</ele>
        <time>2021-05-23T12:06:03.000Z</time>
      </trkpt>
      <trkpt lat="51.692715" lon="0.80166">
        <ele>12.134592</ele>
        <time>2021-05-23T12:06:11.000Z</time>
      </trkpt>
      <trkpt lat="51.692602" lon="0.801364">
        <ele>12.010245</ele>
        <time>2021-05-23T12:06:13.000Z</time>
      </trkpt>
      <trkpt lat="51.692565" lon="0.801268">
        <ele>11.971057</ele>
        <time>2021-05-23T12:06:14.000Z</time>
      </trkpt>
      <trkpt lat="51.692371" lon="0.800663">
        <ele>11.73568</ele>
        <time>2021-05-23T12:06:19.000Z</time>
      </trkpt>
      <trkpt lat="51.692122" lon="0.799727">
        <ele>11.386642</ele>
        <time>2021-05-23T12:06:26.000Z</time>
      </trkpt>
      <trkpt lat="51.691971" lon="0.79832">
        <ele>10.636779</ele>
        <time>2021-05-23T12:06:36.000Z</time>
      </trkpt>
      <trkpt lat="51.691974" lon="0.797637">
        <ele>10.246199</ele>
        <time>2021-05-23T12:06:41.000Z</time>
      </trkpt>
      <trkpt lat="51.691971" lon="0.796982">
        <ele>9.879968</ele>
        <time>2021-05-23T12:06:46.000Z</time>
      </trkpt>
      <trkpt lat="51.691812" lon="0.795458">
        <ele>9.16981</ele>
        <time>2021-05-23T12:06:57.000Z</time>
      </trkpt>
      <trkpt lat="51.691794" lon="0.795208">
        <ele>9.066155</ele>
        <time>2021-05-23T12:06:59.000Z</time>
      </trkpt>
      <trkpt lat="51.691808" lon="0.795004">
        <ele>8.980049</ele>
        <time>2021-05-23T12:07:00.000Z</time>
      </trkpt>
      <trkpt lat="51.691853" lon="0.793944">
        <ele>8.533962</ele>
        <time>2021-05-23T12:07:07.000Z</time>
      </trkpt>
      <trkpt lat="51.691846" lon="0.793773">
        <ele>8.459531</ele>
        <time>2021-05-23T12:07:08.000Z</time>
      </trkpt>
      <trkpt lat="51.691809" lon="0.793632">
        <ele>8.40648</ele>
        <time>2021-05-23T12:07:09.000Z</time>
      </trkpt>
      <trkpt lat="51.691785" lon="0.793486">
        <ele>8.359794</ele>
        <time>2021-05-23T12:07:10.000Z</time>
      </trkpt>
      <trkpt lat="51.691759" lon="0.793381">
        <ele>8.325789</ele>
        <time>2021-05-23T12:07:11.000Z</time>
      </trkpt>
      <trkpt lat="51.691675" lon="0.793209">
        <ele>8.265368</ele>
        <time>2021-05-23T12:07:13.000Z</time>
      </trkpt>
      <trkpt lat="51.691467" lon="0.792969">
        <ele>8.144323</ele>
        <time>2021-05-23T12:07:16.000Z</time>
      </trkpt>
      <trkpt lat="51.691474" lon="0.792966">
        <ele>8.144031</ele>
        <time>2021-05-23T12:07:16.000Z</time>
      </trkpt>
      <trkpt lat="51.691451" lon="0.792933">
        <ele>8.12981</ele>
        <time>2021-05-23T12:07:16.000Z</time>
      </trkpt>
      <trkpt lat="51.691283" lon="0.792793">
        <ele>8.039166</ele>
        <time>2021-05-23T12:07:18.000Z</time>
      </trkpt>
      <trkpt lat="51.690758" lon="0.792249">
        <ele>7.749467</ele>
        <time>2021-05-23T12:07:25.000Z</time>
      </trkpt>
      <trkpt lat="51.690297" lon="0.791265">
        <ele>7.459826</ele>
        <time>2021-05-23T12:07:34.000Z</time>
      </trkpt>
      <trkpt lat="51.690187" lon="0.791106">
        <ele>7.416367</ele>
        <time>2021-05-23T12:07:36.000Z</time>
      </trkpt>
      <trkpt lat="51.690076" lon="0.790977">
        <ele>7.377415</ele>
        <time>2021-05-23T12:07:38.000Z</time>
      </trkpt>
      <trkpt lat="51.689527" lon="0.790327">
        <ele>7.185173</ele>
        <time>2021-05-23T12:07:46.000Z</time>
      </trkpt>
      <trkpt lat="51.689461" lon="0.790084">
        <ele>7.138293</ele>
        <time>2021-05-23T12:07:48.000Z</time>
      </trkpt>
      <trkpt lat="51.689414" lon="0.789762">
        <ele>7.079483</ele>
        <time>2021-05-23T12:07:50.000Z</time>
      </trkpt>
      <trkpt lat="51.689424" lon="0.788916">
        <ele>7.063639</ele>
        <time>2021-05-23T12:07:56.000Z</time>
      </trkpt>
      <trkpt lat="51.689416" lon="0.78878">
        <ele>7.064333</ele>
        <time>2021-05-23T12:07:57.000Z</time>
      </trkpt>
      <trkpt lat="51.68939" lon="0.788349">
        <ele>7.066522</ele>
        <time>2021-05-23T12:08:00.000Z</time>
      </trkpt>
      <trkpt lat="51.689193" lon="0.787554">
        <ele>7.070924</ele>
        <time>2021-05-23T12:08:06.000Z</time>
      </trkpt>
      <trkpt lat="51.689084" lon="0.78727">
        <ele>7.072707</ele>
        <time>2021-05-23T12:08:08.000Z</time>
      </trkpt>
      <trkpt lat="51.688832" lon="0.787021">
        <ele>7.117811</ele>
        <time>2021-05-23T12:08:11.000Z</time>
      </trkpt>
      <trkpt lat="51.688364" lon="0.786943">
        <ele>7.551275</ele>
        <time>2021-05-23T12:08:16.000Z</time>
      </trkpt>
      <trkpt lat="51.68603" lon="0.787095">
        <ele>10.016064</ele>
        <time>2021-05-23T12:08:42.000Z</time>
      </trkpt>
      <trkpt lat="51.686018" lon="0.787087">
        <ele>10.038474</ele>
        <time>2021-05-23T12:08:42.000Z</time>
      </trkpt>
      <trkpt lat="51.685913" lon="0.787051">
        <ele>10.178623</ele>
        <time>2021-05-23T12:08:43.000Z</time>
      </trkpt>
      <trkpt lat="51.68557" lon="0.786768">
        <ele>10.646108</ele>
        <time>2021-05-23T12:08:47.000Z</time>
      </trkpt>
      <trkpt lat="51.685379" lon="0.786531">
        <ele>10.92695</ele>
        <time>2021-05-23T12:08:50.000Z</time>
      </trkpt>
      <trkpt lat="51.685101" lon="0.785847">
        <ele>10.988768</ele>
        <time>2021-05-23T12:08:56.000Z</time>
      </trkpt>
      <trkpt lat="51.685065" lon="0.785734">
        <ele>10.99625</ele>
        <time>2021-05-23T12:08:57.000Z</time>
      </trkpt>
      <trkpt lat="51.685047" lon="0.785589">
        <ele>11.004997</ele>
        <time>2021-05-23T12:08:58.000Z</time>
      </trkpt>
      <trkpt lat="51.684924" lon="0.783258">
        <ele>11.125921</ele>
        <time>2021-05-23T12:09:14.000Z</time>
      </trkpt>
      <trkpt lat="51.684895" lon="0.782887">
        <ele>11.135472</ele>
        <time>2021-05-23T12:09:17.000Z</time>
      </trkpt>
      <trkpt lat="51.684812" lon="0.782669">
        <ele>11.141969</ele>
        <time>2021-05-23T12:09:19.000Z</time>
      </trkpt>
      <trkpt lat="51.684697" lon="0.782466">
        <ele>11.149311</ele>
        <time>2021-05-23T12:09:21.000Z</time>
      </trkpt>
      <trkpt lat="51.684501" lon="0.782278">
        <ele>11.158413</ele>
        <time>2021-05-23T12:09:24.000Z</time>
      </trkpt>
      <trkpt lat="51.684402" lon="0.782227">
        <ele>11.162936</ele>
        <time>2021-05-23T12:09:25.000Z</time>
      </trkpt>
      <trkpt lat="51.6843" lon="0.782222">
        <ele>11.167016</ele>
        <time>2021-05-23T12:09:26.000Z</time>
      </trkpt>
      <trkpt lat="51.681849" lon="0.782735">
        <ele>12.475468</ele>
        <time>2021-05-23T12:09:53.000Z</time>
      </trkpt>
      <trkpt lat="51.681745" lon="0.782754">
        <ele>12.492824</ele>
        <time>2021-05-23T12:09:54.000Z</time>
      </trkpt>
      <trkpt lat="51.681579" lon="0.782727">
        <ele>12.517971</ele>
        <time>2021-05-23T12:09:56.000Z</time>
      </trkpt>
      <trkpt lat="51.681335" lon="0.782579">
        <ele>12.557288</ele>
        <time>2021-05-23T12:09:59.000Z</time>
      </trkpt>
      <trkpt lat="51.681213" lon="0.78234">
        <ele>12.587198</ele>
        <time>2021-05-23T12:10:01.000Z</time>
      </trkpt>
      <trkpt lat="51.681161" lon="0.78213">
        <ele>12.608092</ele>
        <time>2021-05-23T12:10:03.000Z</time>
      </trkpt>
      <trkpt lat="51.681121" lon="0.781854">
        <ele>12.636958</ele>
        <time>2021-05-23T12:10:05.000Z</time>
      </trkpt>
      <trkpt lat="51.680991" lon="0.780968">
        <ele>12.725031</ele>
        <time>2021-05-23T12:10:11.000Z</time>
      </trkpt>
      <trkpt lat="51.680539" lon="0.778075">
        <ele>11.233393</ele>
        <time>2021-05-23T12:10:32.000Z</time>
      </trkpt>
      <trkpt lat="51.680526" lon="0.777822">
        <ele>11.138404</ele>
        <time>2021-05-23T12:10:34.000Z</time>
      </trkpt>
      <trkpt lat="51.680532" lon="0.777582">
        <ele>11.05401</ele>
        <time>2021-05-23T12:10:36.000Z</time>
      </trkpt>
      <trkpt lat="51.680531" lon="0.77686">
        <ele>10.78282</ele>
        <time>2021-05-23T12:10:41.000Z</time>
      </trkpt>
      <trkpt lat="51.680501" lon="0.776371">
        <ele>10.604566</ele>
        <time>2021-05-23T12:10:44.000Z</time>
      </trkpt>
      <trkpt lat="51.680421" lon="0.775984">
        <ele>10.453233</ele>
        <time>2021-05-23T12:10:47.000Z</time>
      </trkpt>
      <trkpt lat="51.680158" lon="0.774903">
        <ele>10.123115</ele>
        <time>2021-05-23T12:10:55.000Z</time>
      </trkpt>
      <trkpt lat="51.679866" lon="0.773581">
        <ele>9.906577</ele>
        <time>2021-05-23T12:11:05.000Z</time>
      </trkpt>
      <trkpt lat="51.679809" lon="0.773239">
        <ele>9.853466</ele>
        <time>2021-05-23T12:11:07.000Z</time>
      </trkpt>
      <trkpt lat="51.679821" lon="0.772902">
        <ele>9.802752</ele>
        <time>2021-05-23T12:11:09.000Z</time>
      </trkpt>
      <trkpt lat="51.679832" lon="0.77257">
        <ele>9.751386</ele>
        <time>2021-05-23T12:11:11.000Z</time>
      </trkpt>
      <trkpt lat="51.679807" lon="0.772332">
        <ele>9.707207</ele>
        <time>2021-05-23T12:11:13.000Z</time>
      </trkpt>
      <trkpt lat="51.67976" lon="0.772173">
        <ele>9.675376</ele>
        <time>2021-05-23T12:11:14.000Z</time>
      </trkpt>
      <trkpt lat="51.679721" lon="0.771996">
        <ele>9.640841</ele>
        <time>2021-05-23T12:11:15.000Z</time>
      </trkpt>
      <trkpt lat="51.679141" lon="0.770384">
        <ele>9.297774</ele>
        <time>2021-05-23T12:11:28.000Z</time>
      </trkpt>
      <trkpt lat="51.679059" lon="0.770061">
        <ele>9.235614</ele>
        <time>2021-05-23T12:11:30.000Z</time>
      </trkpt>
      <trkpt lat="51.679032" lon="0.769672">
        <ele>9.179965</ele>
        <time>2021-05-23T12:11:33.000Z</time>
      </trkpt>
      <trkpt lat="51.679108" lon="0.768188">
        <ele>9.007647</ele>
        <time>2021-05-23T12:11:43.000Z</time>
      </trkpt>
      <trkpt lat="51.679192" lon="0.767508">
        <ele>8.927358</ele>
        <time>2021-05-23T12:11:48.000Z</time>
      </trkpt>
      <trkpt lat="51.679291" lon="0.766491">
        <ele>8.888762</ele>
        <time>2021-05-23T12:11:55.000Z</time>
      </trkpt>
      <trkpt lat="51.679418" lon="0.765462">
        <ele>8.91017</ele>
        <time>2021-05-23T12:12:02.000Z</time>
      </trkpt>
      <trkpt lat="51.67947" lon="0.764994">
        <ele>8.919724</ele>
        <time>2021-05-23T12:12:05.000Z</time>
      </trkpt>
      <trkpt lat="51.679483" lon="0.764699">
        <ele>8.925822</ele>
        <time>2021-05-23T12:12:07.000Z</time>
      </trkpt>
      <trkpt lat="51.67946" lon="0.764425">
        <ele>8.931463</ele>
        <time>2021-05-23T12:12:09.000Z</time>
      </trkpt>
      <trkpt lat="51.679439" lon="0.76403">
        <ele>8.940816</ele>
        <time>2021-05-23T12:12:12.000Z</time>
      </trkpt>
      <trkpt lat="51.679417" lon="0.763982">
        <ele>8.942242</ele>
        <time>2021-05-23T12:12:12.000Z</time>
      </trkpt>
      <trkpt lat="51.67932" lon="0.763584">
        <ele>8.953736</ele>
        <time>2021-05-23T12:12:15.000Z</time>
      </trkpt>
      <trkpt lat="51.679305" lon="0.763536">
        <ele>8.954812</ele>
        <time>2021-05-23T12:12:15.000Z</time>
      </trkpt>
      <trkpt lat="51.679293" lon="0.763453">
        <ele>8.957278</ele>
        <time>2021-05-23T12:12:16.000Z</time>
      </trkpt>
      <trkpt lat="51.679015" lon="0.762622">
        <ele>8.982555</ele>
        <time>2021-05-23T12:12:23.000Z</time>
      </trkpt>
      <trkpt lat="51.679017" lon="0.762609">
        <ele>8.983194</ele>
        <time>2021-05-23T12:12:23.000Z</time>
      </trkpt>
      <trkpt lat="51.678688" lon="0.761617">
        <ele>9.013364</ele>
        <time>2021-05-23T12:12:31.000Z</time>
      </trkpt>
      <trkpt lat="51.678569" lon="0.761185">
        <ele>9.054718</ele>
        <time>2021-05-23T12:12:34.000Z</time>
      </trkpt>
      <trkpt lat="51.678333" lon="0.760015">
        <ele>9.166884</ele>
        <time>2021-05-23T12:12:42.000Z</time>
      </trkpt>
      <trkpt lat="51.678149" lon="0.759211">
        <ele>9.243887</ele>
        <time>2021-05-23T12:12:48.000Z</time>
      </trkpt>
      <trkpt lat="51.677997" lon="0.758435">
        <ele>9.393583</ele>
        <time>2021-05-23T12:12:54.000Z</time>
      </trkpt>
      <trkpt lat="51.677855" lon="0.757821">
        <ele>9.567571</ele>
        <time>2021-05-23T12:12:59.000Z</time>
      </trkpt>
      <trkpt lat="51.67744" lon="0.756071">
        <ele>10.073825</ele>
        <time>2021-05-23T12:13:12.000Z</time>
      </trkpt>
      <trkpt lat="51.677181" lon="0.755298">
        <ele>10.453506</ele>
        <time>2021-05-23T12:13:18.000Z</time>
      </trkpt>
      <trkpt lat="51.676603" lon="0.754115">
        <ele>11.095246</ele>
        <time>2021-05-23T12:13:28.000Z</time>
      </trkpt>
      <trkpt lat="51.67649" lon="0.75371">
        <ele>11.284567</ele>
        <time>2021-05-23T12:13:31.000Z</time>
      </trkpt>
      <trkpt lat="51.67645" lon="0.753486">
        <ele>11.357629</ele>
        <time>2021-05-23T12:13:33.000Z</time>
      </trkpt>
      <trkpt lat="51.676392" lon="0.752839">
        <ele>11.566149</ele>
        <time>2021-05-23T12:13:38.000Z</time>
      </trkpt>
      <trkpt lat="51.67627" lon="0.752076">
        <ele>11.814722</ele>
        <time>2021-05-23T12:13:43.000Z</time>
      </trkpt>
      <trkpt lat="51.676217" lon="0.751827">
        <ele>11.898587</ele>
        <time>2021-05-23T12:13:45.000Z</time>
      </trkpt>
      <trkpt lat="51.675954" lon="0.750603">
        <ele>12.136318</ele>
        <time>2021-05-23T12:13:54.000Z</time>
      </trkpt>
      <trkpt lat="51.675917" lon="0.750273">
        <ele>12.074328</ele>
        <time>2021-05-23T12:13:56.000Z</time>
      </trkpt>
      <trkpt lat="51.675904" lon="0.750044">
        <ele>12.029972</ele>
        <time>2021-05-23T12:13:58.000Z</time>
      </trkpt>
      <trkpt lat="51.675972" lon="0.749586">
        <ele>11.941825</ele>
        <time>2021-05-23T12:14:01.000Z</time>
      </trkpt>
      <trkpt lat="51.676052" lon="0.749375">
        <ele>11.895264</ele>
        <time>2021-05-23T12:14:03.000Z</time>
      </trkpt>
      <trkpt lat="51.676476" lon="0.748539">
        <ele>11.691621</ele>
        <time>2021-05-23T12:14:10.000Z</time>
      </trkpt>
      <trkpt lat="51.676505" lon="0.748477">
        <ele>11.678469</ele>
        <time>2021-05-23T12:14:11.000Z</time>
      </trkpt>
      <trkpt lat="51.676515" lon="0.748398">
        <ele>11.663413</ele>
        <time>2021-05-23T12:14:12.000Z</time>
      </trkpt>
      <trkpt lat="51.67654" lon="0.748256">
        <ele>11.572032</ele>
        <time>2021-05-23T12:14:13.000Z</time>
      </trkpt>
      <trkpt lat="51.676572" lon="0.747995">
        <ele>11.33248</ele>
        <time>2021-05-23T12:14:15.000Z</time>
      </trkpt>
      <trkpt lat="51.676555" lon="0.747541">
        <ele>10.931332</ele>
        <time>2021-05-23T12:14:18.000Z</time>
      </trkpt>
      <trkpt lat="51.676538" lon="0.745889">
        <ele>9.492056</ele>
        <time>2021-05-23T12:14:29.000Z</time>
      </trkpt>
      <trkpt lat="51.67652" lon="0.744941">
        <ele>8.832945</ele>
        <time>2021-05-23T12:14:36.000Z</time>
      </trkpt>
      <trkpt lat="51.676446" lon="0.742442">
        <ele>7.52515</ele>
        <time>2021-05-23T12:14:53.000Z</time>
      </trkpt>
      <trkpt lat="51.676103" lon="0.740856">
        <ele>7.566342</ele>
        <time>2021-05-23T12:15:05.000Z</time>
      </trkpt>
      <trkpt lat="51.676061" lon="0.740642">
        <ele>7.571504</ele>
        <time>2021-05-23T12:15:07.000Z</time>
      </trkpt>
      <trkpt lat="51.675921" lon="0.739878">
        <ele>7.590966</ele>
        <time>2021-05-23T12:15:12.000Z</time>
      </trkpt>
      <trkpt lat="51.675467" lon="0.737201">
        <ele>7.816334</ele>
        <time>2021-05-23T12:15:31.000Z</time>
      </trkpt>
      <trkpt lat="51.675311" lon="0.736017">
        <ele>7.79976</ele>
        <time>2021-05-23T12:15:39.000Z</time>
      </trkpt>
      <trkpt lat="51.675219" lon="0.734278">
        <ele>7.742345</ele>
        <time>2021-05-23T12:15:51.000Z</time>
      </trkpt>
      <trkpt lat="51.675217" lon="0.732147">
        <ele>7.914892</ele>
        <time>2021-05-23T12:16:06.000Z</time>
      </trkpt>
      <trkpt lat="51.675191" lon="0.731721">
        <ele>7.954533</ele>
        <time>2021-05-23T12:16:09.000Z</time>
      </trkpt>
      <trkpt lat="51.675079" lon="0.731222">
        <ele>8.015536</ele>
        <time>2021-05-23T12:16:13.000Z</time>
      </trkpt>
      <trkpt lat="51.674938" lon="0.730914">
        <ele>8.185776</ele>
        <time>2021-05-23T12:16:16.000Z</time>
      </trkpt>
      <trkpt lat="51.674745" lon="0.730689">
        <ele>8.351119</ele>
        <time>2021-05-23T12:16:19.000Z</time>
      </trkpt>
      <trkpt lat="51.672811" lon="0.729815">
        <ele>9.961967</ele>
        <time>2021-05-23T12:16:41.000Z</time>
      </trkpt>
      <trkpt lat="51.672356" lon="0.729519">
        <ele>10.450407</ele>
        <time>2021-05-23T12:16:46.000Z</time>
      </trkpt>
      <trkpt lat="51.672097" lon="0.729338">
        <ele>10.718685</ele>
        <time>2021-05-23T12:16:49.000Z</time>
      </trkpt>
      <trkpt lat="51.671945" lon="0.729133">
        <ele>10.918727</ele>
        <time>2021-05-23T12:16:51.000Z</time>
      </trkpt>
      <trkpt lat="51.671793" lon="0.728747">
        <ele>11.150992</ele>
        <time>2021-05-23T12:16:54.000Z</time>
      </trkpt>
      <trkpt lat="51.671732" lon="0.728243">
        <ele>11.384079</ele>
        <time>2021-05-23T12:16:58.000Z</time>
      </trkpt>
      <trkpt lat="51.67174" lon="0.727671">
        <ele>11.633228</ele>
        <time>2021-05-23T12:17:02.000Z</time>
      </trkpt>
      <trkpt lat="51.671772" lon="0.727359">
        <ele>11.777201</ele>
        <time>2021-05-23T12:17:04.000Z</time>
      </trkpt>
      <trkpt lat="51.671773" lon="0.727048">
        <ele>11.91468</ele>
        <time>2021-05-23T12:17:06.000Z</time>
      </trkpt>
      <trkpt lat="51.671626" lon="0.725891">
        <ele>12.388009</ele>
        <time>2021-05-23T12:17:14.000Z</time>
      </trkpt>
      <trkpt lat="51.671601" lon="0.725786">
        <ele>12.419019</ele>
        <time>2021-05-23T12:17:15.000Z</time>
      </trkpt>
      <trkpt lat="51.671471" lon="0.725875">
        <ele>12.473439</ele>
        <time>2021-05-23T12:17:17.000Z</time>
      </trkpt>
      <trkpt lat="51.67025" lon="0.726044">
        <ele>12.9651</ele>
        <time>2021-05-23T12:17:31.000Z</time>
      </trkpt>
      <trkpt lat="51.669786" lon="0.726146">
        <ele>13.252273</ele>
        <time>2021-05-23T12:17:36.000Z</time>
      </trkpt>
      <trkpt lat="51.669534" lon="0.726207">
        <ele>13.437495</ele>
        <time>2021-05-23T12:17:39.000Z</time>
      </trkpt>
      <trkpt lat="51.669426" lon="0.726254">
        <ele>13.512538</ele>
        <time>2021-05-23T12:17:40.000Z</time>
      </trkpt>
      <trkpt lat="51.669239" lon="0.726328">
        <ele>13.663972</ele>
        <time>2021-05-23T12:17:42.000Z</time>
      </trkpt>
      <trkpt lat="51.668845" lon="0.726446">
        <ele>13.95417</ele>
        <time>2021-05-23T12:17:46.000Z</time>
      </trkpt>
      <trkpt lat="51.668019" lon="0.726735">
        <ele>14.727907</ele>
        <time>2021-05-23T12:17:55.000Z</time>
      </trkpt>
      <trkpt lat="51.66745" lon="0.726946">
        <ele>15.485472</ele>
        <time>2021-05-23T12:18:01.000Z</time>
      </trkpt>
      <trkpt lat="51.667377" lon="0.726961">
        <ele>15.570864</ele>
        <time>2021-05-23T12:18:02.000Z</time>
      </trkpt>
      <trkpt lat="51.667121" lon="0.727051">
        <ele>15.905126</ele>
        <time>2021-05-23T12:18:05.000Z</time>
      </trkpt>
      <trkpt lat="51.666766" lon="0.727319">
        <ele>16.406938</ele>
        <time>2021-05-23T12:18:09.000Z</time>
      </trkpt>
      <trkpt lat="51.666643" lon="0.727789">
        <ele>16.843194</ele>
        <time>2021-05-23T12:18:13.000Z</time>
      </trkpt>
      <trkpt lat="51.666639" lon="0.728385">
        <ele>17.442331</ele>
        <time>2021-05-23T12:18:17.000Z</time>
      </trkpt>
      <trkpt lat="51.666682" lon="0.728578">
        <ele>17.640168</ele>
        <time>2021-05-23T12:18:18.000Z</time>
      </trkpt>
      <trkpt lat="51.666532" lon="0.728694">
        <ele>17.907954</ele>
        <time>2021-05-23T12:18:20.000Z</time>
      </trkpt>
      <trkpt lat="51.665831" lon="0.728805">
        <ele>19.01009</ele>
        <time>2021-05-23T12:18:28.000Z</time>
      </trkpt>
      <trkpt lat="51.664162" lon="0.729159">
        <ele>21.968573</ele>
        <time>2021-05-23T12:18:47.000Z</time>
      </trkpt>
      <trkpt lat="51.663942" lon="0.729206">
        <ele>22.364087</ele>
        <time>2021-05-23T12:18:49.000Z</time>
      </trkpt>
      <trkpt lat="51.662129" lon="0.729611">
        <ele>25.490257</ele>
        <time>2021-05-23T12:19:09.000Z</time>
      </trkpt>
      <trkpt lat="51.660869" lon="0.729753">
        <ele>28.276522</ele>
        <time>2021-05-23T12:19:23.000Z</time>
      </trkpt>
      <trkpt lat="51.66039" lon="0.729823">
        <ele>29.366207</ele>
        <time>2021-05-23T12:19:28.000Z</time>
      </trkpt>
      <trkpt lat="51.659911" lon="0.729834">
        <ele>30.985413</ele>
        <time>2021-05-23T12:19:33.000Z</time>
      </trkpt>
      <trkpt lat="51.659345" lon="0.729841">
        <ele>33.699266</ele>
        <time>2021-05-23T12:19:39.000Z</time>
      </trkpt>
      <trkpt lat="51.658818" lon="0.729924">
        <ele>36.250094</ele>
        <time>2021-05-23T12:19:45.000Z</time>
      </trkpt>
      <trkpt lat="51.658074" lon="0.730076">
        <ele>39.803676</ele>
        <time>2021-05-23T12:19:53.000Z</time>
      </trkpt>
      <trkpt lat="51.656781" lon="0.730074">
        <ele>46.239737</ele>
        <time>2021-05-23T12:20:07.000Z</time>
      </trkpt>
      <trkpt lat="51.656457" lon="0.730071">
        <ele>47.617984</ele>
        <time>2021-05-23T12:20:11.000Z</time>
      </trkpt>
      <trkpt lat="51.656422" lon="0.730065">
        <ele>47.695331</ele>
        <time>2021-05-23T12:20:11.000Z</time>
      </trkpt>
      <trkpt lat="51.655343" lon="0.730127">
        <ele>49.840666</ele>
        <time>2021-05-23T12:20:23.000Z</time>
      </trkpt>
      <trkpt lat="51.655307" lon="0.730948">
        <ele>50.832456</ele>
        <time>2021-05-23T12:20:29.000Z</time>
      </trkpt>
      <trkpt lat="51.655296" lon="0.731337">
        <ele>51.062408</ele>
        <time>2021-05-23T12:20:32.000Z</time>
      </trkpt>
      <trkpt lat="51.655264" lon="0.732236">
        <ele>51.287327</ele>
        <time>2021-05-23T12:20:38.000Z</time>
      </trkpt>
      <trkpt lat="51.655242" lon="0.733267">
        <ele>51.543831</ele>
        <time>2021-05-23T12:20:45.000Z</time>
      </trkpt>
      <trkpt lat="51.65524" lon="0.733291">
        <ele>51.550352</ele>
        <time>2021-05-23T12:20:45.000Z</time>
      </trkpt>
      <trkpt lat="51.655124" lon="0.734362">
        <ele>51.543078</ele>
        <time>2021-05-23T12:20:52.000Z</time>
      </trkpt>
      <trkpt lat="51.65512" lon="0.734361">
        <ele>51.535763</ele>
        <time>2021-05-23T12:20:52.000Z</time>
      </trkpt>
      <trkpt lat="51.655131" lon="0.734373">
        <ele>51.535754</ele>
        <time>2021-05-23T12:20:52.000Z</time>
      </trkpt>
      <trkpt lat="51.655044" lon="0.734936">
        <ele>51.274912</ele>
        <time>2021-05-23T12:20:56.000Z</time>
      </trkpt>
      <trkpt lat="51.654978" lon="0.735377">
        <ele>51.071724</ele>
        <time>2021-05-23T12:20:59.000Z</time>
      </trkpt>
      <trkpt lat="51.654963" lon="0.73583">
        <ele>50.871595</ele>
        <time>2021-05-23T12:21:02.000Z</time>
      </trkpt>
      <trkpt lat="51.654956" lon="0.735942">
        <ele>50.816938</ele>
        <time>2021-05-23T12:21:03.000Z</time>
      </trkpt>
      <trkpt lat="51.654944" lon="0.736127">
        <ele>50.736701</ele>
        <time>2021-05-23T12:21:04.000Z</time>
      </trkpt>
      <trkpt lat="51.654952" lon="0.736253">
        <ele>50.679429</ele>
        <time>2021-05-23T12:21:05.000Z</time>
      </trkpt>
      <trkpt lat="51.654989" lon="0.736824">
        <ele>50.415757</ele>
        <time>2021-05-23T12:21:09.000Z</time>
      </trkpt>
      <trkpt lat="51.655014" lon="0.737939">
        <ele>48.503785</ele>
        <time>2021-05-23T12:21:17.000Z</time>
      </trkpt>
      <trkpt lat="51.655164" lon="0.740926">
        <ele>43.218364</ele>
        <time>2021-05-23T12:21:38.000Z</time>
      </trkpt>
      <trkpt lat="51.655162" lon="0.741035">
        <ele>43.018009</ele>
        <time>2021-05-23T12:21:39.000Z</time>
      </trkpt>
      <trkpt lat="51.655278" lon="0.74275">
        <ele>40.065029</ele>
        <time>2021-05-23T12:21:51.000Z</time>
      </trkpt>
      <trkpt lat="51.655331" lon="0.743758">
        <ele>39.076612</ele>
        <time>2021-05-23T12:21:58.000Z</time>
      </trkpt>
      <trkpt lat="51.655403" lon="0.744948">
        <ele>37.918254</ele>
        <time>2021-05-23T12:22:06.000Z</time>
      </trkpt>
      <trkpt lat="51.655408" lon="0.745292">
        <ele>37.594644</ele>
        <time>2021-05-23T12:22:08.000Z</time>
      </trkpt>
      <trkpt lat="51.655411" lon="0.745447">
        <ele>37.446652</ele>
        <time>2021-05-23T12:22:09.000Z</time>
      </trkpt>
      <trkpt lat="51.655394" lon="0.745483">
        <ele>37.413579</ele>
        <time>2021-05-23T12:22:09.000Z</time>
      </trkpt>
      <trkpt lat="51.655388" lon="0.745616">
        <ele>37.415169</ele>
        <time>2021-05-23T12:22:10.000Z</time>
      </trkpt>
      <trkpt lat="51.655382" lon="0.745677">
        <ele>37.422039</ele>
        <time>2021-05-23T12:22:10.000Z</time>
      </trkpt>
      <trkpt lat="51.655348" lon="0.746094">
        <ele>37.467772</ele>
        <time>2021-05-23T12:22:13.000Z</time>
      </trkpt>
      <trkpt lat="51.65532" lon="0.746361">
        <ele>37.496618</ele>
        <time>2021-05-23T12:22:15.000Z</time>
      </trkpt>
      <trkpt lat="51.655329" lon="0.746397">
        <ele>37.500297</ele>
        <time>2021-05-23T12:22:15.000Z</time>
      </trkpt>
      <trkpt lat="51.655255" lon="0.7468">
        <ele>37.544457</ele>
        <time>2021-05-23T12:22:18.000Z</time>
      </trkpt>
      <trkpt lat="51.655218" lon="0.746976">
        <ele>37.564311</ele>
        <time>2021-05-23T12:22:19.000Z</time>
      </trkpt>
      <trkpt lat="51.655191" lon="0.74718">
        <ele>37.585913</ele>
        <time>2021-05-23T12:22:20.000Z</time>
      </trkpt>
      <trkpt lat="51.655198" lon="0.747369">
        <ele>37.606438</ele>
        <time>2021-05-23T12:22:21.000Z</time>
      </trkpt>
      <trkpt lat="51.655189" lon="0.74743">
        <ele>37.612933</ele>
        <time>2021-05-23T12:22:21.000Z</time>
      </trkpt>
      <trkpt lat="51.655186" lon="0.747724">
        <ele>37.643941</ele>
        <time>2021-05-23T12:22:23.000Z</time>
      </trkpt>
      <trkpt lat="51.655168" lon="0.748171">
        <ele>37.691263</ele>
        <time>2021-05-23T12:22:26.000Z</time>
      </trkpt>
      <trkpt lat="51.655171" lon="0.748667">
        <ele>38.041323</ele>
        <time>2021-05-23T12:22:29.000Z</time>
      </trkpt>
      <trkpt lat="51.655196" lon="0.749635">
        <ele>39.073985</ele>
        <time>2021-05-23T12:22:36.000Z</time>
      </trkpt>
      <trkpt lat="51.655239" lon="0.75016">
        <ele>39.641611</ele>
        <time>2021-05-23T12:22:40.000Z</time>
      </trkpt>
      <trkpt lat="51.65525" lon="0.751546">
        <ele>40.976756</ele>
        <time>2021-05-23T12:22:50.000Z</time>
      </trkpt>
      <trkpt lat="51.655261" lon="0.751885">
        <ele>41.178573</ele>
        <time>2021-05-23T12:22:52.000Z</time>
      </trkpt>
      <trkpt lat="51.655272" lon="0.752539">
        <ele>41.558839</ele>
        <time>2021-05-23T12:22:57.000Z</time>
      </trkpt>
      <trkpt lat="51.655285" lon="0.752843">
        <ele>41.737147</ele>
        <time>2021-05-23T12:22:59.000Z</time>
      </trkpt>
      <trkpt lat="51.655308" lon="0.753688">
        <ele>42.225943</ele>
        <time>2021-05-23T12:23:05.000Z</time>
      </trkpt>
      <trkpt lat="51.655305" lon="0.754107">
        <ele>42.475016</ele>
        <time>2021-05-23T12:23:08.000Z</time>
      </trkpt>
      <trkpt lat="51.655308" lon="0.754538">
        <ele>42.831323</ele>
        <time>2021-05-23T12:23:11.000Z</time>
      </trkpt>
      <trkpt lat="51.655306" lon="0.754913">
        <ele>43.15852</ele>
        <time>2021-05-23T12:23:14.000Z</time>
      </trkpt>
      <trkpt lat="51.655288" lon="0.755554">
        <ele>43.702059</ele>
        <time>2021-05-23T12:23:18.000Z</time>
      </trkpt>
      <trkpt lat="51.655308" lon="0.756574">
        <ele>44.559044</ele>
        <time>2021-05-23T12:23:25.000Z</time>
      </trkpt>
      <trkpt lat="51.655302" lon="0.757332">
        <ele>45.160206</ele>
        <time>2021-05-23T12:23:30.000Z</time>
      </trkpt>
      <trkpt lat="51.655326" lon="0.757606">
        <ele>45.359117</ele>
        <time>2021-05-23T12:23:32.000Z</time>
      </trkpt>
      <trkpt lat="51.655342" lon="0.758032">
        <ele>45.660063</ele>
        <time>2021-05-23T12:23:35.000Z</time>
      </trkpt>
      <trkpt lat="51.65536" lon="0.758299">
        <ele>45.836099</ele>
        <time>2021-05-23T12:23:37.000Z</time>
      </trkpt>
      <trkpt lat="51.655407" lon="0.758848">
        <ele>46.22499</ele>
        <time>2021-05-23T12:23:41.000Z</time>
      </trkpt>
      <trkpt lat="51.655436" lon="0.759421">
        <ele>46.621183</ele>
        <time>2021-05-23T12:23:45.000Z</time>
      </trkpt>
      <trkpt lat="51.655438" lon="0.759761">
        <ele>46.861509</ele>
        <time>2021-05-23T12:23:47.000Z</time>
      </trkpt>
      <trkpt lat="51.655438" lon="0.759935">
        <ele>46.97559</ele>
        <time>2021-05-23T12:23:48.000Z</time>
      </trkpt>
      <trkpt lat="51.655442" lon="0.760528">
        <ele>46.947397</ele>
        <time>2021-05-23T12:23:52.000Z</time>
      </trkpt>
      <trkpt lat="51.655476" lon="0.761393">
        <ele>46.905826</ele>
        <time>2021-05-23T12:23:58.000Z</time>
      </trkpt>
      <trkpt lat="51.655478" lon="0.762206">
        <ele>46.866772</ele>
        <time>2021-05-23T12:24:04.000Z</time>
      </trkpt>
      <trkpt lat="51.655493" lon="0.762994">
        <ele>46.801114</ele>
        <time>2021-05-23T12:24:09.000Z</time>
      </trkpt>
      <trkpt lat="51.655531" lon="0.764181">
        <ele>46.55232</ele>
        <time>2021-05-23T12:24:17.000Z</time>
      </trkpt>
      <trkpt lat="51.655542" lon="0.7642">
        <ele>46.54917</ele>
        <time>2021-05-23T12:24:17.000Z</time>
      </trkpt>
      <trkpt lat="51.655493" lon="0.766068">
        <ele>46.078396</ele>
        <time>2021-05-23T12:24:30.000Z</time>
      </trkpt>
      <trkpt lat="51.655474" lon="0.767701">
        <ele>45.368601</ele>
        <time>2021-05-23T12:24:41.000Z</time>
      </trkpt>
      <trkpt lat="51.655488" lon="0.769106">
        <ele>44.649652</ele>
        <time>2021-05-23T12:24:51.000Z</time>
      </trkpt>
      <trkpt lat="51.655492" lon="0.769818">
        <ele>44.190586</ele>
        <time>2021-05-23T12:24:56.000Z</time>
      </trkpt>
      <trkpt lat="51.655527" lon="0.770536">
        <ele>43.723222</ele>
        <time>2021-05-23T12:25:01.000Z</time>
      </trkpt>
      <trkpt lat="51.655574" lon="0.771219">
        <ele>43.270968</ele>
        <time>2021-05-23T12:25:06.000Z</time>
      </trkpt>
      <trkpt lat="51.655543" lon="0.771508">
        <ele>43.081043</ele>
        <time>2021-05-23T12:25:08.000Z</time>
      </trkpt>
      <trkpt lat="51.655478" lon="0.771694">
        <ele>42.907746</ele>
        <time>2021-05-23T12:25:09.000Z</time>
      </trkpt>
      <trkpt lat="51.655278" lon="0.771838">
        <ele>42.628558</ele>
        <time>2021-05-23T12:25:11.000Z</time>
      </trkpt>
      <trkpt lat="51.655234" lon="0.771859">
        <ele>42.576189</ele>
        <time>2021-05-23T12:25:12.000Z</time>
      </trkpt>
      <trkpt lat="51.652697" lon="0.772148">
        <ele>39.384743</ele>
        <time>2021-05-23T12:25:40.000Z</time>
      </trkpt>
      <trkpt lat="51.652499" lon="0.772173">
        <ele>39.164171</ele>
        <time>2021-05-23T12:25:42.000Z</time>
      </trkpt>
      <trkpt lat="51.652406" lon="0.772246">
        <ele>39.02833</ele>
        <time>2021-05-23T12:25:43.000Z</time>
      </trkpt>
      <trkpt lat="51.652267" lon="0.772521">
        <ele>38.752481</ele>
        <time>2021-05-23T12:25:45.000Z</time>
      </trkpt>
      <trkpt lat="51.652224" lon="0.772913">
        <ele>38.524996</ele>
        <time>2021-05-23T12:25:48.000Z</time>
      </trkpt>
      <trkpt lat="51.652229" lon="0.774885">
        <ele>37.742034</ele>
        <time>2021-05-23T12:26:02.000Z</time>
      </trkpt>
      <trkpt lat="51.652343" lon="0.77601">
        <ele>37.465867</ele>
        <time>2021-05-23T12:26:10.000Z</time>
      </trkpt>
      <trkpt lat="51.652221" lon="0.776317">
        <ele>37.482064</ele>
        <time>2021-05-23T12:26:13.000Z</time>
      </trkpt>
      <trkpt lat="51.65205" lon="0.776427">
        <ele>37.494416</ele>
        <time>2021-05-23T12:26:15.000Z</time>
      </trkpt>
      <trkpt lat="51.651752" lon="0.776429">
        <ele>37.515302</ele>
        <time>2021-05-23T12:26:18.000Z</time>
      </trkpt>
      <trkpt lat="51.651556" lon="0.776502">
        <ele>37.528951</ele>
        <time>2021-05-23T12:26:20.000Z</time>
      </trkpt>
      <trkpt lat="51.65142" lon="0.776628">
        <ele>37.540026</ele>
        <time>2021-05-23T12:26:22.000Z</time>
      </trkpt>
      <trkpt lat="51.651403" lon="0.776814">
        <ele>37.548329</ele>
        <time>2021-05-23T12:26:23.000Z</time>
      </trkpt>
      <trkpt lat="51.651435" lon="0.777548">
        <ele>37.592586</ele>
        <time>2021-05-23T12:26:28.000Z</time>
      </trkpt>
      <trkpt lat="51.65147" lon="0.778071">
        <ele>37.663415</ele>
        <time>2021-05-23T12:26:32.000Z</time>
      </trkpt>
      <trkpt lat="51.651573" lon="0.779989">
        <ele>37.91939</ele>
        <time>2021-05-23T12:26:45.000Z</time>
      </trkpt>
      <trkpt lat="51.651513" lon="0.780475">
        <ele>38.005224</ele>
        <time>2021-05-23T12:26:48.000Z</time>
      </trkpt>
      <trkpt lat="51.651404" lon="0.780649">
        <ele>38.064541</ele>
        <time>2021-05-23T12:26:50.000Z</time>
      </trkpt>
      <trkpt lat="51.651235" lon="0.780693">
        <ele>38.128038</ele>
        <time>2021-05-23T12:26:52.000Z</time>
      </trkpt>
      <trkpt lat="51.649621" lon="0.780243">
        <ele>38.693755</ele>
        <time>2021-05-23T12:27:10.000Z</time>
      </trkpt>
      <trkpt lat="51.64944" lon="0.780256">
        <ele>38.721826</ele>
        <time>2021-05-23T12:27:12.000Z</time>
      </trkpt>
      <trkpt lat="51.649266" lon="0.780528">
        <ele>38.756194</ele>
        <time>2021-05-23T12:27:15.000Z</time>
      </trkpt>
      <trkpt lat="51.649199" lon="0.781244">
        <ele>38.821172</ele>
        <time>2021-05-23T12:27:20.000Z</time>
      </trkpt>
      <trkpt lat="51.649102" lon="0.782035">
        <ele>38.893576</ele>
        <time>2021-05-23T12:27:26.000Z</time>
      </trkpt>
      <trkpt lat="51.648752" lon="0.783691">
        <ele>38.685127</ele>
        <time>2021-05-23T12:27:38.000Z</time>
      </trkpt>
      <trkpt lat="51.648312" lon="0.785404">
        <ele>38.295047</ele>
        <time>2021-05-23T12:27:51.000Z</time>
      </trkpt>
      <trkpt lat="51.648135" lon="0.787176">
        <ele>37.61579</ele>
        <time>2021-05-23T12:28:03.000Z</time>
      </trkpt>
      <trkpt lat="51.64802" lon="0.787569">
        <ele>37.448577</ele>
        <time>2021-05-23T12:28:06.000Z</time>
      </trkpt>
      <trkpt lat="51.647876" lon="0.787715">
        <ele>37.336169</ele>
        <time>2021-05-23T12:28:08.000Z</time>
      </trkpt>
      <trkpt lat="51.647409" lon="0.787806">
        <ele>36.970862</ele>
        <time>2021-05-23T12:28:13.000Z</time>
      </trkpt>
      <trkpt lat="51.647213" lon="0.78799">
        <ele>36.797025</ele>
        <time>2021-05-23T12:28:16.000Z</time>
      </trkpt>
      <trkpt lat="51.647094" lon="0.78876">
        <ele>36.410443</ele>
        <time>2021-05-23T12:28:21.000Z</time>
      </trkpt>
      <trkpt lat="51.647034" lon="0.789593">
        <ele>36.000529</ele>
        <time>2021-05-23T12:28:27.000Z</time>
      </trkpt>
      <trkpt lat="51.64693" lon="0.789883">
        <ele>35.893769</ele>
        <time>2021-05-23T12:28:29.000Z</time>
      </trkpt>
      <trkpt lat="51.646818" lon="0.790034">
        <ele>35.830083</ele>
        <time>2021-05-23T12:28:31.000Z</time>
      </trkpt>
      <trkpt lat="51.646623" lon="0.789992">
        <ele>35.738952</ele>
        <time>2021-05-23T12:28:33.000Z</time>
      </trkpt>
      <trkpt lat="51.645573" lon="0.789585">
        <ele>35.248054</ele>
        <time>2021-05-23T12:28:45.000Z</time>
      </trkpt>
      <trkpt lat="51.645287" lon="0.78956">
        <ele>35.106169</ele>
        <time>2021-05-23T12:28:48.000Z</time>
      </trkpt>
      <trkpt lat="51.645209" lon="0.789672">
        <ele>35.040444</ele>
        <time>2021-05-23T12:28:49.000Z</time>
      </trkpt>
      <trkpt lat="51.644146" lon="0.79354">
        <ele>33.007267</ele>
        <time>2021-05-23T12:29:18.000Z</time>
      </trkpt>
      <trkpt lat="51.644096" lon="0.793794">
        <ele>32.848739</ele>
        <time>2021-05-23T12:29:20.000Z</time>
      </trkpt>
      <trkpt lat="51.643822" lon="0.794666">
        <ele>32.257971</ele>
        <time>2021-05-23T12:29:27.000Z</time>
      </trkpt>
      <trkpt lat="51.643533" lon="0.795707">
        <ele>31.282944</ele>
        <time>2021-05-23T12:29:35.000Z</time>
      </trkpt>
      <trkpt lat="51.643403" lon="0.796145">
        <ele>30.849514</ele>
        <time>2021-05-23T12:29:38.000Z</time>
      </trkpt>
      <trkpt lat="51.643271" lon="0.79638">
        <ele>30.582525</ele>
        <time>2021-05-23T12:29:40.000Z</time>
      </trkpt>
      <trkpt lat="51.643196" lon="0.796506">
        <ele>30.423434</ele>
        <time>2021-05-23T12:29:41.000Z</time>
      </trkpt>
      <trkpt lat="51.643061" lon="0.79661">
        <ele>30.231143</ele>
        <time>2021-05-23T12:29:43.000Z</time>
      </trkpt>
      <trkpt lat="51.64238" lon="0.796942">
        <ele>29.26173</ele>
        <time>2021-05-23T12:29:51.000Z</time>
      </trkpt>
      <trkpt lat="51.641596" lon="0.797569">
        <ele>28.114943</ele>
        <time>2021-05-23T12:30:01.000Z</time>
      </trkpt>
      <trkpt lat="51.641199" lon="0.797903">
        <ele>27.546324</ele>
        <time>2021-05-23T12:30:06.000Z</time>
      </trkpt>
      <trkpt lat="51.640607" lon="0.798602">
        <ele>26.484875</ele>
        <time>2021-05-23T12:30:14.000Z</time>
      </trkpt>
      <trkpt lat="51.64017" lon="0.799093">
        <ele>25.706414</ele>
        <time>2021-05-23T12:30:20.000Z</time>
      </trkpt>
      <trkpt lat="51.640093" lon="0.79919">
        <ele>25.548823</ele>
        <time>2021-05-23T12:30:21.000Z</time>
      </trkpt>
      <trkpt lat="51.639708" lon="0.799702">
        <ele>24.824966</ele>
        <time>2021-05-23T12:30:27.000Z</time>
      </trkpt>
      <trkpt lat="51.639337" lon="0.800229">
        <ele>24.207314</ele>
        <time>2021-05-23T12:30:32.000Z</time>
      </trkpt>
      <trkpt lat="51.639067" lon="0.8007">
        <ele>23.740717</ele>
        <time>2021-05-23T12:30:36.000Z</time>
      </trkpt>
      <trkpt lat="51.63885" lon="0.801117">
        <ele>23.319073</ele>
        <time>2021-05-23T12:30:40.000Z</time>
      </trkpt>
      <trkpt lat="51.63858" lon="0.801751">
        <ele>22.754324</ele>
        <time>2021-05-23T12:30:45.000Z</time>
      </trkpt>
      <trkpt lat="51.638357" lon="0.802337">
        <ele>22.327569</ele>
        <time>2021-05-23T12:30:50.000Z</time>
      </trkpt>
      <trkpt lat="51.638304" lon="0.80244">
        <ele>22.248887</ele>
        <time>2021-05-23T12:30:51.000Z</time>
      </trkpt>
      <trkpt lat="51.638195" lon="0.802762">
        <ele>22.049328</ele>
        <time>2021-05-23T12:30:54.000Z</time>
      </trkpt>
      <trkpt lat="51.638111" lon="0.803067">
        <ele>21.864271</ele>
        <time>2021-05-23T12:30:56.000Z</time>
      </trkpt>
      <trkpt lat="51.638071" lon="0.803235">
        <ele>21.759305</ele>
        <time>2021-05-23T12:30:57.000Z</time>
      </trkpt>
      <trkpt lat="51.637812" lon="0.804118">
        <ele>21.219841</ele>
        <time>2021-05-23T12:31:04.000Z</time>
      </trkpt>
      <trkpt lat="51.637451" lon="0.805515">
        <ele>20.271779</ele>
        <time>2021-05-23T12:31:14.000Z</time>
      </trkpt>
      <trkpt lat="51.636947" lon="0.807352">
        <ele>18.940507</ele>
        <time>2021-05-23T12:31:28.000Z</time>
      </trkpt>
      <trkpt lat="51.636875" lon="0.807642">
        <ele>18.783621</ele>
        <time>2021-05-23T12:31:30.000Z</time>
      </trkpt>
      <trkpt lat="51.63658" lon="0.808946">
        <ele>18.087073</ele>
        <time>2021-05-23T12:31:40.000Z</time>
      </trkpt>
      <trkpt lat="51.636508" lon="0.809618">
        <ele>17.749973</ele>
        <time>2021-05-23T12:31:45.000Z</time>
      </trkpt>
      <trkpt lat="51.636487" lon="0.80968">
        <ele>17.710256</ele>
        <time>2021-05-23T12:31:45.000Z</time>
      </trkpt>
      <trkpt lat="51.636322" lon="0.811039">
        <ele>17.363998</ele>
        <time>2021-05-23T12:31:55.000Z</time>
      </trkpt>
      <trkpt lat="51.636282" lon="0.811308">
        <ele>17.316784</ele>
        <time>2021-05-23T12:31:57.000Z</time>
      </trkpt>
      <trkpt lat="51.636227" lon="0.811734">
        <ele>17.239008</ele>
        <time>2021-05-23T12:32:00.000Z</time>
      </trkpt>
      <trkpt lat="51.63609" lon="0.812571">
        <ele>17.082508</ele>
        <time>2021-05-23T12:32:06.000Z</time>
      </trkpt>
      <trkpt lat="51.635858" lon="0.814146">
        <ele>16.87471</ele>
        <time>2021-05-23T12:32:17.000Z</time>
      </trkpt>
      <trkpt lat="51.63589" lon="0.814219">
        <ele>16.864597</ele>
        <time>2021-05-23T12:32:18.000Z</time>
      </trkpt>
      <trkpt lat="51.635945" lon="0.814335">
        <ele>16.847262</ele>
        <time>2021-05-23T12:32:19.000Z</time>
      </trkpt>
      <trkpt lat="51.635985" lon="0.814407">
        <ele>16.835751</ele>
        <time>2021-05-23T12:32:20.000Z</time>
      </trkpt>
      <trkpt lat="51.635983" lon="0.814432">
        <ele>16.832183</ele>
        <time>2021-05-23T12:32:20.000Z</time>
      </trkpt>
      <trkpt lat="51.636005" lon="0.814463">
        <ele>16.827877</ele>
        <time>2021-05-23T12:32:20.000Z</time>
      </trkpt>
      <trkpt lat="51.636038" lon="0.814504">
        <ele>16.820766</ele>
        <time>2021-05-23T12:32:20.000Z</time>
      </trkpt>
      <trkpt lat="51.636347" lon="0.814543">
        <ele>16.760403</ele>
        <time>2021-05-23T12:32:23.000Z</time>
      </trkpt>
      <trkpt lat="51.636462" lon="0.814569">
        <ele>16.736558</ele>
        <time>2021-05-23T12:32:24.000Z</time>
      </trkpt>
      <trkpt lat="51.63663" lon="0.814582">
        <ele>16.70459</ele>
        <time>2021-05-23T12:32:26.000Z</time>
      </trkpt>
      <trkpt lat="51.636752" lon="0.814583">
        <ele>16.660046</ele>
        <time>2021-05-23T12:32:27.000Z</time>
      </trkpt>
      <trkpt lat="51.636967" lon="0.814606">
        <ele>16.513282</ele>
        <time>2021-05-23T12:32:29.000Z</time>
      </trkpt>
      <trkpt lat="51.637052" lon="0.814592">
        <ele>16.455179</ele>
        <time>2021-05-23T12:32:30.000Z</time>
      </trkpt>
      <trkpt lat="51.637067" lon="0.814586">
        <ele>16.446049</ele>
        <time>2021-05-23T12:32:30.000Z</time>
      </trkpt>
      <trkpt lat="51.637147" lon="0.814564">
        <ele>16.399479</ele>
        <time>2021-05-23T12:32:31.000Z</time>
      </trkpt>
      <trkpt lat="51.637207" lon="0.814531">
        <ele>16.350915</ele>
        <time>2021-05-23T12:32:32.000Z</time>
      </trkpt>
      <trkpt lat="51.637231" lon="0.814514">
        <ele>16.340934</ele>
        <time>2021-05-23T12:32:32.000Z</time>
      </trkpt>
      <trkpt lat="51.637314" lon="0.814434">
        <ele>16.272547</ele>
        <time>2021-05-23T12:32:33.000Z</time>
      </trkpt>
      <trkpt lat="51.637323" lon="0.814419">
        <ele>16.272545</ele>
        <time>2021-05-23T12:32:33.000Z</time>
      </trkpt>
      <trkpt lat="51.637635" lon="0.813899">
        <ele>15.970256</ele>
        <time>2021-05-23T12:32:38.000Z</time>
      </trkpt>
      <trkpt lat="51.637913" lon="0.813544">
        <ele>15.741028</ele>
        <time>2021-05-23T12:32:42.000Z</time>
      </trkpt>
      <trkpt lat="51.638128" lon="0.813342">
        <ele>15.581439</ele>
        <time>2021-05-23T12:32:45.000Z</time>
      </trkpt>
      <trkpt lat="51.638612" lon="0.813016">
        <ele>15.499816</ele>
        <time>2021-05-23T12:32:51.000Z</time>
      </trkpt>
      <trkpt lat="51.638793" lon="0.812973">
        <ele>15.491723</ele>
        <time>2021-05-23T12:32:53.000Z</time>
      </trkpt>
      <trkpt lat="51.63922" lon="0.812904">
        <ele>15.471833</ele>
        <time>2021-05-23T12:32:58.000Z</time>
      </trkpt>
      <trkpt lat="51.639711" lon="0.812849">
        <ele>15.449385</ele>
        <time>2021-05-23T12:33:03.000Z</time>
      </trkpt>
      <trkpt lat="51.639838" lon="0.812836">
        <ele>15.444221</ele>
        <time>2021-05-23T12:33:04.000Z</time>
      </trkpt>
      <trkpt lat="51.641039" lon="0.812728">
        <ele>17.045161</ele>
        <time>2021-05-23T12:33:17.000Z</time>
      </trkpt>
      <trkpt lat="51.641168" lon="0.812726">
        <ele>17.219053</ele>
        <time>2021-05-23T12:33:18.000Z</time>
      </trkpt>
      <trkpt lat="51.641256" lon="0.81275">
        <ele>17.365913</ele>
        <time>2021-05-23T12:33:19.000Z</time>
      </trkpt>
      <trkpt lat="51.641339" lon="0.812799">
        <ele>17.493751</ele>
        <time>2021-05-23T12:33:20.000Z</time>
      </trkpt>
      <trkpt lat="51.641402" lon="0.812865">
        <ele>17.60528</ele>
        <time>2021-05-23T12:33:21.000Z</time>
      </trkpt>
      <trkpt lat="51.641481" lon="0.812939">
        <ele>17.743107</ele>
        <time>2021-05-23T12:33:22.000Z</time>
      </trkpt>
      <trkpt lat="51.641695" lon="0.813">
        <ele>18.065689</ele>
        <time>2021-05-23T12:33:24.000Z</time>
      </trkpt>
      <trkpt lat="51.642437" lon="0.813061">
        <ele>19.143867</ele>
        <time>2021-05-23T12:33:32.000Z</time>
      </trkpt>
      <trkpt lat="51.642815" lon="0.813113">
        <ele>19.715695</ele>
        <time>2021-05-23T12:33:36.000Z</time>
      </trkpt>
      <trkpt lat="51.643257" lon="0.813214">
        <ele>20.371048</ele>
        <time>2021-05-23T12:33:41.000Z</time>
      </trkpt>
      <trkpt lat="51.643475" lon="0.813254">
        <ele>20.688268</ele>
        <time>2021-05-23T12:33:43.000Z</time>
      </trkpt>
      <trkpt lat="51.644283" lon="0.813588">
        <ele>21.561841</ele>
        <time>2021-05-23T12:33:52.000Z</time>
      </trkpt>
      <trkpt lat="51.644337" lon="0.813601">
        <ele>21.6169</ele>
        <time>2021-05-23T12:33:53.000Z</time>
      </trkpt>
      <trkpt lat="51.644841" lon="0.813704">
        <ele>22.12409</ele>
        <time>2021-05-23T12:33:59.000Z</time>
      </trkpt>
      <trkpt lat="51.644909" lon="0.813707">
        <ele>22.19281</ele>
        <time>2021-05-23T12:34:00.000Z</time>
      </trkpt>
      <trkpt lat="51.645339" lon="0.813739">
        <ele>22.615983</ele>
        <time>2021-05-23T12:34:05.000Z</time>
      </trkpt>
      <trkpt lat="51.645597" lon="0.813599">
        <ele>22.766442</ele>
        <time>2021-05-23T12:34:08.000Z</time>
      </trkpt>
      <trkpt lat="51.645872" lon="0.81326">
        <ele>22.956125</ele>
        <time>2021-05-23T12:34:12.000Z</time>
      </trkpt>
      <trkpt lat="51.645985" lon="0.813216">
        <ele>23.014019</ele>
        <time>2021-05-23T12:34:13.000Z</time>
      </trkpt>
      <trkpt lat="51.647295" lon="0.813115">
        <ele>23.500056</ele>
        <time>2021-05-23T12:34:28.000Z</time>
      </trkpt>
      <trkpt lat="51.647636" lon="0.813149">
        <ele>23.417815</ele>
        <time>2021-05-23T12:34:32.000Z</time>
      </trkpt>
      <trkpt lat="51.648128" lon="0.813265">
        <ele>23.294303</ele>
        <time>2021-05-23T12:34:38.000Z</time>
      </trkpt>
      <trkpt lat="51.648446" lon="0.813338">
        <ele>23.218986</ele>
        <time>2021-05-23T12:34:42.000Z</time>
      </trkpt>
      <trkpt lat="51.64902" lon="0.813738">
        <ele>23.045137</ele>
        <time>2021-05-23T12:34:49.000Z</time>
      </trkpt>
      <trkpt lat="51.649295" lon="0.814009">
        <ele>22.939329</ele>
        <time>2021-05-23T12:34:53.000Z</time>
      </trkpt>
      <trkpt lat="51.649501" lon="0.81424">
        <ele>22.864563</ele>
        <time>2021-05-23T12:34:56.000Z</time>
      </trkpt>
      <trkpt lat="51.652139" lon="0.815208">
        <ele>22.428174</ele>
        <time>2021-05-23T12:35:26.000Z</time>
      </trkpt>
      <trkpt lat="51.652467" lon="0.81533">
        <ele>22.628072</ele>
        <time>2021-05-23T12:35:30.000Z</time>
      </trkpt>
      <trkpt lat="51.652745" lon="0.815415">
        <ele>22.815222</ele>
        <time>2021-05-23T12:35:33.000Z</time>
      </trkpt>
      <trkpt lat="51.652992" lon="0.815503">
        <ele>22.973206</ele>
        <time>2021-05-23T12:35:36.000Z</time>
      </trkpt>
      <trkpt lat="51.653103" lon="0.815584">
        <ele>23.063629</ele>
        <time>2021-05-23T12:35:37.000Z</time>
      </trkpt>
      <trkpt lat="51.653213" lon="0.815591">
        <ele>23.135249</ele>
        <time>2021-05-23T12:35:38.000Z</time>
      </trkpt>
      <trkpt lat="51.65333" lon="0.815598">
        <ele>23.214178</ele>
        <time>2021-05-23T12:35:39.000Z</time>
      </trkpt>
      <trkpt lat="51.653409" lon="0.81547">
        <ele>23.284037</ele>
        <time>2021-05-23T12:35:40.000Z</time>
      </trkpt>
      <trkpt lat="51.653848" lon="0.813935">
        <ele>24.51649</ele>
        <time>2021-05-23T12:35:52.000Z</time>
      </trkpt>
      <trkpt lat="51.654113" lon="0.811072">
        <ele>27.664543</ele>
        <time>2021-05-23T12:36:12.000Z</time>
      </trkpt>
      <trkpt lat="51.654275" lon="0.809607">
        <ele>29.495654</ele>
        <time>2021-05-23T12:36:22.000Z</time>
      </trkpt>
      <trkpt lat="51.654391" lon="0.80892">
        <ele>30.352959</ele>
        <time>2021-05-23T12:36:27.000Z</time>
      </trkpt>
      <trkpt lat="51.654571" lon="0.808269">
        <ele>31.095439</ele>
        <time>2021-05-23T12:36:32.000Z</time>
      </trkpt>
      <trkpt lat="51.654813" lon="0.806803">
        <ele>32.684044</ele>
        <time>2021-05-23T12:36:42.000Z</time>
      </trkpt>
      <trkpt lat="51.65482" lon="0.806699">
        <ele>32.801267</ele>
        <time>2021-05-23T12:36:43.000Z</time>
      </trkpt>
      <trkpt lat="51.655411" lon="0.805459">
        <ele>33.833055</ele>
        <time>2021-05-23T12:36:54.000Z</time>
      </trkpt>
      <trkpt lat="51.656223" lon="0.804292">
        <ele>34.763554</ele>
        <time>2021-05-23T12:37:06.000Z</time>
      </trkpt>
      <trkpt lat="51.656473" lon="0.803617">
        <ele>34.810224</ele>
        <time>2021-05-23T12:37:11.000Z</time>
      </trkpt>
      <trkpt lat="51.656715" lon="0.801327">
        <ele>34.975972</ele>
        <time>2021-05-23T12:37:27.000Z</time>
      </trkpt>
      <trkpt lat="51.656759" lon="0.799872">
        <ele>35.209775</ele>
        <time>2021-05-23T12:37:37.000Z</time>
      </trkpt>
      <trkpt lat="51.656727" lon="0.798456">
        <ele>35.511084</ele>
        <time>2021-05-23T12:37:47.000Z</time>
      </trkpt>
      <trkpt lat="51.657033" lon="0.795602">
        <ele>36.936397</ele>
        <time>2021-05-23T12:38:07.000Z</time>
      </trkpt>
      <trkpt lat="51.657053" lon="0.795543">
        <ele>36.97341</ele>
        <time>2021-05-23T12:38:07.000Z</time>
      </trkpt>
      <trkpt lat="51.65705" lon="0.795538">
        <ele>36.973416</ele>
        <time>2021-05-23T12:38:07.000Z</time>
      </trkpt>
      <trkpt lat="51.657081" lon="0.794793">
        <ele>37.343055</ele>
        <time>2021-05-23T12:38:12.000Z</time>
      </trkpt>
      <trkpt lat="51.657043" lon="0.794049">
        <ele>37.710525</ele>
        <time>2021-05-23T12:38:17.000Z</time>
      </trkpt>
      <trkpt lat="51.656561" lon="0.79236">
        <ele>38.392109</ele>
        <time>2021-05-23T12:38:30.000Z</time>
      </trkpt>
      <trkpt lat="51.656492" lon="0.792123">
        <ele>38.435412</ele>
        <time>2021-05-23T12:38:32.000Z</time>
      </trkpt>
      <trkpt lat="51.656049" lon="0.790616">
        <ele>38.713617</ele>
        <time>2021-05-23T12:38:44.000Z</time>
      </trkpt>
      <trkpt lat="51.655982" lon="0.78709">
        <ele>38.58689</ele>
        <time>2021-05-23T12:39:08.000Z</time>
      </trkpt>
      <trkpt lat="51.655913" lon="0.786101">
        <ele>38.51873</ele>
        <time>2021-05-23T12:39:15.000Z</time>
      </trkpt>
      <trkpt lat="51.655797" lon="0.784661">
        <ele>38.420037</ele>
        <time>2021-05-23T12:39:25.000Z</time>
      </trkpt>
      <trkpt lat="51.655738" lon="0.784086">
        <ele>38.35148</ele>
        <time>2021-05-23T12:39:29.000Z</time>
      </trkpt>
      <trkpt lat="51.655784" lon="0.783583">
        <ele>38.285271</ele>
        <time>2021-05-23T12:39:33.000Z</time>
      </trkpt>
      <trkpt lat="51.655879" lon="0.783197">
        <ele>38.234859</ele>
        <time>2021-05-23T12:39:36.000Z</time>
      </trkpt>
      <trkpt lat="51.655949" lon="0.782929">
        <ele>38.197938</ele>
        <time>2021-05-23T12:39:38.000Z</time>
      </trkpt>
      <trkpt lat="51.656422" lon="0.783149">
        <ele>38.096215</ele>
        <time>2021-05-23T12:39:43.000Z</time>
      </trkpt>
      <trkpt lat="51.656955" lon="0.783261">
        <ele>37.985455</ele>
        <time>2021-05-23T12:39:49.000Z</time>
      </trkpt>
      <trkpt lat="51.65759" lon="0.782924">
        <ele>37.840569</ele>
        <time>2021-05-23T12:39:56.000Z</time>
      </trkpt>
      <trkpt lat="51.658044" lon="0.782805">
        <ele>37.740177</ele>
        <time>2021-05-23T12:40:01.000Z</time>
      </trkpt>
      <trkpt lat="51.658804" lon="0.782759">
        <ele>37.801521</ele>
        <time>2021-05-23T12:40:09.000Z</time>
      </trkpt>
      <trkpt lat="51.660109" lon="0.782688">
        <ele>38.263708</ele>
        <time>2021-05-23T12:40:24.000Z</time>
      </trkpt>
      <trkpt lat="51.662005" lon="0.782559">
        <ele>39.930826</ele>
        <time>2021-05-23T12:40:45.000Z</time>
      </trkpt>
      <trkpt lat="51.662" lon="0.782383">
        <ele>40.05143</ele>
        <time>2021-05-23T12:40:46.000Z</time>
      </trkpt>
      <trkpt lat="51.662182" lon="0.78221">
        <ele>40.285557</ele>
        <time>2021-05-23T12:40:48.000Z</time>
      </trkpt>
      <trkpt lat="51.662396" lon="0.782158">
        <ele>40.510558</ele>
        <time>2021-05-23T12:40:50.000Z</time>
      </trkpt>
      <trkpt lat="51.663075" lon="0.782231">
        <ele>41.267764</ele>
        <time>2021-05-23T12:40:58.000Z</time>
      </trkpt>
      <trkpt lat="51.663664" lon="0.782278">
        <ele>41.890963</ele>
        <time>2021-05-23T12:41:05.000Z</time>
      </trkpt>
      <trkpt lat="51.663897" lon="0.782294">
        <ele>42.093463</ele>
        <time>2021-05-23T12:41:08.000Z</time>
      </trkpt>
      <trkpt lat="51.665082" lon="0.782338">
        <ele>43.064844</ele>
        <time>2021-05-23T12:41:21.000Z</time>
      </trkpt>
      <trkpt lat="51.667008" lon="0.782179">
        <ele>44.121372</ele>
        <time>2021-05-23T12:41:42.000Z</time>
      </trkpt>
      <trkpt lat="51.667151" lon="0.782216">
        <ele>44.189909</ele>
        <time>2021-05-23T12:41:44.000Z</time>
      </trkpt>
      <trkpt lat="51.667195" lon="0.782229">
        <ele>44.217989</ele>
        <time>2021-05-23T12:41:44.000Z</time>
      </trkpt>
      <trkpt lat="51.667852" lon="0.782204">
        <ele>44.065609</ele>
        <time>2021-05-23T12:41:51.000Z</time>
      </trkpt>
      <trkpt lat="51.667927" lon="0.782205">
        <ele>44.045239</ele>
        <time>2021-05-23T12:41:52.000Z</time>
      </trkpt>
      <trkpt lat="51.668113" lon="0.782181">
        <ele>43.987443</ele>
        <time>2021-05-23T12:41:54.000Z</time>
      </trkpt>
      <trkpt lat="51.668682" lon="0.782076">
        <ele>43.815453</ele>
        <time>2021-05-23T12:42:00.000Z</time>
      </trkpt>
      <trkpt lat="51.668794" lon="0.782057">
        <ele>43.782143</ele>
        <time>2021-05-23T12:42:01.000Z</time>
      </trkpt>
      <trkpt lat="51.66934" lon="0.781959">
        <ele>42.793753</ele>
        <time>2021-05-23T12:42:07.000Z</time>
      </trkpt>
      <trkpt lat="51.669721" lon="0.781941">
        <ele>41.583087</ele>
        <time>2021-05-23T12:42:11.000Z</time>
      </trkpt>
      <trkpt lat="51.670034" lon="0.781895">
        <ele>40.607003</ele>
        <time>2021-05-23T12:42:14.000Z</time>
      </trkpt>
      <trkpt lat="51.670531" lon="0.781835">
        <ele>39.090654</ele>
        <time>2021-05-23T12:42:20.000Z</time>
      </trkpt>
      <trkpt lat="51.672273" lon="0.781741">
        <ele>31.539519</ele>
        <time>2021-05-23T12:42:39.000Z</time>
      </trkpt>
      <trkpt lat="51.673711" lon="0.781502">
        <ele>27.487048</ele>
        <time>2021-05-23T12:42:55.000Z</time>
      </trkpt>
      <trkpt lat="51.673956" lon="0.781389">
        <ele>26.942152</ele>
        <time>2021-05-23T12:42:58.000Z</time>
      </trkpt>
      <trkpt lat="51.674054" lon="0.781866">
        <ele>26.245949</ele>
        <time>2021-05-23T12:43:01.000Z</time>
      </trkpt>
      <trkpt lat="51.67416" lon="0.78276">
        <ele>26.829299</ele>
        <time>2021-05-23T12:43:07.000Z</time>
      </trkpt>
      <trkpt lat="51.674155" lon="0.783412">
        <ele>27.726225</ele>
        <time>2021-05-23T12:43:11.000Z</time>
      </trkpt>
      <trkpt lat="51.673491" lon="0.787207">
        <ele>33.852575</ele>
        <time>2021-05-23T12:43:38.000Z</time>
      </trkpt>
      <trkpt lat="51.673442" lon="0.787798">
        <ele>34.779311</ele>
        <time>2021-05-23T12:43:42.000Z</time>
      </trkpt>
      <trkpt lat="51.673438" lon="0.787837">
        <ele>34.80048</ele>
        <time>2021-05-23T12:43:42.000Z</time>
      </trkpt>
      <trkpt lat="51.673469" lon="0.788595">
        <ele>35.112312</ele>
        <time>2021-05-23T12:43:47.000Z</time>
      </trkpt>
      <trkpt lat="51.673502" lon="0.789108">
        <ele>35.318673</ele>
        <time>2021-05-23T12:43:51.000Z</time>
      </trkpt>
      <trkpt lat="51.673519" lon="0.789455">
        <ele>35.465875</ele>
        <time>2021-05-23T12:43:53.000Z</time>
      </trkpt>
      <trkpt lat="51.673519" lon="0.78972">
        <ele>35.569103</ele>
        <time>2021-05-23T12:43:55.000Z</time>
      </trkpt>
      <trkpt lat="51.673625" lon="0.790662">
        <ele>35.963027</ele>
        <time>2021-05-23T12:44:02.000Z</time>
      </trkpt>
      <trkpt lat="51.674071" lon="0.793027">
        <ele>36.893287</ele>
        <time>2021-05-23T12:44:19.000Z</time>
      </trkpt>
      <trkpt lat="51.674328" lon="0.794432">
        <ele>37.079287</ele>
        <time>2021-05-23T12:44:29.000Z</time>
      </trkpt>
      <trkpt lat="51.674667" lon="0.798595">
        <ele>36.258723</ele>
        <time>2021-05-23T12:44:58.000Z</time>
      </trkpt>
      <trkpt lat="51.674732" lon="0.800218">
        <ele>34.905545</ele>
        <time>2021-05-23T12:45:09.000Z</time>
      </trkpt>
      <trkpt lat="51.674741" lon="0.801741">
        <ele>33.321636</ele>
        <time>2021-05-23T12:45:20.000Z</time>
      </trkpt>
      <trkpt lat="51.67474" lon="0.801767">
        <ele>33.283853</ele>
        <time>2021-05-23T12:45:20.000Z</time>
      </trkpt>
      <trkpt lat="51.674753" lon="0.802291">
        <ele>32.801927</ele>
        <time>2021-05-23T12:45:24.000Z</time>
      </trkpt>
      <trkpt lat="51.674768" lon="0.802457">
        <ele>32.667551</ele>
        <time>2021-05-23T12:45:25.000Z</time>
      </trkpt>
      <trkpt lat="51.674847" lon="0.804589">
        <ele>30.991612</ele>
        <time>2021-05-23T12:45:40.000Z</time>
      </trkpt>
      <trkpt lat="51.674996" lon="0.808554">
        <ele>29.683514</ele>
        <time>2021-05-23T12:46:07.000Z</time>
      </trkpt>
      <trkpt lat="51.675026" lon="0.80921">
        <ele>29.507965</ele>
        <time>2021-05-23T12:46:12.000Z</time>
      </trkpt>
      <trkpt lat="51.675033" lon="0.809515">
        <ele>29.425837</ele>
        <time>2021-05-23T12:46:14.000Z</time>
      </trkpt>
      <trkpt lat="51.675046" lon="0.809917">
        <ele>29.321096</ele>
        <time>2021-05-23T12:46:17.000Z</time>
      </trkpt>
      <trkpt lat="51.675081" lon="0.810594">
        <ele>29.136321</ele>
        <time>2021-05-23T12:46:22.000Z</time>
      </trkpt>
      <trkpt lat="51.675069" lon="0.810859">
        <ele>29.092907</ele>
        <time>2021-05-23T12:46:24.000Z</time>
      </trkpt>
      <trkpt lat="51.675103" lon="0.811588">
        <ele>29.026272</ele>
        <time>2021-05-23T12:46:29.000Z</time>
      </trkpt>
      <trkpt lat="51.675141" lon="0.812375">
        <ele>28.955465</ele>
        <time>2021-05-23T12:46:34.000Z</time>
      </trkpt>
      <trkpt lat="51.675063" lon="0.813344">
        <ele>28.868724</ele>
        <time>2021-05-23T12:46:41.000Z</time>
      </trkpt>
      <trkpt lat="51.675118" lon="0.814579">
        <ele>28.287831</ele>
        <time>2021-05-23T12:46:50.000Z</time>
      </trkpt>
      <trkpt lat="51.675132" lon="0.814816">
        <ele>28.160431</ele>
        <time>2021-05-23T12:46:52.000Z</time>
      </trkpt>
      <trkpt lat="51.675153" lon="0.815578">
        <ele>27.727235</ele>
        <time>2021-05-23T12:46:57.000Z</time>
      </trkpt>
      <trkpt lat="51.675175" lon="0.816318">
        <ele>27.304238</ele>
        <time>2021-05-23T12:47:02.000Z</time>
      </trkpt>
      <trkpt lat="51.675201" lon="0.817092">
        <ele>26.30129</ele>
        <time>2021-05-23T12:47:07.000Z</time>
      </trkpt>
      <trkpt lat="51.675327" lon="0.819278">
        <ele>23.000728</ele>
        <time>2021-05-23T12:47:22.000Z</time>
      </trkpt>
      <trkpt lat="51.675433" lon="0.822566">
        <ele>18.486612</ele>
        <time>2021-05-23T12:47:45.000Z</time>
      </trkpt>
      <trkpt lat="51.675667" lon="0.825715">
        <ele>15.368442</ele>
        <time>2021-05-23T12:48:07.000Z</time>
      </trkpt>
      <trkpt lat="51.675739" lon="0.829864">
        <ele>13.341703</ele>
        <time>2021-05-23T12:48:36.000Z</time>
      </trkpt>
      <trkpt lat="51.675753" lon="0.830436">
        <ele>13.175432</ele>
        <time>2021-05-23T12:48:40.000Z</time>
      </trkpt>
      <trkpt lat="51.675834" lon="0.834229">
        <ele>13.859106</ele>
        <time>2021-05-23T12:49:06.000Z</time>
      </trkpt>
      <trkpt lat="51.676" lon="0.838043">
        <ele>14.175216</ele>
        <time>2021-05-23T12:49:32.000Z</time>
      </trkpt>
      <trkpt lat="51.676073" lon="0.840251">
        <ele>13.469141</ele>
        <time>2021-05-23T12:49:47.000Z</time>
      </trkpt>
      <trkpt lat="51.676133" lon="0.84253">
        <ele>12.006369</ele>
        <time>2021-05-23T12:50:03.000Z</time>
      </trkpt>
      <trkpt lat="51.676093" lon="0.843928">
        <ele>12.518794</ele>
        <time>2021-05-23T12:50:13.000Z</time>
      </trkpt>
      <trkpt lat="51.676035" lon="0.844503">
        <ele>12.73666</ele>
        <time>2021-05-23T12:50:17.000Z</time>
      </trkpt>
      <trkpt lat="51.675895" lon="0.845362">
        <ele>13.078133</ele>
        <time>2021-05-23T12:50:23.000Z</time>
      </trkpt>
      <trkpt lat="51.675924" lon="0.845577">
        <ele>13.313147</ele>
        <time>2021-05-23T12:50:25.000Z</time>
      </trkpt>
      <trkpt lat="51.67587" lon="0.84708">
        <ele>15.237528</ele>
        <time>2021-05-23T12:50:35.000Z</time>
      </trkpt>
      <trkpt lat="51.675829" lon="0.847799">
        <ele>16.135323</ele>
        <time>2021-05-23T12:50:40.000Z</time>
      </trkpt>
      <trkpt lat="51.675817" lon="0.848271">
        <ele>16.738671</ele>
        <time>2021-05-23T12:50:43.000Z</time>
      </trkpt>
      <trkpt lat="51.675787" lon="0.848817">
        <ele>17.378006</ele>
        <time>2021-05-23T12:50:47.000Z</time>
      </trkpt>
      <trkpt lat="51.675774" lon="0.849391">
        <ele>18.058754</ele>
        <time>2021-05-23T12:50:51.000Z</time>
      </trkpt>
      <trkpt lat="51.675789" lon="0.84973">
        <ele>18.451636</ele>
        <time>2021-05-23T12:50:53.000Z</time>
      </trkpt>
      <trkpt lat="51.6759" lon="0.849873">
        <ele>18.722378</ele>
        <time>2021-05-23T12:50:55.000Z</time>
      </trkpt>
      <trkpt lat="51.676522" lon="0.849997">
        <ele>19.917057</ele>
        <time>2021-05-23T12:51:02.000Z</time>
      </trkpt>
      <trkpt lat="51.676663" lon="0.850091">
        <ele>20.198416</ele>
        <time>2021-05-23T12:51:04.000Z</time>
      </trkpt>
      <trkpt lat="51.676689" lon="0.85014">
        <ele>20.241826</ele>
        <time>2021-05-23T12:51:04.000Z</time>
      </trkpt>
      <trkpt lat="51.676754" lon="0.850246">
        <ele>20.378119</ele>
        <time>2021-05-23T12:51:05.000Z</time>
      </trkpt>
      <trkpt lat="51.676784" lon="0.851042">
        <ele>21.127516</ele>
        <time>2021-05-23T12:51:10.000Z</time>
      </trkpt>
      <trkpt lat="51.676704" lon="0.851879">
        <ele>21.897443</ele>
        <time>2021-05-23T12:51:16.000Z</time>
      </trkpt>
      <trkpt lat="51.676725" lon="0.851945">
        <ele>21.970842</ele>
        <time>2021-05-23T12:51:17.000Z</time>
      </trkpt>
      <trkpt lat="51.676737" lon="0.852035">
        <ele>22.047366</ele>
        <time>2021-05-23T12:51:18.000Z</time>
      </trkpt>
      <trkpt lat="51.676806" lon="0.852133">
        <ele>22.184334</ele>
        <time>2021-05-23T12:51:19.000Z</time>
      </trkpt>
      <trkpt lat="51.676856" lon="0.852168">
        <ele>22.275429</ele>
        <time>2021-05-23T12:51:20.000Z</time>
      </trkpt>
      <trkpt lat="51.676986" lon="0.852192">
        <ele>22.468641</ele>
        <time>2021-05-23T12:51:21.000Z</time>
      </trkpt>
      <trkpt lat="51.677918" lon="0.852103">
        <ele>23.125732</ele>
        <time>2021-05-23T12:51:31.000Z</time>
      </trkpt>
      <trkpt lat="51.678124" lon="0.852138">
        <ele>23.208848</ele>
        <time>2021-05-23T12:51:33.000Z</time>
      </trkpt>
      <trkpt lat="51.678186" lon="0.852225">
        <ele>23.244538</ele>
        <time>2021-05-23T12:51:34.000Z</time>
      </trkpt>
      <trkpt lat="51.678246" lon="0.852313">
        <ele>23.272929</ele>
        <time>2021-05-23T12:51:35.000Z</time>
      </trkpt>
      <trkpt lat="51.678281" lon="0.852566">
        <ele>23.338007</ele>
        <time>2021-05-23T12:51:37.000Z</time>
      </trkpt>
      <trkpt lat="51.678442" lon="0.853941">
        <ele>23.50312</ele>
        <time>2021-05-23T12:51:47.000Z</time>
      </trkpt>
      <trkpt lat="51.678616" lon="0.855282">
        <ele>23.275118</ele>
        <time>2021-05-23T12:51:56.000Z</time>
      </trkpt>
      <trkpt lat="51.678717" lon="0.855443">
        <ele>23.23581</ele>
        <time>2021-05-23T12:51:58.000Z</time>
      </trkpt>
      <trkpt lat="51.67884" lon="0.855475">
        <ele>23.201001</ele>
        <time>2021-05-23T12:51:59.000Z</time>
      </trkpt>
      <trkpt lat="51.680032" lon="0.855075">
        <ele>23.164337</ele>
        <time>2021-05-23T12:52:13.000Z</time>
      </trkpt>
      <trkpt lat="51.680578" lon="0.855009">
        <ele>23.214666</ele>
        <time>2021-05-23T12:52:19.000Z</time>
      </trkpt>
      <trkpt lat="51.681161" lon="0.855116">
        <ele>23.295041</ele>
        <time>2021-05-23T12:52:26.000Z</time>
      </trkpt>
      <trkpt lat="51.681596" lon="0.855049">
        <ele>23.419253</ele>
        <time>2021-05-23T12:52:31.000Z</time>
      </trkpt>
      <trkpt lat="51.68166" lon="0.85501">
        <ele>23.436527</ele>
        <time>2021-05-23T12:52:32.000Z</time>
      </trkpt>
      <trkpt lat="51.682235" lon="0.85464">
        <ele>23.608441</ele>
        <time>2021-05-23T12:52:39.000Z</time>
      </trkpt>
      <trkpt lat="51.682425" lon="0.854494">
        <ele>23.671515</ele>
        <time>2021-05-23T12:52:41.000Z</time>
      </trkpt>
      <trkpt lat="51.682701" lon="0.854288">
        <ele>23.75487</ele>
        <time>2021-05-23T12:52:44.000Z</time>
      </trkpt>
      <trkpt lat="51.684116" lon="0.853928">
        <ele>24.016626</ele>
        <time>2021-05-23T12:53:00.000Z</time>
      </trkpt>
      <trkpt lat="51.685111" lon="0.853879">
        <ele>24.241362</ele>
        <time>2021-05-23T12:53:11.000Z</time>
      </trkpt>
      <trkpt lat="51.685934" lon="0.854022">
        <ele>24.456494</ele>
        <time>2021-05-23T12:53:20.000Z</time>
      </trkpt>
      <trkpt lat="51.687017" lon="0.853884">
        <ele>24.488467</ele>
        <time>2021-05-23T12:53:32.000Z</time>
      </trkpt>
      <trkpt lat="51.688112" lon="0.854022">
        <ele>24.380029</ele>
        <time>2021-05-23T12:53:44.000Z</time>
      </trkpt>
      <trkpt lat="51.688278" lon="0.854084">
        <ele>24.247345</ele>
        <time>2021-05-23T12:53:46.000Z</time>
      </trkpt>
      <trkpt lat="51.68836" lon="0.8542">
        <ele>24.171993</ele>
        <time>2021-05-23T12:53:47.000Z</time>
      </trkpt>
      <trkpt lat="51.688386" lon="0.854283">
        <ele>24.122265</ele>
        <time>2021-05-23T12:53:48.000Z</time>
      </trkpt>
      <trkpt lat="51.688878" lon="0.857234">
        <ele>22.588282</ele>
        <time>2021-05-23T12:54:09.000Z</time>
      </trkpt>
      <trkpt lat="51.688902" lon="0.857411">
        <ele>22.476694</ele>
        <time>2021-05-23T12:54:10.000Z</time>
      </trkpt>
      <trkpt lat="51.689535" lon="0.863739">
        <ele>18.865673</ele>
        <time>2021-05-23T12:54:54.000Z</time>
      </trkpt>
      <trkpt lat="51.6897" lon="0.866142">
        <ele>18.571647</ele>
        <time>2021-05-23T12:55:11.000Z</time>
      </trkpt>
      <trkpt lat="51.689702" lon="0.866251">
        <ele>18.590936</ele>
        <time>2021-05-23T12:55:12.000Z</time>
      </trkpt>
      <trkpt lat="51.689727" lon="0.866685">
        <ele>18.659624</ele>
        <time>2021-05-23T12:55:15.000Z</time>
      </trkpt>
      <trkpt lat="51.689753" lon="0.866895">
        <ele>18.694946</ele>
        <time>2021-05-23T12:55:16.000Z</time>
      </trkpt>
      <trkpt lat="51.689933" lon="0.869666">
        <ele>19.262199</ele>
        <time>2021-05-23T12:55:35.000Z</time>
      </trkpt>
      <trkpt lat="51.690265" lon="0.873119">
        <ele>20.059813</ele>
        <time>2021-05-23T12:55:59.000Z</time>
      </trkpt>
      <trkpt lat="51.690284" lon="0.873262">
        <ele>20.092128</ele>
        <time>2021-05-23T12:56:00.000Z</time>
      </trkpt>
      <trkpt lat="51.690439" lon="0.874904">
        <ele>20.641206</ele>
        <time>2021-05-23T12:56:11.000Z</time>
      </trkpt>
      <trkpt lat="51.690565" lon="0.876507">
        <ele>21.233051</ele>
        <time>2021-05-23T12:56:22.000Z</time>
      </trkpt>
      <trkpt lat="51.690597" lon="0.876849">
        <ele>21.372994</ele>
        <time>2021-05-23T12:56:24.000Z</time>
      </trkpt>
      <trkpt lat="51.690784" lon="0.878825">
        <ele>22.208963</ele>
        <time>2021-05-23T12:56:38.000Z</time>
      </trkpt>
      <trkpt lat="51.690953" lon="0.881136">
        <ele>22.764846</ele>
        <time>2021-05-23T12:56:54.000Z</time>
      </trkpt>
      <trkpt lat="51.691128" lon="0.882956">
        <ele>22.940841</ele>
        <time>2021-05-23T12:57:07.000Z</time>
      </trkpt>
      <trkpt lat="51.691172" lon="0.88308">
        <ele>22.933327</ele>
        <time>2021-05-23T12:57:08.000Z</time>
      </trkpt>
      <trkpt lat="51.691248" lon="0.883092">
        <ele>22.926568</ele>
        <time>2021-05-23T12:57:09.000Z</time>
      </trkpt>
      <trkpt lat="51.691624" lon="0.882984">
        <ele>22.8932</ele>
        <time>2021-05-23T12:57:13.000Z</time>
      </trkpt>
      <trkpt lat="51.691898" lon="0.8829">
        <ele>22.867498</ele>
        <time>2021-05-23T12:57:16.000Z</time>
      </trkpt>
      <trkpt lat="51.692066" lon="0.882852">
        <ele>22.851528</ele>
        <time>2021-05-23T12:57:18.000Z</time>
      </trkpt>
      <trkpt lat="51.692668" lon="0.882719">
        <ele>22.779177</ele>
        <time>2021-05-23T12:57:25.000Z</time>
      </trkpt>
      <trkpt lat="51.692998" lon="0.882663">
        <ele>22.709497</ele>
        <time>2021-05-23T12:57:29.000Z</time>
      </trkpt>
      <trkpt lat="51.693504" lon="0.882616">
        <ele>22.60765</ele>
        <time>2021-05-23T12:57:35.000Z</time>
      </trkpt>
      <trkpt lat="51.694262" lon="0.882568">
        <ele>22.453984</ele>
        <time>2021-05-23T12:57:43.000Z</time>
      </trkpt>
      <trkpt lat="51.694436" lon="0.882543">
        <ele>22.436533</ele>
        <time>2021-05-23T12:57:45.000Z</time>
      </trkpt>
      <trkpt lat="51.694745" lon="0.882521">
        <ele>22.409695</ele>
        <time>2021-05-23T12:57:48.000Z</time>
      </trkpt>
      <trkpt lat="51.694752" lon="0.882522">
        <ele>22.408043</ele>
        <time>2021-05-23T12:57:48.000Z</time>
      </trkpt>
      <trkpt lat="51.695081" lon="0.8825">
        <ele>22.380789</ele>
        <time>2021-05-23T12:57:52.000Z</time>
      </trkpt>
      <trkpt lat="51.695413" lon="0.882491">
        <ele>22.352237</ele>
        <time>2021-05-23T12:57:56.000Z</time>
      </trkpt>
      <trkpt lat="51.69583" lon="0.882528">
        <ele>22.315439</ele>
        <time>2021-05-23T12:58:01.000Z</time>
      </trkpt>
      <trkpt lat="51.696367" lon="0.882494">
        <ele>22.448664</ele>
        <time>2021-05-23T12:58:07.000Z</time>
      </trkpt>
      <trkpt lat="51.69658" lon="0.882483">
        <ele>22.561376</ele>
        <time>2021-05-23T12:58:09.000Z</time>
      </trkpt>
      <trkpt lat="51.696682" lon="0.882472">
        <ele>22.610476</ele>
        <time>2021-05-23T12:58:10.000Z</time>
      </trkpt>
      <trkpt lat="51.696902" lon="0.882476">
        <ele>22.730549</ele>
        <time>2021-05-23T12:58:12.000Z</time>
      </trkpt>
      <trkpt lat="51.697012" lon="0.882467">
        <ele>22.784462</ele>
        <time>2021-05-23T12:58:13.000Z</time>
      </trkpt>
      <trkpt lat="51.697242" lon="0.88239">
        <ele>22.91418</ele>
        <time>2021-05-23T12:58:16.000Z</time>
      </trkpt>
      <trkpt lat="51.697344" lon="0.882338">
        <ele>22.975956</ele>
        <time>2021-05-23T12:58:17.000Z</time>
      </trkpt>
      <trkpt lat="51.697442" lon="0.882271">
        <ele>23.030891</ele>
        <time>2021-05-23T12:58:18.000Z</time>
      </trkpt>
      <trkpt lat="51.697492" lon="0.882224">
        <ele>23.058413</ele>
        <time>2021-05-23T12:58:19.000Z</time>
      </trkpt>
      <trkpt lat="51.697539" lon="0.882161">
        <ele>23.096409</ele>
        <time>2021-05-23T12:58:20.000Z</time>
      </trkpt>
      <trkpt lat="51.697683" lon="0.881903">
        <ele>23.212094</ele>
        <time>2021-05-23T12:58:22.000Z</time>
      </trkpt>
      <trkpt lat="51.69774" lon="0.88181">
        <ele>23.248679</ele>
        <time>2021-05-23T12:58:23.000Z</time>
      </trkpt>
      <trkpt lat="51.697792" lon="0.88172">
        <ele>23.244539</ele>
        <time>2021-05-23T12:58:24.000Z</time>
      </trkpt>
      <trkpt lat="51.697939" lon="0.881501">
        <ele>23.22463</ele>
        <time>2021-05-23T12:58:26.000Z</time>
      </trkpt>
      <trkpt lat="51.69797" lon="0.881478">
        <ele>23.220408</ele>
        <time>2021-05-23T12:58:26.000Z</time>
      </trkpt>
      <trkpt lat="51.697993" lon="0.881473">
        <ele>23.217758</ele>
        <time>2021-05-23T12:58:26.000Z</time>
      </trkpt>
      <trkpt lat="51.698204" lon="0.881427">
        <ele>23.195425</ele>
        <time>2021-05-23T12:58:28.000Z</time>
      </trkpt>
      <trkpt lat="51.698437" lon="0.881367">
        <ele>23.169492</ele>
        <time>2021-05-23T12:58:31.000Z</time>
      </trkpt>
      <trkpt lat="51.698853" lon="0.881301">
        <ele>23.124092</ele>
        <time>2021-05-23T12:58:36.000Z</time>
      </trkpt>
      <trkpt lat="51.699146" lon="0.881279">
        <ele>23.093437</ele>
        <time>2021-05-23T12:58:39.000Z</time>
      </trkpt>
      <trkpt lat="51.699497" lon="0.881245">
        <ele>23.021036</ele>
        <time>2021-05-23T12:58:43.000Z</time>
      </trkpt>
      <trkpt lat="51.699593" lon="0.881229">
        <ele>22.921363</ele>
        <time>2021-05-23T12:58:44.000Z</time>
      </trkpt>
      <trkpt lat="51.699709" lon="0.881181">
        <ele>22.815601</ele>
        <time>2021-05-23T12:58:45.000Z</time>
      </trkpt>
      <trkpt lat="51.699969" lon="0.880842">
        <ele>22.476906</ele>
        <time>2021-05-23T12:58:49.000Z</time>
      </trkpt>
      <trkpt lat="51.700008" lon="0.880754">
        <ele>22.407488</ele>
        <time>2021-05-23T12:58:50.000Z</time>
      </trkpt>
      <trkpt lat="51.700155" lon="0.880598">
        <ele>22.24965</ele>
        <time>2021-05-23T12:58:52.000Z</time>
      </trkpt>
      <trkpt lat="51.700456" lon="0.880488">
        <ele>21.949084</ele>
        <time>2021-05-23T12:58:55.000Z</time>
      </trkpt>
      <trkpt lat="51.700659" lon="0.880429">
        <ele>21.74213</ele>
        <time>2021-05-23T12:58:57.000Z</time>
      </trkpt>
      <trkpt lat="51.700782" lon="0.880405">
        <ele>21.6199</ele>
        <time>2021-05-23T12:58:58.000Z</time>
      </trkpt>
      <trkpt lat="51.701186" lon="0.880363">
        <ele>21.230319</ele>
        <time>2021-05-23T12:59:03.000Z</time>
      </trkpt>
      <trkpt lat="51.701469" lon="0.880351">
        <ele>20.958938</ele>
        <time>2021-05-23T12:59:06.000Z</time>
      </trkpt>
      <trkpt lat="51.702796" lon="0.880274">
        <ele>19.687501</ele>
        <time>2021-05-23T12:59:21.000Z</time>
      </trkpt>
      <trkpt lat="51.702874" lon="0.880338">
        <ele>19.605134</ele>
        <time>2021-05-23T12:59:22.000Z</time>
      </trkpt>
      <trkpt lat="51.702938" lon="0.880475">
        <ele>19.532033</ele>
        <time>2021-05-23T12:59:23.000Z</time>
      </trkpt>
      <trkpt lat="51.702962" lon="0.880981">
        <ele>19.338412</ele>
        <time>2021-05-23T12:59:26.000Z</time>
      </trkpt>
      <trkpt lat="51.703059" lon="0.881218">
        <ele>19.233744</ele>
        <time>2021-05-23T12:59:28.000Z</time>
      </trkpt>
      <trkpt lat="51.703135" lon="0.881261">
        <ele>19.181633</ele>
        <time>2021-05-23T12:59:29.000Z</time>
      </trkpt>
      <trkpt lat="51.704494" lon="0.881575">
        <ele>18.267483</ele>
        <time>2021-05-23T12:59:44.000Z</time>
      </trkpt>
      <trkpt lat="51.705131" lon="0.881531">
        <ele>17.642424</ele>
        <time>2021-05-23T12:59:51.000Z</time>
      </trkpt>
      <trkpt lat="51.705581" lon="0.881588">
        <ele>17.210024</ele>
        <time>2021-05-23T12:59:56.000Z</time>
      </trkpt>
      <trkpt lat="51.706173" lon="0.881808">
        <ele>16.490561</ele>
        <time>2021-05-23T13:00:03.000Z</time>
      </trkpt>
      <trkpt lat="51.7064" lon="0.881963">
        <ele>15.948152</ele>
        <time>2021-05-23T13:00:06.000Z</time>
      </trkpt>
      <trkpt lat="51.706416" lon="0.882032">
        <ele>15.853724</ele>
        <time>2021-05-23T13:00:07.000Z</time>
      </trkpt>
      <trkpt lat="51.706437" lon="0.882095">
        <ele>15.752261</ele>
        <time>2021-05-23T13:00:07.000Z</time>
      </trkpt>
      <trkpt lat="51.70649" lon="0.882874">
        <ele>14.673982</ele>
        <time>2021-05-23T13:00:12.000Z</time>
      </trkpt>
      <trkpt lat="51.706436" lon="0.883954">
        <ele>13.212631</ele>
        <time>2021-05-23T13:00:19.000Z</time>
      </trkpt>
      <trkpt lat="51.706644" lon="0.884202">
        <ele>12.651641</ele>
        <time>2021-05-23T13:00:22.000Z</time>
      </trkpt>
      <trkpt lat="51.706732" lon="0.884244">
        <ele>12.450654</ele>
        <time>2021-05-23T13:00:23.000Z</time>
      </trkpt>
      <trkpt lat="51.706738" lon="0.884252">
        <ele>12.450652</ele>
        <time>2021-05-23T13:00:23.000Z</time>
      </trkpt>
      <trkpt lat="51.707065" lon="0.884355">
        <ele>11.729686</ele>
        <time>2021-05-23T13:00:27.000Z</time>
      </trkpt>
      <trkpt lat="51.707084" lon="0.884357">
        <ele>11.688651</ele>
        <time>2021-05-23T13:00:27.000Z</time>
      </trkpt>
      <trkpt lat="51.70829" lon="0.884578">
        <ele>9.120518</ele>
        <time>2021-05-23T13:00:40.000Z</time>
      </trkpt>
      <trkpt lat="51.708735" lon="0.884602">
        <ele>9.053576</ele>
        <time>2021-05-23T13:00:45.000Z</time>
      </trkpt>
      <trkpt lat="51.708911" lon="0.88458">
        <ele>9.10934</ele>
        <time>2021-05-23T13:00:47.000Z</time>
      </trkpt>
      <trkpt lat="51.70917" lon="0.884547">
        <ele>9.196463</ele>
        <time>2021-05-23T13:00:50.000Z</time>
      </trkpt>
      <trkpt lat="51.710503" lon="0.88458">
        <ele>10.237613</ele>
        <time>2021-05-23T13:01:05.000Z</time>
      </trkpt>
      <trkpt lat="51.711229" lon="0.884435">
        <ele>11.780652</ele>
        <time>2021-05-23T13:01:13.000Z</time>
      </trkpt>
      <trkpt lat="51.711723" lon="0.884215">
        <ele>12.862047</ele>
        <time>2021-05-23T13:01:19.000Z</time>
      </trkpt>
      <trkpt lat="51.711871" lon="0.884135">
        <ele>13.205625</ele>
        <time>2021-05-23T13:01:21.000Z</time>
      </trkpt>
      <trkpt lat="51.712496" lon="0.883868">
        <ele>14.223885</ele>
        <time>2021-05-23T13:01:28.000Z</time>
      </trkpt>
      <trkpt lat="51.713453" lon="0.883354">
        <ele>15.806949</ele>
        <time>2021-05-23T13:01:39.000Z</time>
      </trkpt>
      <trkpt lat="51.713607" lon="0.88328">
        <ele>16.043181</ele>
        <time>2021-05-23T13:01:41.000Z</time>
      </trkpt>
      <trkpt lat="51.713683" lon="0.883234">
        <ele>16.116456</ele>
        <time>2021-05-23T13:01:42.000Z</time>
      </trkpt>
      <trkpt lat="51.714" lon="0.883035">
        <ele>16.178222</ele>
        <time>2021-05-23T13:01:46.000Z</time>
      </trkpt>
      <trkpt lat="51.714096" lon="0.882968">
        <ele>16.197121</ele>
        <time>2021-05-23T13:01:47.000Z</time>
      </trkpt>
      <trkpt lat="51.714419" lon="0.882745">
        <ele>16.261729</ele>
        <time>2021-05-23T13:01:51.000Z</time>
      </trkpt>
      <trkpt lat="51.715234" lon="0.882056">
        <ele>16.432987</ele>
        <time>2021-05-23T13:02:01.000Z</time>
      </trkpt>
      <trkpt lat="51.715589" lon="0.88159">
        <ele>16.189934</ele>
        <time>2021-05-23T13:02:06.000Z</time>
      </trkpt>
      <trkpt lat="51.715892" lon="0.881421">
        <ele>15.994945</ele>
        <time>2021-05-23T13:02:10.000Z</time>
      </trkpt>
      <trkpt lat="51.715991" lon="0.881379">
        <ele>15.928836</ele>
        <time>2021-05-23T13:02:11.000Z</time>
      </trkpt>
      <trkpt lat="51.715964" lon="0.881294">
        <ele>15.892554</ele>
        <time>2021-05-23T13:02:12.000Z</time>
      </trkpt>
      <trkpt lat="51.715932" lon="0.880758">
        <ele>15.691708</ele>
        <time>2021-05-23T13:02:16.000Z</time>
      </trkpt>
      <trkpt lat="51.715922" lon="0.880602">
        <ele>15.631853</ele>
        <time>2021-05-23T13:02:17.000Z</time>
      </trkpt>
      <trkpt lat="51.715901" lon="0.88053">
        <ele>15.600347</ele>
        <time>2021-05-23T13:02:18.000Z</time>
      </trkpt>
      <trkpt lat="51.715659" lon="0.879849">
        <ele>15.312375</ele>
        <time>2021-05-23T13:02:23.000Z</time>
      </trkpt>
      <trkpt lat="51.715542" lon="0.879628">
        <ele>15.226416</ele>
        <time>2021-05-23T13:02:25.000Z</time>
      </trkpt>
      <trkpt lat="51.71541" lon="0.879397">
        <ele>15.131239</ele>
        <time>2021-05-23T13:02:27.000Z</time>
      </trkpt>
      <trkpt lat="51.715321" lon="0.879232">
        <ele>15.069261</ele>
        <time>2021-05-23T13:02:29.000Z</time>
      </trkpt>
      <trkpt lat="51.715013" lon="0.87865">
        <ele>14.833056</ele>
        <time>2021-05-23T13:02:34.000Z</time>
      </trkpt>
      <trkpt lat="51.714986" lon="0.878553">
        <ele>14.803937</ele>
        <time>2021-05-23T13:02:35.000Z</time>
      </trkpt>
      <trkpt lat="51.714903" lon="0.878319">
        <ele>14.723922</ele>
        <time>2021-05-23T13:02:37.000Z</time>
      </trkpt>
      <trkpt lat="51.714877" lon="0.878181">
        <ele>14.682801</ele>
        <time>2021-05-23T13:02:38.000Z</time>
      </trkpt>
      <trkpt lat="51.71463" lon="0.876941">
        <ele>14.512212</ele>
        <time>2021-05-23T13:02:47.000Z</time>
      </trkpt>
      <trkpt lat="51.714553" lon="0.87665">
        <ele>14.532629</ele>
        <time>2021-05-23T13:02:49.000Z</time>
      </trkpt>
      <trkpt lat="51.714473" lon="0.876218">
        <ele>14.561666</ele>
        <time>2021-05-23T13:02:52.000Z</time>
      </trkpt>
      <trkpt lat="51.714406" lon="0.875895">
        <ele>14.584349</ele>
        <time>2021-05-23T13:02:54.000Z</time>
      </trkpt>
      <trkpt lat="51.714341" lon="0.875473">
        <ele>14.611727</ele>
        <time>2021-05-23T13:02:57.000Z</time>
      </trkpt>
      <trkpt lat="51.714342" lon="0.875173">
        <ele>14.631307</ele>
        <time>2021-05-23T13:02:59.000Z</time>
      </trkpt>
      <trkpt lat="51.714303" lon="0.874433">
        <ele>14.820048</ele>
        <time>2021-05-23T13:03:04.000Z</time>
      </trkpt>
      <trkpt lat="51.713909" lon="0.872837">
        <ele>15.784473</ele>
        <time>2021-05-23T13:03:16.000Z</time>
      </trkpt>
      <trkpt lat="51.713666" lon="0.871292">
        <ele>16.870425</ele>
        <time>2021-05-23T13:03:27.000Z</time>
      </trkpt>
      <trkpt lat="51.713175" lon="0.870158">
        <ele>18.024131</ele>
        <time>2021-05-23T13:03:37.000Z</time>
      </trkpt>
      <trkpt lat="51.712282" lon="0.866295">
        <ele>21.930071</ele>
        <time>2021-05-23T13:04:05.000Z</time>
      </trkpt>
      <trkpt lat="51.712098" lon="0.86519">
        <ele>23.043145</ele>
        <time>2021-05-23T13:04:13.000Z</time>
      </trkpt>
      <trkpt lat="51.712037" lon="0.864297">
        <ele>23.909679</ele>
        <time>2021-05-23T13:04:19.000Z</time>
      </trkpt>
      <trkpt lat="51.712036" lon="0.863799">
        <ele>24.380653</ele>
        <time>2021-05-23T13:04:22.000Z</time>
      </trkpt>
      <trkpt lat="51.712038" lon="0.863655">
        <ele>24.479235</ele>
        <time>2021-05-23T13:04:23.000Z</time>
      </trkpt>
      <trkpt lat="51.712019" lon="0.863482">
        <ele>24.614614</ele>
        <time>2021-05-23T13:04:24.000Z</time>
      </trkpt>
      <trkpt lat="51.711974" lon="0.862997">
        <ele>24.957157</ele>
        <time>2021-05-23T13:04:27.000Z</time>
      </trkpt>
      <trkpt lat="51.711948" lon="0.862696">
        <ele>25.185225</ele>
        <time>2021-05-23T13:04:29.000Z</time>
      </trkpt>
      <trkpt lat="51.711874" lon="0.862402">
        <ele>25.412357</ele>
        <time>2021-05-23T13:04:31.000Z</time>
      </trkpt>
      <trkpt lat="51.7118" lon="0.862129">
        <ele>25.615458</ele>
        <time>2021-05-23T13:04:33.000Z</time>
      </trkpt>
      <trkpt lat="51.711566" lon="0.861576">
        <ele>26.1039</ele>
        <time>2021-05-23T13:04:38.000Z</time>
      </trkpt>
      <trkpt lat="51.71143" lon="0.861289">
        <ele>26.363276</ele>
        <time>2021-05-23T13:04:40.000Z</time>
      </trkpt>
      <trkpt lat="51.711415" lon="0.86124">
        <ele>26.409238</ele>
        <time>2021-05-23T13:04:40.000Z</time>
      </trkpt>
      <trkpt lat="51.711347" lon="0.861064">
        <ele>26.44914</ele>
        <time>2021-05-23T13:04:41.000Z</time>
      </trkpt>
      <trkpt lat="51.711301" lon="0.86085">
        <ele>26.450734</ele>
        <time>2021-05-23T13:04:43.000Z</time>
      </trkpt>
      <trkpt lat="51.711268" lon="0.86071">
        <ele>26.451806</ele>
        <time>2021-05-23T13:04:44.000Z</time>
      </trkpt>
      <trkpt lat="51.711108" lon="0.859055">
        <ele>26.463706</ele>
        <time>2021-05-23T13:04:56.000Z</time>
      </trkpt>
      <trkpt lat="51.710924" lon="0.858189">
        <ele>26.215861</ele>
        <time>2021-05-23T13:05:02.000Z</time>
      </trkpt>
      <trkpt lat="51.710846" lon="0.857952">
        <ele>25.901938</ele>
        <time>2021-05-23T13:05:04.000Z</time>
      </trkpt>
      <trkpt lat="51.7106" lon="0.857391">
        <ele>25.10877</ele>
        <time>2021-05-23T13:05:09.000Z</time>
      </trkpt>
      <trkpt lat="51.709713" lon="0.85569">
        <ele>22.58235</ele>
        <time>2021-05-23T13:05:24.000Z</time>
      </trkpt>
      <trkpt lat="51.709651" lon="0.855496">
        <ele>22.368949</ele>
        <time>2021-05-23T13:05:26.000Z</time>
      </trkpt>
      <trkpt lat="51.709623" lon="0.855423">
        <ele>22.266422</ele>
        <time>2021-05-23T13:05:27.000Z</time>
      </trkpt>
      <trkpt lat="51.708793" lon="0.853264">
        <ele>20.268883</ele>
        <time>2021-05-23T13:05:45.000Z</time>
      </trkpt>
      <trkpt lat="51.708492" lon="0.852152">
        <ele>20.483937</ele>
        <time>2021-05-23T13:05:53.000Z</time>
      </trkpt>
      <trkpt lat="51.707952" lon="0.84993">
        <ele>21.45438</ele>
        <time>2021-05-23T13:06:09.000Z</time>
      </trkpt>
      <trkpt lat="51.707851" lon="0.84906">
        <ele>22.051267</ele>
        <time>2021-05-23T13:06:15.000Z</time>
      </trkpt>
      <trkpt lat="51.707817" lon="0.848615">
        <ele>22.349853</ele>
        <time>2021-05-23T13:06:18.000Z</time>
      </trkpt>
      <trkpt lat="51.707793" lon="0.848438">
        <ele>22.466826</ele>
        <time>2021-05-23T13:06:19.000Z</time>
      </trkpt>
      <trkpt lat="51.70757" lon="0.845446">
        <ele>23.177911</ele>
        <time>2021-05-23T13:06:40.000Z</time>
      </trkpt>
      <trkpt lat="51.707551" lon="0.845027">
        <ele>22.986668</ele>
        <time>2021-05-23T13:06:43.000Z</time>
      </trkpt>
      <trkpt lat="51.707551" lon="0.844543">
        <ele>22.572896</ele>
        <time>2021-05-23T13:06:46.000Z</time>
      </trkpt>
      <trkpt lat="51.707386" lon="0.843157">
        <ele>21.395981</ele>
        <time>2021-05-23T13:06:56.000Z</time>
      </trkpt>
      <trkpt lat="51.706915" lon="0.841679">
        <ele>19.355651</ele>
        <time>2021-05-23T13:07:07.000Z</time>
      </trkpt>
      <trkpt lat="51.706691" lon="0.840912">
        <ele>18.064255</ele>
        <time>2021-05-23T13:07:13.000Z</time>
      </trkpt>
      <trkpt lat="51.706382" lon="0.839922">
        <ele>16.352124</ele>
        <time>2021-05-23T13:07:21.000Z</time>
      </trkpt>
      <trkpt lat="51.706097" lon="0.839087">
        <ele>15.011862</ele>
        <time>2021-05-23T13:07:28.000Z</time>
      </trkpt>
      <trkpt lat="51.705528" lon="0.838">
        <ele>13.040241</ele>
        <time>2021-05-23T13:07:38.000Z</time>
      </trkpt>
      <trkpt lat="51.705275" lon="0.83671">
        <ele>11.679727</ele>
        <time>2021-05-23T13:07:47.000Z</time>
      </trkpt>
      <trkpt lat="51.704899" lon="0.83567">
        <ele>10.808187</ele>
        <time>2021-05-23T13:07:55.000Z</time>
      </trkpt>
      <trkpt lat="51.704686" lon="0.835033">
        <ele>10.289272</ele>
        <time>2021-05-23T13:08:00.000Z</time>
      </trkpt>
      <trkpt lat="51.704497" lon="0.834685">
        <ele>10.117607</ele>
        <time>2021-05-23T13:08:03.000Z</time>
      </trkpt>
      <trkpt lat="51.704086" lon="0.83422">
        <ele>9.991712</ele>
        <time>2021-05-23T13:08:09.000Z</time>
      </trkpt>
      <trkpt lat="51.703873" lon="0.834071">
        <ele>9.933955</ele>
        <time>2021-05-23T13:08:12.000Z</time>
      </trkpt>
      <trkpt lat="51.703351" lon="0.833952">
        <ele>9.805351</ele>
        <time>2021-05-23T13:08:18.000Z</time>
      </trkpt>
      <trkpt lat="51.702224" lon="0.833731">
        <ele>9.647757</ele>
        <time>2021-05-23T13:08:31.000Z</time>
      </trkpt>
      <trkpt lat="51.702068" lon="0.833656">
        <ele>9.633612</ele>
        <time>2021-05-23T13:08:33.000Z</time>
      </trkpt>
      <trkpt lat="51.702027" lon="0.833622">
        <ele>9.628978</ele>
        <time>2021-05-23T13:08:34.000Z</time>
      </trkpt>
      <trkpt lat="51.701946" lon="0.833562">
        <ele>9.621757</ele>
        <time>2021-05-23T13:08:35.000Z</time>
      </trkpt>
      <trkpt lat="51.701836" lon="0.83344">
        <ele>9.609967</ele>
        <time>2021-05-23T13:08:36.000Z</time>
      </trkpt>
      <trkpt lat="51.701723" lon="0.833216">
        <ele>9.5945</ele>
        <time>2021-05-23T13:08:38.000Z</time>
      </trkpt>
      <trkpt lat="51.701672" lon="0.832986">
        <ele>9.581414</ele>
        <time>2021-05-23T13:08:40.000Z</time>
      </trkpt>
      <trkpt lat="51.701291" lon="0.831182">
        <ele>9.441425</ele>
        <time>2021-05-23T13:08:53.000Z</time>
      </trkpt>
      <trkpt lat="51.700857" lon="0.829657">
        <ele>9.341116</ele>
        <time>2021-05-23T13:09:05.000Z</time>
      </trkpt>
      <trkpt lat="51.700763" lon="0.829433">
        <ele>9.353347</ele>
        <time>2021-05-23T13:09:07.000Z</time>
      </trkpt>
      <trkpt lat="51.700607" lon="0.829">
        <ele>9.375337</ele>
        <time>2021-05-23T13:09:10.000Z</time>
      </trkpt>
      <trkpt lat="51.700477" lon="0.828585">
        <ele>9.396388</ele>
        <time>2021-05-23T13:09:13.000Z</time>
      </trkpt>
      <trkpt lat="51.700122" lon="0.826561">
        <ele>9.66061</ele>
        <time>2021-05-23T13:09:27.000Z</time>
      </trkpt>
      <trkpt lat="51.699693" lon="0.824645">
        <ele>10.260384</ele>
        <time>2021-05-23T13:09:41.000Z</time>
      </trkpt>
      <trkpt lat="51.699361" lon="0.823205">
        <ele>10.892262</ele>
        <time>2021-05-23T13:09:52.000Z</time>
      </trkpt>
      <trkpt lat="51.699158" lon="0.822733">
        <ele>11.142063</ele>
        <time>2021-05-23T13:09:56.000Z</time>
      </trkpt>
      <trkpt lat="51.698043" lon="0.821101">
        <ele>11.8704</ele>
        <time>2021-05-23T13:10:13.000Z</time>
      </trkpt>
      <trkpt lat="51.697757" lon="0.820343">
        <ele>12.067018</ele>
        <time>2021-05-23T13:10:19.000Z</time>
      </trkpt>
      <trkpt lat="51.69775" lon="0.820306">
        <ele>12.073115</ele>
        <time>2021-05-23T13:10:19.000Z</time>
      </trkpt>
      <trkpt lat="51.697714" lon="0.820062">
        <ele>12.128965</ele>
        <time>2021-05-23T13:10:21.000Z</time>
      </trkpt>
      <trkpt lat="51.697605" lon="0.819335">
        <ele>12.27628</ele>
        <time>2021-05-23T13:10:26.000Z</time>
      </trkpt>
      <trkpt lat="51.697601" lon="0.819315">
        <ele>12.280403</ele>
        <time>2021-05-23T13:10:26.000Z</time>
      </trkpt>
      <trkpt lat="51.697557" lon="0.819122">
        <ele>12.316163</ele>
        <time>2021-05-23T13:10:27.000Z</time>
      </trkpt>
      <trkpt lat="51.697535" lon="0.818947">
        <ele>12.349915</ele>
        <time>2021-05-23T13:10:28.000Z</time>
      </trkpt>
      <trkpt lat="51.697471" lon="0.818764">
        <ele>12.384979</ele>
        <time>2021-05-23T13:10:29.000Z</time>
      </trkpt>
      <trkpt lat="51.697383" lon="0.818571">
        <ele>12.431455</ele>
        <time>2021-05-23T13:10:31.000Z</time>
      </trkpt>
      <trkpt lat="51.697212" lon="0.818374">
        <ele>12.495089</ele>
        <time>2021-05-23T13:10:33.000Z</time>
      </trkpt>
      <trkpt lat="51.697075" lon="0.818281">
        <ele>12.535571</ele>
        <time>2021-05-23T13:10:35.000Z</time>
      </trkpt>
      <trkpt lat="51.697039" lon="0.81829">
        <ele>12.547416</ele>
        <time>2021-05-23T13:10:35.000Z</time>
      </trkpt>
      <trkpt lat="51.696839" lon="0.818252">
        <ele>12.611035</ele>
        <time>2021-05-23T13:10:37.000Z</time>
      </trkpt>
      <trkpt lat="51.695898" lon="0.81822">
        <ele>12.959022</ele>
        <time>2021-05-23T13:10:47.000Z</time>
      </trkpt>
      <trkpt lat="51.695698" lon="0.818176">
        <ele>13.044051</ele>
        <time>2021-05-23T13:10:49.000Z</time>
      </trkpt>
      <trkpt lat="51.695599" lon="0.818086">
        <ele>13.086049</ele>
        <time>2021-05-23T13:10:50.000Z</time>
      </trkpt>
      <trkpt lat="51.695565" lon="0.818046">
        <ele>13.108769</ele>
        <time>2021-05-23T13:10:50.000Z</time>
      </trkpt>
      <trkpt lat="51.695411" lon="0.81778">
        <ele>13.200096</ele>
        <time>2021-05-23T13:10:53.000Z</time>
      </trkpt>
      <trkpt lat="51.695371" lon="0.817617">
        <ele>13.246559</ele>
        <time>2021-05-23T13:10:54.000Z</time>
      </trkpt>
      <trkpt lat="51.69526" lon="0.817104">
        <ele>13.393273</ele>
        <time>2021-05-23T13:10:58.000Z</time>
      </trkpt>
      <trkpt lat="51.695122" lon="0.816217">
        <ele>13.480377</ele>
        <time>2021-05-23T13:11:04.000Z</time>
      </trkpt>
      <trkpt lat="51.695106" lon="0.815419">
        <ele>13.487147</ele>
        <time>2021-05-23T13:11:10.000Z</time>
      </trkpt>
      <trkpt lat="51.695036" lon="0.814522">
        <ele>13.494783</ele>
        <time>2021-05-23T13:11:16.000Z</time>
      </trkpt>
      <trkpt lat="51.694697" lon="0.812685">
        <ele>13.472263</ele>
        <time>2021-05-23T13:11:29.000Z</time>
      </trkpt>
      <trkpt lat="51.694619" lon="0.81126">
        <ele>13.442019</ele>
        <time>2021-05-23T13:11:39.000Z</time>
      </trkpt>
      <trkpt lat="51.694629" lon="0.810783">
        <ele>13.388845</ele>
        <time>2021-05-23T13:11:42.000Z</time>
      </trkpt>
      <trkpt lat="51.694644" lon="0.810326">
        <ele>13.315742</ele>
        <time>2021-05-23T13:11:45.000Z</time>
      </trkpt>
      <trkpt lat="51.694576" lon="0.809744">
        <ele>13.220035</ele>
        <time>2021-05-23T13:11:49.000Z</time>
      </trkpt>
      <trkpt lat="51.694197" lon="0.808084">
        <ele>12.938311</ele>
        <time>2021-05-23T13:12:01.000Z</time>
      </trkpt>
      <trkpt lat="51.694021" lon="0.807513">
        <ele>12.846627</ele>
        <time>2021-05-23T13:12:05.000Z</time>
      </trkpt>
      <trkpt lat="51.693765" lon="0.80678">
        <ele>12.725976</ele>
        <time>2021-05-23T13:12:11.000Z</time>
      </trkpt>
      <trkpt lat="51.693588" lon="0.806037">
        <ele>12.610656</ele>
        <time>2021-05-23T13:12:16.000Z</time>
      </trkpt>
      <trkpt lat="51.693471" lon="0.805327">
        <ele>12.530835</ele>
        <time>2021-05-23T13:12:21.000Z</time>
      </trkpt>
      <trkpt lat="51.693467" lon="0.805139">
        <ele>12.518663</ele>
        <time>2021-05-23T13:12:22.000Z</time>
      </trkpt>
      <trkpt lat="51.69344" lon="0.804445">
        <ele>12.475676</ele>
        <time>2021-05-23T13:12:27.000Z</time>
      </trkpt>
      <trkpt lat="51.693435" lon="0.804036">
        <ele>12.449628</ele>
        <time>2021-05-23T13:12:30.000Z</time>
      </trkpt>
      <trkpt lat="51.693359" lon="0.803514">
        <ele>12.415286</ele>
        <time>2021-05-23T13:12:34.000Z</time>
      </trkpt>
      <trkpt lat="51.693265" lon="0.803102">
        <ele>12.387612</ele>
        <time>2021-05-23T13:12:37.000Z</time>
      </trkpt>
      <trkpt lat="51.693244" lon="0.803034">
        <ele>12.38343</ele>
        <time>2021-05-23T13:12:38.000Z</time>
      </trkpt>
      <trkpt lat="51.693091" lon="0.80257">
        <ele>12.305302</ele>
        <time>2021-05-23T13:12:42.000Z</time>
      </trkpt>
      <trkpt lat="51.692725" lon="0.801666">
        <ele>12.075184</ele>
        <time>2021-05-23T13:12:49.000Z</time>
      </trkpt>
      <trkpt lat="51.69261" lon="0.801362">
        <ele>11.999093</ele>
        <time>2021-05-23T13:12:51.000Z</time>
      </trkpt>
      <trkpt lat="51.692561" lon="0.801259">
        <ele>11.975108</ele>
        <time>2021-05-23T13:12:52.000Z</time>
      </trkpt>
      <trkpt lat="51.692367" lon="0.800662">
        <ele>11.831077</ele>
        <time>2021-05-23T13:12:57.000Z</time>
      </trkpt>
      <trkpt lat="51.692124" lon="0.799733">
        <ele>11.396131</ele>
        <time>2021-05-23T13:13:04.000Z</time>
      </trkpt>
      <trkpt lat="51.691971" lon="0.798312">
        <ele>10.593241</ele>
        <time>2021-05-23T13:13:14.000Z</time>
      </trkpt>
      <trkpt lat="51.691983" lon="0.797628">
        <ele>10.208882</ele>
        <time>2021-05-23T13:13:19.000Z</time>
      </trkpt>
      <trkpt lat="51.691974" lon="0.796996">
        <ele>9.894003</ele>
        <time>2021-05-23T13:13:23.000Z</time>
      </trkpt>
      <trkpt lat="51.691798" lon="0.795462">
        <ele>9.169474</ele>
        <time>2021-05-23T13:13:34.000Z</time>
      </trkpt>
      <trkpt lat="51.691787" lon="0.795223">
        <ele>9.05295</ele>
        <time>2021-05-23T13:13:36.000Z</time>
      </trkpt>
      <trkpt lat="51.6918" lon="0.79501">
        <ele>8.956177</ele>
        <time>2021-05-23T13:13:37.000Z</time>
      </trkpt>
      <trkpt lat="51.691847" lon="0.793938">
        <ele>8.547332</ele>
        <time>2021-05-23T13:13:44.000Z</time>
      </trkpt>
      <trkpt lat="51.691842" lon="0.793763">
        <ele>8.488321</ele>
        <time>2021-05-23T13:13:45.000Z</time>
      </trkpt>
      <trkpt lat="51.691822" lon="0.793636">
        <ele>8.440601</ele>
        <time>2021-05-23T13:13:46.000Z</time>
      </trkpt>
      <trkpt lat="51.691788" lon="0.793473">
        <ele>8.388116</ele>
        <time>2021-05-23T13:13:47.000Z</time>
      </trkpt>
      <trkpt lat="51.691749" lon="0.793368">
        <ele>8.349908</ele>
        <time>2021-05-23T13:13:48.000Z</time>
      </trkpt>
      <trkpt lat="51.691679" lon="0.793224">
        <ele>8.28199</ele>
        <time>2021-05-23T13:13:49.000Z</time>
      </trkpt>
      <trkpt lat="51.691467" lon="0.792968">
        <ele>8.145938</ele>
        <time>2021-05-23T13:13:52.000Z</time>
      </trkpt>
      <trkpt lat="51.691464" lon="0.79297">
        <ele>8.145613</ele>
        <time>2021-05-23T13:13:52.000Z</time>
      </trkpt>
      <trkpt lat="51.691436" lon="0.792949">
        <ele>8.129626</ele>
        <time>2021-05-23T13:13:52.000Z</time>
      </trkpt>
      <trkpt lat="51.691281" lon="0.792782">
        <ele>8.027754</ele>
        <time>2021-05-23T13:13:54.000Z</time>
      </trkpt>
      <trkpt lat="51.690756" lon="0.792251">
        <ele>7.741456</ele>
        <time>2021-05-23T13:14:01.000Z</time>
      </trkpt>
      <trkpt lat="51.690292" lon="0.791282">
        <ele>7.482533</ele>
        <time>2021-05-23T13:14:09.000Z</time>
      </trkpt>
      <trkpt lat="51.690188" lon="0.791117">
        <ele>7.430699</ele>
        <time>2021-05-23T13:14:11.000Z</time>
      </trkpt>
      <trkpt lat="51.690082" lon="0.790972">
        <ele>7.384266</ele>
        <time>2021-05-23T13:14:13.000Z</time>
      </trkpt>
      <trkpt lat="51.689527" lon="0.79033">
        <ele>7.181098</ele>
        <time>2021-05-23T13:14:21.000Z</time>
      </trkpt>
      <trkpt lat="51.689446" lon="0.790091">
        <ele>7.156515</ele>
        <time>2021-05-23T13:14:23.000Z</time>
      </trkpt>
      <trkpt lat="51.689412" lon="0.78975">
        <ele>7.125666</ele>
        <time>2021-05-23T13:14:25.000Z</time>
      </trkpt>
      <trkpt lat="51.689411" lon="0.788914">
        <ele>7.048192</ele>
        <time>2021-05-23T13:14:31.000Z</time>
      </trkpt>
      <trkpt lat="51.689414" lon="0.788782">
        <ele>7.035764</ele>
        <time>2021-05-23T13:14:32.000Z</time>
      </trkpt>
      <trkpt lat="51.689395" lon="0.788349">
        <ele>6.996373</ele>
        <time>2021-05-23T13:14:35.000Z</time>
      </trkpt>
      <trkpt lat="51.689191" lon="0.787552">
        <ele>7.005195</ele>
        <time>2021-05-23T13:14:41.000Z</time>
      </trkpt>
      <trkpt lat="51.689089" lon="0.787263">
        <ele>7.139927</ele>
        <time>2021-05-23T13:14:43.000Z</time>
      </trkpt>
      <trkpt lat="51.688833" lon="0.787015">
        <ele>7.325491</ele>
        <time>2021-05-23T13:14:46.000Z</time>
      </trkpt>
      <trkpt lat="51.688366" lon="0.786944">
        <ele>7.616754</ele>
        <time>2021-05-23T13:14:51.000Z</time>
      </trkpt>
      <trkpt lat="51.686038" lon="0.787095">
        <ele>10.07668</ele>
        <time>2021-05-23T13:15:17.000Z</time>
      </trkpt>
      <trkpt lat="51.686019" lon="0.787091">
        <ele>10.099574</ele>
        <time>2021-05-23T13:15:17.000Z</time>
      </trkpt>
      <trkpt lat="51.685903" lon="0.787053">
        <ele>10.242831</ele>
        <time>2021-05-23T13:15:18.000Z</time>
      </trkpt>
      <trkpt lat="51.685566" lon="0.786776">
        <ele>10.486688</ele>
        <time>2021-05-23T13:15:22.000Z</time>
      </trkpt>
      <trkpt lat="51.685385" lon="0.786537">
        <ele>10.61426</ele>
        <time>2021-05-23T13:15:25.000Z</time>
      </trkpt>
      <trkpt lat="51.685096" lon="0.785838">
        <ele>10.900059</ele>
        <time>2021-05-23T13:15:31.000Z</time>
      </trkpt>
      <trkpt lat="51.685074" lon="0.785723">
        <ele>10.943346</ele>
        <time>2021-05-23T13:15:32.000Z</time>
      </trkpt>
      <trkpt lat="51.685034" lon="0.785583">
        <ele>10.994023</ele>
        <time>2021-05-23T13:15:33.000Z</time>
      </trkpt>
      <trkpt lat="51.684926" lon="0.783254">
        <ele>11.128963</ele>
        <time>2021-05-23T13:15:49.000Z</time>
      </trkpt>
      <trkpt lat="51.684885" lon="0.782884">
        <ele>11.086605</ele>
        <time>2021-05-23T13:15:52.000Z</time>
      </trkpt>
      <trkpt lat="51.684821" lon="0.782674">
        <ele>11.057829</ele>
        <time>2021-05-23T13:15:54.000Z</time>
      </trkpt>
      <trkpt lat="51.684691" lon="0.782454">
        <ele>11.025286</ele>
        <time>2021-05-23T13:15:56.000Z</time>
      </trkpt>
      <trkpt lat="51.684506" lon="0.782275">
        <ele>10.984894</ele>
        <time>2021-05-23T13:15:58.000Z</time>
      </trkpt>
      <trkpt lat="51.684404" lon="0.78222">
        <ele>10.964791</ele>
        <time>2021-05-23T13:15:59.000Z</time>
      </trkpt>
      <trkpt lat="51.684298" lon="0.782222">
        <ele>11.020595</ele>
        <time>2021-05-23T13:16:00.000Z</time>
      </trkpt>
      <trkpt lat="51.681844" lon="0.782729">
        <ele>12.406134</ele>
        <time>2021-05-23T13:16:28.000Z</time>
      </trkpt>
      <trkpt lat="51.681738" lon="0.782757">
        <ele>12.459091</ele>
        <time>2021-05-23T13:16:29.000Z</time>
      </trkpt>
      <trkpt lat="51.681568" lon="0.782736">
        <ele>12.535808</ele>
        <time>2021-05-23T13:16:31.000Z</time>
      </trkpt>
      <trkpt lat="51.68135" lon="0.782572">
        <ele>12.655722</ele>
        <time>2021-05-23T13:16:34.000Z</time>
      </trkpt>
      <trkpt lat="51.681229" lon="0.782341">
        <ele>12.746951</ele>
        <time>2021-05-23T13:16:36.000Z</time>
      </trkpt>
      <trkpt lat="51.681161" lon="0.782141">
        <ele>12.810717</ele>
        <time>2021-05-23T13:16:38.000Z</time>
      </trkpt>
      <trkpt lat="51.681123" lon="0.781858">
        <ele>12.886211</ele>
        <time>2021-05-23T13:16:40.000Z</time>
      </trkpt>
      <trkpt lat="51.680981" lon="0.780957">
        <ele>12.534679</ele>
        <time>2021-05-23T13:16:46.000Z</time>
      </trkpt>
      <trkpt lat="51.680555" lon="0.778086">
        <ele>11.308145</ele>
        <time>2021-05-23T13:17:06.000Z</time>
      </trkpt>
      <trkpt lat="51.68054" lon="0.777812">
        <ele>11.187081</ele>
        <time>2021-05-23T13:17:08.000Z</time>
      </trkpt>
      <trkpt lat="51.680528" lon="0.777586">
        <ele>11.079474</ele>
        <time>2021-05-23T13:17:10.000Z</time>
      </trkpt>
      <trkpt lat="51.68054" lon="0.776857">
        <ele>10.733788</ele>
        <time>2021-05-23T13:17:15.000Z</time>
      </trkpt>
      <trkpt lat="51.680493" lon="0.776377">
        <ele>10.506596</ele>
        <time>2021-05-23T13:17:18.000Z</time>
      </trkpt>
      <trkpt lat="51.68041" lon="0.775985">
        <ele>10.376869</ele>
        <time>2021-05-23T13:17:21.000Z</time>
      </trkpt>
      <trkpt lat="51.680157" lon="0.774902">
        <ele>10.160705</ele>
        <time>2021-05-23T13:17:29.000Z</time>
      </trkpt>
      <trkpt lat="51.679855" lon="0.773581">
        <ele>9.899084</ele>
        <time>2021-05-23T13:17:39.000Z</time>
      </trkpt>
      <trkpt lat="51.679812" lon="0.77324">
        <ele>9.839339</ele>
        <time>2021-05-23T13:17:41.000Z</time>
      </trkpt>
      <trkpt lat="51.679825" lon="0.772911">
        <ele>9.784253</ele>
        <time>2021-05-23T13:17:43.000Z</time>
      </trkpt>
      <trkpt lat="51.679833" lon="0.772577">
        <ele>9.728443</ele>
        <time>2021-05-23T13:17:45.000Z</time>
      </trkpt>
      <trkpt lat="51.679799" lon="0.772333">
        <ele>9.687182</ele>
        <time>2021-05-23T13:17:47.000Z</time>
      </trkpt>
      <trkpt lat="51.679762" lon="0.772171">
        <ele>9.658142</ele>
        <time>2021-05-23T13:17:48.000Z</time>
      </trkpt>
      <trkpt lat="51.679727" lon="0.772002">
        <ele>9.626652</ele>
        <time>2021-05-23T13:17:49.000Z</time>
      </trkpt>
      <trkpt lat="51.679134" lon="0.770383">
        <ele>9.322108</ele>
        <time>2021-05-23T13:18:02.000Z</time>
      </trkpt>
      <trkpt lat="51.679069" lon="0.770068">
        <ele>9.271331</ele>
        <time>2021-05-23T13:18:04.000Z</time>
      </trkpt>
      <trkpt lat="51.67903" lon="0.76966">
        <ele>9.209993</ele>
        <time>2021-05-23T13:18:07.000Z</time>
      </trkpt>
      <trkpt lat="51.679117" lon="0.768184">
        <ele>8.987273</ele>
        <time>2021-05-23T13:18:17.000Z</time>
      </trkpt>
      <trkpt lat="51.679184" lon="0.767506">
        <ele>8.9434</ele>
        <time>2021-05-23T13:18:22.000Z</time>
      </trkpt>
      <trkpt lat="51.679288" lon="0.766492">
        <ele>8.912781</ele>
        <time>2021-05-23T13:18:29.000Z</time>
      </trkpt>
      <trkpt lat="51.67941" lon="0.765465">
        <ele>8.881189</ele>
        <time>2021-05-23T13:18:36.000Z</time>
      </trkpt>
      <trkpt lat="51.679469" lon="0.764989">
        <ele>8.877831</ele>
        <time>2021-05-23T13:18:39.000Z</time>
      </trkpt>
      <trkpt lat="51.679478" lon="0.764696">
        <ele>8.891134</ele>
        <time>2021-05-23T13:18:41.000Z</time>
      </trkpt>
      <trkpt lat="51.679474" lon="0.764428">
        <ele>8.903471</ele>
        <time>2021-05-23T13:18:43.000Z</time>
      </trkpt>
      <trkpt lat="51.679432" lon="0.764025">
        <ele>8.921172</ele>
        <time>2021-05-23T13:18:46.000Z</time>
      </trkpt>
      <trkpt lat="51.679413" lon="0.763967">
        <ele>8.923502</ele>
        <time>2021-05-23T13:18:46.000Z</time>
      </trkpt>
      <trkpt lat="51.679321" lon="0.763587">
        <ele>8.942418</ele>
        <time>2021-05-23T13:18:49.000Z</time>
      </trkpt>
      <trkpt lat="51.67931" lon="0.763549">
        <ele>8.944188</ele>
        <time>2021-05-23T13:18:49.000Z</time>
      </trkpt>
      <trkpt lat="51.679283" lon="0.763457">
        <ele>8.948263</ele>
        <time>2021-05-23T13:18:50.000Z</time>
      </trkpt>
      <trkpt lat="51.679029" lon="0.762623">
        <ele>8.989827</ele>
        <time>2021-05-23T13:18:56.000Z</time>
      </trkpt>
      <trkpt lat="51.679025" lon="0.762602">
        <ele>8.990905</ele>
        <time>2021-05-23T13:18:56.000Z</time>
      </trkpt>
      <trkpt lat="51.678698" lon="0.761608">
        <ele>9.044907</ele>
        <time>2021-05-23T13:19:04.000Z</time>
      </trkpt>
      <trkpt lat="51.678581" lon="0.76119">
        <ele>9.068087</ele>
        <time>2021-05-23T13:19:07.000Z</time>
      </trkpt>
      <trkpt lat="51.678326" lon="0.760015">
        <ele>9.128861</ele>
        <time>2021-05-23T13:19:16.000Z</time>
      </trkpt>
      <trkpt lat="51.678147" lon="0.759204">
        <ele>9.258357</ele>
        <time>2021-05-23T13:19:22.000Z</time>
      </trkpt>
      <trkpt lat="51.678001" lon="0.758442">
        <ele>9.423108</ele>
        <time>2021-05-23T13:19:27.000Z</time>
      </trkpt>
      <trkpt lat="51.677852" lon="0.757809">
        <ele>9.557989</ele>
        <time>2021-05-23T13:19:32.000Z</time>
      </trkpt>
      <trkpt lat="51.677436" lon="0.756065">
        <ele>10.129606</ele>
        <time>2021-05-23T13:19:45.000Z</time>
      </trkpt>
      <trkpt lat="51.677172" lon="0.755301">
        <ele>10.474955</ele>
        <time>2021-05-23T13:19:51.000Z</time>
      </trkpt>
      <trkpt lat="51.676605" lon="0.754112">
        <ele>11.055494</ele>
        <time>2021-05-23T13:20:01.000Z</time>
      </trkpt>
      <trkpt lat="51.676486" lon="0.753715">
        <ele>11.225731</ele>
        <time>2021-05-23T13:20:04.000Z</time>
      </trkpt>
      <trkpt lat="51.67646" lon="0.753482">
        <ele>11.314374</ele>
        <time>2021-05-23T13:20:06.000Z</time>
      </trkpt>
      <trkpt lat="51.676392" lon="0.752828">
        <ele>11.567317</ele>
        <time>2021-05-23T13:20:11.000Z</time>
      </trkpt>
      <trkpt lat="51.676258" lon="0.752077">
        <ele>11.868867</ele>
        <time>2021-05-23T13:20:16.000Z</time>
      </trkpt>
      <trkpt lat="51.676213" lon="0.751827">
        <ele>11.970617</ele>
        <time>2021-05-23T13:20:18.000Z</time>
      </trkpt>
      <trkpt lat="51.675954" lon="0.750606">
        <ele>12.040465</ele>
        <time>2021-05-23T13:20:27.000Z</time>
      </trkpt>
      <trkpt lat="51.675907" lon="0.750274">
        <ele>12.056931</ele>
        <time>2021-05-23T13:20:29.000Z</time>
      </trkpt>
      <trkpt lat="51.675905" lon="0.750042">
        <ele>12.068706</ele>
        <time>2021-05-23T13:20:31.000Z</time>
      </trkpt>
      <trkpt lat="51.675979" lon="0.749593">
        <ele>12.092143</ele>
        <time>2021-05-23T13:20:34.000Z</time>
      </trkpt>
      <trkpt lat="51.67605" lon="0.749365">
        <ele>12.104507</ele>
        <time>2021-05-23T13:20:36.000Z</time>
      </trkpt>
      <trkpt lat="51.676484" lon="0.748544">
        <ele>11.578855</ele>
        <time>2021-05-23T13:20:43.000Z</time>
      </trkpt>
      <trkpt lat="51.676497" lon="0.748473">
        <ele>11.527205</ele>
        <time>2021-05-23T13:20:44.000Z</time>
      </trkpt>
      <trkpt lat="51.67652" lon="0.748394">
        <ele>11.468163</ele>
        <time>2021-05-23T13:20:45.000Z</time>
      </trkpt>
      <trkpt lat="51.676545" lon="0.748258">
        <ele>11.363251</ele>
        <time>2021-05-23T13:20:46.000Z</time>
      </trkpt>
      <trkpt lat="51.676557" lon="0.747993">
        <ele>11.160765</ele>
        <time>2021-05-23T13:20:48.000Z</time>
      </trkpt>
      <trkpt lat="51.676551" lon="0.74754">
        <ele>10.821644</ele>
        <time>2021-05-23T13:20:51.000Z</time>
      </trkpt>
      <trkpt lat="51.676533" lon="0.745877">
        <ele>9.60078</ele>
        <time>2021-05-23T13:21:02.000Z</time>
      </trkpt>
      <trkpt lat="51.676521" lon="0.744931">
        <ele>8.89306</ele>
        <time>2021-05-23T13:21:09.000Z</time>
      </trkpt>
      <trkpt lat="51.676448" lon="0.74244">
        <ele>7.69641</ele>
        <time>2021-05-23T13:21:26.000Z</time>
      </trkpt>
      <trkpt lat="51.676108" lon="0.740851">
        <ele>7.494636</ele>
        <time>2021-05-23T13:21:38.000Z</time>
      </trkpt>
      <trkpt lat="51.676066" lon="0.740645">
        <ele>7.481877</ele>
        <time>2021-05-23T13:21:39.000Z</time>
      </trkpt>
      <trkpt lat="51.675913" lon="0.739873">
        <ele>7.572319</ele>
        <time>2021-05-23T13:21:45.000Z</time>
      </trkpt>
      <trkpt lat="51.675462" lon="0.737201">
        <ele>7.791495</ele>
        <time>2021-05-23T13:22:04.000Z</time>
      </trkpt>
      <trkpt lat="51.675315" lon="0.736002">
        <ele>7.770622</ele>
        <time>2021-05-23T13:22:12.000Z</time>
      </trkpt>
      <trkpt lat="51.675234" lon="0.734267">
        <ele>7.780504</ele>
        <time>2021-05-23T13:22:24.000Z</time>
      </trkpt>
      <trkpt lat="51.675223" lon="0.73215">
        <ele>7.852642</ele>
        <time>2021-05-23T13:22:39.000Z</time>
      </trkpt>
      <trkpt lat="51.675191" lon="0.731719">
        <ele>7.98927</ele>
        <time>2021-05-23T13:22:42.000Z</time>
      </trkpt>
      <trkpt lat="51.675074" lon="0.731222">
        <ele>8.152556</ele>
        <time>2021-05-23T13:22:46.000Z</time>
      </trkpt>
      <trkpt lat="51.674926" lon="0.730915">
        <ele>8.273199</ele>
        <time>2021-05-23T13:22:49.000Z</time>
      </trkpt>
      <trkpt lat="51.674731" lon="0.730696">
        <ele>8.390388</ele>
        <time>2021-05-23T13:22:52.000Z</time>
      </trkpt>
      <trkpt lat="51.672805" lon="0.729808">
        <ele>9.972235</ele>
        <time>2021-05-23T13:23:14.000Z</time>
      </trkpt>
      <trkpt lat="51.672345" lon="0.729524">
        <ele>10.444183</ele>
        <time>2021-05-23T13:23:19.000Z</time>
      </trkpt>
      <trkpt lat="51.672094" lon="0.729337">
        <ele>10.681171</ele>
        <time>2021-05-23T13:23:22.000Z</time>
      </trkpt>
      <trkpt lat="51.671946" lon="0.729135">
        <ele>10.856865</ele>
        <time>2021-05-23T13:23:24.000Z</time>
      </trkpt>
      <trkpt lat="51.6718" lon="0.728746">
        <ele>11.098252</ele>
        <time>2021-05-23T13:23:27.000Z</time>
      </trkpt>
      <trkpt lat="51.671724" lon="0.728248">
        <ele>11.379008</ele>
        <time>2021-05-23T13:23:31.000Z</time>
      </trkpt>
      <trkpt lat="51.671736" lon="0.727676">
        <ele>11.679105</ele>
        <time>2021-05-23T13:23:35.000Z</time>
      </trkpt>
      <trkpt lat="51.67176" lon="0.727359">
        <ele>11.852521</ele>
        <time>2021-05-23T13:23:37.000Z</time>
      </trkpt>
      <trkpt lat="51.671761" lon="0.727054">
        <ele>12.015877</ele>
        <time>2021-05-23T13:23:39.000Z</time>
      </trkpt>
      <trkpt lat="51.671632" lon="0.725903">
        <ele>12.33412</ele>
        <time>2021-05-23T13:23:47.000Z</time>
      </trkpt>
      <trkpt lat="51.6716" lon="0.725774">
        <ele>12.367978</ele>
        <time>2021-05-23T13:23:48.000Z</time>
      </trkpt>
      <trkpt lat="51.671485" lon="0.72587">
        <ele>12.427377</ele>
        <time>2021-05-23T13:23:49.000Z</time>
      </trkpt>
      <trkpt lat="51.670256" lon="0.726037">
        <ele>13.014932</ele>
        <time>2021-05-23T13:24:03.000Z</time>
      </trkpt>
      <trkpt lat="51.669782" lon="0.726139">
        <ele>13.291905</ele>
        <time>2021-05-23T13:24:08.000Z</time>
      </trkpt>
      <trkpt lat="51.669525" lon="0.726207">
        <ele>13.435516</ele>
        <time>2021-05-23T13:24:11.000Z</time>
      </trkpt>
      <trkpt lat="51.669439" lon="0.726247">
        <ele>13.493704</ele>
        <time>2021-05-23T13:24:12.000Z</time>
      </trkpt>
      <trkpt lat="51.66924" lon="0.726317">
        <ele>13.611104</ele>
        <time>2021-05-23T13:24:14.000Z</time>
      </trkpt>
      <trkpt lat="51.668849" lon="0.726441">
        <ele>13.838808</ele>
        <time>2021-05-23T13:24:18.000Z</time>
      </trkpt>
      <trkpt lat="51.668027" lon="0.726737">
        <ele>14.786811</ele>
        <time>2021-05-23T13:24:27.000Z</time>
      </trkpt>
      <trkpt lat="51.667444" lon="0.726934">
        <ele>15.450307</ele>
        <time>2021-05-23T13:24:34.000Z</time>
      </trkpt>
      <trkpt lat="51.667384" lon="0.726968">
        <ele>15.525085</ele>
        <time>2021-05-23T13:24:35.000Z</time>
      </trkpt>
      <trkpt lat="51.667116" lon="0.727054">
        <ele>15.817857</ele>
        <time>2021-05-23T13:24:38.000Z</time>
      </trkpt>
      <trkpt lat="51.666772" lon="0.727309">
        <ele>16.406039</ele>
        <time>2021-05-23T13:24:42.000Z</time>
      </trkpt>
      <trkpt lat="51.66664" lon="0.727775">
        <ele>16.88631</ele>
        <time>2021-05-23T13:24:46.000Z</time>
      </trkpt>
      <trkpt lat="51.666628" lon="0.728381">
        <ele>17.456166</ele>
        <time>2021-05-23T13:24:50.000Z</time>
      </trkpt>
      <trkpt lat="51.666683" lon="0.728569">
        <ele>17.644327</ele>
        <time>2021-05-23T13:24:51.000Z</time>
      </trkpt>
      <trkpt lat="51.66653" lon="0.728704">
        <ele>17.899016</ele>
        <time>2021-05-23T13:24:53.000Z</time>
      </trkpt>
      <trkpt lat="51.66583" lon="0.7288">
        <ele>19.002112</ele>
        <time>2021-05-23T13:25:01.000Z</time>
      </trkpt>
      <trkpt lat="51.664164" lon="0.729162">
        <ele>21.972134</ele>
        <time>2021-05-23T13:25:20.000Z</time>
      </trkpt>
      <trkpt lat="51.663933" lon="0.729223">
        <ele>22.354259</ele>
        <time>2021-05-23T13:25:23.000Z</time>
      </trkpt>
      <trkpt lat="51.662121" lon="0.729616">
        <ele>25.574399</ele>
        <time>2021-05-23T13:25:43.000Z</time>
      </trkpt>
      <trkpt lat="51.660869" lon="0.729753">
        <ele>27.956136</ele>
        <time>2021-05-23T13:25:57.000Z</time>
      </trkpt>
      <trkpt lat="51.660392" lon="0.72981">
        <ele>29.52423</ele>
        <time>2021-05-23T13:26:02.000Z</time>
      </trkpt>
      <trkpt lat="51.659928" lon="0.729836">
        <ele>31.378808</ele>
        <time>2021-05-23T13:26:07.000Z</time>
      </trkpt>
      <trkpt lat="51.65935" lon="0.729833">
        <ele>33.634257</ele>
        <time>2021-05-23T13:26:13.000Z</time>
      </trkpt>
      <trkpt lat="51.658812" lon="0.729917">
        <ele>35.918739</ele>
        <time>2021-05-23T13:26:19.000Z</time>
      </trkpt>
      <trkpt lat="51.658088" lon="0.730066">
        <ele>39.891893</ele>
        <time>2021-05-23T13:26:27.000Z</time>
      </trkpt>
      <trkpt lat="51.656785" lon="0.730064">
        <ele>46.038265</ele>
        <time>2021-05-23T13:26:42.000Z</time>
      </trkpt>
      <trkpt lat="51.656446" lon="0.730062">
        <ele>47.036582</ele>
        <time>2021-05-23T13:26:46.000Z</time>
      </trkpt>
      <trkpt lat="51.656417" lon="0.730065">
        <ele>47.153149</ele>
        <time>2021-05-23T13:26:46.000Z</time>
      </trkpt>
      <trkpt lat="51.655333" lon="0.730138">
        <ele>50.38641</ele>
        <time>2021-05-23T13:26:58.000Z</time>
      </trkpt>
      <trkpt lat="51.655317" lon="0.730939">
        <ele>50.70909</ele>
        <time>2021-05-23T13:27:04.000Z</time>
      </trkpt>
      <trkpt lat="51.65529" lon="0.731331">
        <ele>50.865773</ele>
        <time>2021-05-23T13:27:07.000Z</time>
      </trkpt>
      <trkpt lat="51.65527" lon="0.732228">
        <ele>51.217992</ele>
        <time>2021-05-23T13:27:13.000Z</time>
      </trkpt>
      <trkpt lat="51.655227" lon="0.733264">
        <ele>51.511157</ele>
        <time>2021-05-23T13:27:20.000Z</time>
      </trkpt>
      <trkpt lat="51.655238" lon="0.733283">
        <ele>51.508769</ele>
        <time>2021-05-23T13:27:20.000Z</time>
      </trkpt>
      <trkpt lat="51.655126" lon="0.734349">
        <ele>51.41001</ele>
        <time>2021-05-23T13:27:27.000Z</time>
      </trkpt>
      <trkpt lat="51.655118" lon="0.734371">
        <ele>51.408526</ele>
        <time>2021-05-23T13:27:27.000Z</time>
      </trkpt>
      <trkpt lat="51.65512" lon="0.734372">
        <ele>51.408527</ele>
        <time>2021-05-23T13:27:27.000Z</time>
      </trkpt>
      <trkpt lat="51.655046" lon="0.73493">
        <ele>51.35536</ele>
        <time>2021-05-23T13:27:31.000Z</time>
      </trkpt>
      <trkpt lat="51.654972" lon="0.735379">
        <ele>51.31397</ele>
        <time>2021-05-23T13:27:34.000Z</time>
      </trkpt>
      <trkpt lat="51.654954" lon="0.735823">
        <ele>51.273181</ele>
        <time>2021-05-23T13:27:37.000Z</time>
      </trkpt>
      <trkpt lat="51.654963" lon="0.735949">
        <ele>51.193124</ele>
        <time>2021-05-23T13:27:38.000Z</time>
      </trkpt>
      <trkpt lat="51.654955" lon="0.736121">
        <ele>50.948038</ele>
        <time>2021-05-23T13:27:39.000Z</time>
      </trkpt>
      <trkpt lat="51.654968" lon="0.73625">
        <ele>50.773079</ele>
        <time>2021-05-23T13:27:40.000Z</time>
      </trkpt>
      <trkpt lat="51.655001" lon="0.73682">
        <ele>49.982992</ele>
        <time>2021-05-23T13:27:44.000Z</time>
      </trkpt>
      <trkpt lat="51.655013" lon="0.737937">
        <ele>48.467717</ele>
        <time>2021-05-23T13:27:52.000Z</time>
      </trkpt>
      <trkpt lat="51.655161" lon="0.740942">
        <ele>43.095407</ele>
        <time>2021-05-23T13:28:13.000Z</time>
      </trkpt>
      <trkpt lat="51.655164" lon="0.741039">
        <ele>42.878041</ele>
        <time>2021-05-23T13:28:14.000Z</time>
      </trkpt>
      <trkpt lat="51.655276" lon="0.742755">
        <ele>40.308841</ele>
        <time>2021-05-23T13:28:26.000Z</time>
      </trkpt>
      <trkpt lat="51.655326" lon="0.743757">
        <ele>39.043724</ele>
        <time>2021-05-23T13:28:33.000Z</time>
      </trkpt>
      <trkpt lat="51.655404" lon="0.744957">
        <ele>37.934593</ele>
        <time>2021-05-23T13:28:41.000Z</time>
      </trkpt>
      <trkpt lat="51.655408" lon="0.74529">
        <ele>37.831641</ele>
        <time>2021-05-23T13:28:43.000Z</time>
      </trkpt>
      <trkpt lat="51.655404" lon="0.745437">
        <ele>37.784572</ele>
        <time>2021-05-23T13:28:44.000Z</time>
      </trkpt>
      <trkpt lat="51.65541" lon="0.745469">
        <ele>37.774062</ele>
        <time>2021-05-23T13:28:44.000Z</time>
      </trkpt>
      <trkpt lat="51.655385" lon="0.745614">
        <ele>37.732843</ele>
        <time>2021-05-23T13:28:45.000Z</time>
      </trkpt>
      <trkpt lat="51.655391" lon="0.745675">
        <ele>37.712991</ele>
        <time>2021-05-23T13:28:45.000Z</time>
      </trkpt>
      <trkpt lat="51.655355" lon="0.746107">
        <ele>37.580771</ele>
        <time>2021-05-23T13:28:48.000Z</time>
      </trkpt>
      <trkpt lat="51.655336" lon="0.746358">
        <ele>37.497358</ele>
        <time>2021-05-23T13:28:50.000Z</time>
      </trkpt>
      <trkpt lat="51.655315" lon="0.746392">
        <ele>37.486718</ele>
        <time>2021-05-23T13:28:50.000Z</time>
      </trkpt>
      <trkpt lat="51.655242" lon="0.746789">
        <ele>37.359033</ele>
        <time>2021-05-23T13:28:53.000Z</time>
      </trkpt>
      <trkpt lat="51.655209" lon="0.746967">
        <ele>37.301641</ele>
        <time>2021-05-23T13:28:54.000Z</time>
      </trkpt>
      <trkpt lat="51.655199" lon="0.74717">
        <ele>37.239153</ele>
        <time>2021-05-23T13:28:55.000Z</time>
      </trkpt>
      <trkpt lat="51.655191" lon="0.747371">
        <ele>37.179857</ele>
        <time>2021-05-23T13:28:56.000Z</time>
      </trkpt>
      <trkpt lat="51.655198" lon="0.747429">
        <ele>37.177504</ele>
        <time>2021-05-23T13:28:56.000Z</time>
      </trkpt>
      <trkpt lat="51.65519" lon="0.74772">
        <ele>37.442975</ele>
        <time>2021-05-23T13:28:58.000Z</time>
      </trkpt>
      <trkpt lat="51.655182" lon="0.748156">
        <ele>37.848153</ele>
        <time>2021-05-23T13:29:01.000Z</time>
      </trkpt>
      <trkpt lat="51.655174" lon="0.74866">
        <ele>38.299621</ele>
        <time>2021-05-23T13:29:04.000Z</time>
      </trkpt>
      <trkpt lat="51.655203" lon="0.749625">
        <ele>39.182798</ele>
        <time>2021-05-23T13:29:11.000Z</time>
      </trkpt>
      <trkpt lat="51.655235" lon="0.750155">
        <ele>39.668269</ele>
        <time>2021-05-23T13:29:15.000Z</time>
      </trkpt>
      <trkpt lat="51.65526" lon="0.751548">
        <ele>40.758129</ele>
        <time>2021-05-23T13:29:25.000Z</time>
      </trkpt>
      <trkpt lat="51.655265" lon="0.751897">
        <ele>41.02446</ele>
        <time>2021-05-23T13:29:27.000Z</time>
      </trkpt>
      <trkpt lat="51.655262" lon="0.752539">
        <ele>41.52627</ele>
        <time>2021-05-23T13:29:31.000Z</time>
      </trkpt>
      <trkpt lat="51.655276" lon="0.752854">
        <ele>41.761547</ele>
        <time>2021-05-23T13:29:33.000Z</time>
      </trkpt>
      <trkpt lat="51.65531" lon="0.753689">
        <ele>42.362593</ele>
        <time>2021-05-23T13:29:39.000Z</time>
      </trkpt>
      <trkpt lat="51.655304" lon="0.754112">
        <ele>42.651764</ele>
        <time>2021-05-23T13:29:42.000Z</time>
      </trkpt>
      <trkpt lat="51.655301" lon="0.754537">
        <ele>42.941691</ele>
        <time>2021-05-23T13:29:45.000Z</time>
      </trkpt>
      <trkpt lat="51.655292" lon="0.754915">
        <ele>43.201813</ele>
        <time>2021-05-23T13:29:48.000Z</time>
      </trkpt>
      <trkpt lat="51.6553" lon="0.755563">
        <ele>43.633898</ele>
        <time>2021-05-23T13:29:52.000Z</time>
      </trkpt>
      <trkpt lat="51.655306" lon="0.756561">
        <ele>44.423182</ele>
        <time>2021-05-23T13:29:59.000Z</time>
      </trkpt>
      <trkpt lat="51.655317" lon="0.75733">
        <ele>45.114587</ele>
        <time>2021-05-23T13:30:04.000Z</time>
      </trkpt>
      <trkpt lat="51.655312" lon="0.757609">
        <ele>45.375789</ele>
        <time>2021-05-23T13:30:06.000Z</time>
      </trkpt>
      <trkpt lat="51.655345" lon="0.758044">
        <ele>45.770955</ele>
        <time>2021-05-23T13:30:09.000Z</time>
      </trkpt>
      <trkpt lat="51.655371" lon="0.758302">
        <ele>46.002094</ele>
        <time>2021-05-23T13:30:11.000Z</time>
      </trkpt>
      <trkpt lat="51.655409" lon="0.758852">
        <ele>46.51274</ele>
        <time>2021-05-23T13:30:15.000Z</time>
      </trkpt>
      <trkpt lat="51.655428" lon="0.759423">
        <ele>46.693361</ele>
        <time>2021-05-23T13:30:19.000Z</time>
      </trkpt>
      <trkpt lat="51.655434" lon="0.759757">
        <ele>46.731113</ele>
        <time>2021-05-23T13:30:21.000Z</time>
      </trkpt>
      <trkpt lat="51.655444" lon="0.759936">
        <ele>46.750331</ele>
        <time>2021-05-23T13:30:22.000Z</time>
      </trkpt>
      <trkpt lat="51.65545" lon="0.760523">
        <ele>46.814375</ele>
        <time>2021-05-23T13:30:26.000Z</time>
      </trkpt>
      <trkpt lat="51.655478" lon="0.761386">
        <ele>46.908807</ele>
        <time>2021-05-23T13:30:32.000Z</time>
      </trkpt>
      <trkpt lat="51.655487" lon="0.762215">
        <ele>46.909801</ele>
        <time>2021-05-23T13:30:38.000Z</time>
      </trkpt>
      <trkpt lat="51.655493" lon="0.763007">
        <ele>46.773822</ele>
        <time>2021-05-23T13:30:43.000Z</time>
      </trkpt>
      <trkpt lat="51.655533" lon="0.764178">
        <ele>46.570254</ele>
        <time>2021-05-23T13:30:51.000Z</time>
      </trkpt>
      <trkpt lat="51.655529" lon="0.764189">
        <ele>46.567679</ele>
        <time>2021-05-23T13:30:51.000Z</time>
      </trkpt>
      <trkpt lat="51.655495" lon="0.766077">
        <ele>46.020306</ele>
        <time>2021-05-23T13:31:04.000Z</time>
      </trkpt>
      <trkpt lat="51.655473" lon="0.767701">
        <ele>45.447946</ele>
        <time>2021-05-23T13:31:15.000Z</time>
      </trkpt>
      <trkpt lat="51.655489" lon="0.769121">
        <ele>44.618198</ele>
        <time>2021-05-23T13:31:25.000Z</time>
      </trkpt>
      <trkpt lat="51.655494" lon="0.76982">
        <ele>44.204349</ele>
        <time>2021-05-23T13:31:30.000Z</time>
      </trkpt>
      <trkpt lat="51.655532" lon="0.770527">
        <ele>43.783015</ele>
        <time>2021-05-23T13:31:35.000Z</time>
      </trkpt>
      <trkpt lat="51.655572" lon="0.771211">
        <ele>43.264362</ele>
        <time>2021-05-23T13:31:40.000Z</time>
      </trkpt>
      <trkpt lat="51.655541" lon="0.77151">
        <ele>43.042248</ele>
        <time>2021-05-23T13:31:42.000Z</time>
      </trkpt>
      <trkpt lat="51.655474" lon="0.771696">
        <ele>42.873327</ele>
        <time>2021-05-23T13:31:43.000Z</time>
      </trkpt>
      <trkpt lat="51.655276" lon="0.771842">
        <ele>42.603331</ele>
        <time>2021-05-23T13:31:45.000Z</time>
      </trkpt>
      <trkpt lat="51.655245" lon="0.771851">
        <ele>42.552672</ele>
        <time>2021-05-23T13:31:45.000Z</time>
      </trkpt>
      <trkpt lat="51.652686" lon="0.772142">
        <ele>39.329085</ele>
        <time>2021-05-23T13:32:14.000Z</time>
      </trkpt>
      <trkpt lat="51.652509" lon="0.772186">
        <ele>39.140535</ele>
        <time>2021-05-23T13:32:16.000Z</time>
      </trkpt>
      <trkpt lat="51.6524" lon="0.77224">
        <ele>39.040923</ele>
        <time>2021-05-23T13:32:17.000Z</time>
      </trkpt>
      <trkpt lat="51.652262" lon="0.772536">
        <ele>38.838652</ele>
        <time>2021-05-23T13:32:20.000Z</time>
      </trkpt>
      <trkpt lat="51.652221" lon="0.772913">
        <ele>38.625685</ele>
        <time>2021-05-23T13:32:23.000Z</time>
      </trkpt>
      <trkpt lat="51.652241" lon="0.774883">
        <ele>37.625424</ele>
        <time>2021-05-23T13:32:37.000Z</time>
      </trkpt>
      <trkpt lat="51.652345" lon="0.776006">
        <ele>37.571912</ele>
        <time>2021-05-23T13:32:45.000Z</time>
      </trkpt>
      <trkpt lat="51.652223" lon="0.776328">
        <ele>37.554152</ele>
        <time>2021-05-23T13:32:48.000Z</time>
      </trkpt>
      <trkpt lat="51.652046" lon="0.776436">
        <ele>37.540619</ele>
        <time>2021-05-23T13:32:50.000Z</time>
      </trkpt>
      <trkpt lat="51.651757" lon="0.77643">
        <ele>37.517715</ele>
        <time>2021-05-23T13:32:53.000Z</time>
      </trkpt>
      <trkpt lat="51.65156" lon="0.776493">
        <ele>37.502757</ele>
        <time>2021-05-23T13:32:55.000Z</time>
      </trkpt>
      <trkpt lat="51.651412" lon="0.776628">
        <ele>37.51417</ele>
        <time>2021-05-23T13:32:57.000Z</time>
      </trkpt>
      <trkpt lat="51.651402" lon="0.776809">
        <ele>37.533734</ele>
        <time>2021-05-23T13:32:58.000Z</time>
      </trkpt>
      <trkpt lat="51.651438" lon="0.777538">
        <ele>37.607208</ele>
        <time>2021-05-23T13:33:03.000Z</time>
      </trkpt>
      <trkpt lat="51.651479" lon="0.778077">
        <ele>37.660965</ele>
        <time>2021-05-23T13:33:07.000Z</time>
      </trkpt>
      <trkpt lat="51.65156" lon="0.779989">
        <ele>37.931688</ele>
        <time>2021-05-23T13:33:20.000Z</time>
      </trkpt>
      <trkpt lat="51.651509" lon="0.780458">
        <ele>38.040836</ele>
        <time>2021-05-23T13:33:23.000Z</time>
      </trkpt>
      <trkpt lat="51.651391" lon="0.780653">
        <ele>38.095759</ele>
        <time>2021-05-23T13:33:25.000Z</time>
      </trkpt>
      <trkpt lat="51.651236" lon="0.780693">
        <ele>38.154533</ele>
        <time>2021-05-23T13:33:27.000Z</time>
      </trkpt>
      <trkpt lat="51.649639" lon="0.780229">
        <ele>38.66127</ele>
        <time>2021-05-23T13:33:45.000Z</time>
      </trkpt>
      <trkpt lat="51.649429" lon="0.780265">
        <ele>38.71283</ele>
        <time>2021-05-23T13:33:47.000Z</time>
      </trkpt>
      <trkpt lat="51.649277" lon="0.780528">
        <ele>38.775986</ele>
        <time>2021-05-23T13:33:49.000Z</time>
      </trkpt>
      <trkpt lat="51.649188" lon="0.781243">
        <ele>38.895317</ele>
        <time>2021-05-23T13:33:54.000Z</time>
      </trkpt>
      <trkpt lat="51.6491" lon="0.782038">
        <ele>38.858819</ele>
        <time>2021-05-23T13:34:00.000Z</time>
      </trkpt>
      <trkpt lat="51.648755" lon="0.783684">
        <ele>38.720097</ele>
        <time>2021-05-23T13:34:12.000Z</time>
      </trkpt>
      <trkpt lat="51.648301" lon="0.785403">
        <ele>38.258641</ele>
        <time>2021-05-23T13:34:25.000Z</time>
      </trkpt>
      <trkpt lat="51.648127" lon="0.787171">
        <ele>37.656316</ele>
        <time>2021-05-23T13:34:37.000Z</time>
      </trkpt>
      <trkpt lat="51.648011" lon="0.78757">
        <ele>37.436048</ele>
        <time>2021-05-23T13:34:40.000Z</time>
      </trkpt>
      <trkpt lat="51.64786" lon="0.787717">
        <ele>37.298413</ele>
        <time>2021-05-23T13:34:42.000Z</time>
      </trkpt>
      <trkpt lat="51.647413" lon="0.787806">
        <ele>36.923696</ele>
        <time>2021-05-23T13:34:47.000Z</time>
      </trkpt>
      <trkpt lat="51.647219" lon="0.787979">
        <ele>36.745388</ele>
        <time>2021-05-23T13:34:49.000Z</time>
      </trkpt>
      <trkpt lat="51.647094" lon="0.788761">
        <ele>36.351225</ele>
        <time>2021-05-23T13:34:55.000Z</time>
      </trkpt>
      <trkpt lat="51.647027" lon="0.789601">
        <ele>36.078816</ele>
        <time>2021-05-23T13:35:01.000Z</time>
      </trkpt>
      <trkpt lat="51.64693" lon="0.78987">
        <ele>35.974682</ele>
        <time>2021-05-23T13:35:03.000Z</time>
      </trkpt>
      <trkpt lat="51.646835" lon="0.790024">
        <ele>35.901847</ele>
        <time>2021-05-23T13:35:04.000Z</time>
      </trkpt>
      <trkpt lat="51.646624" lon="0.78999">
        <ele>35.797639</ele>
        <time>2021-05-23T13:35:06.000Z</time>
      </trkpt>
      <trkpt lat="51.645577" lon="0.789595">
        <ele>35.215607</ele>
        <time>2021-05-23T13:35:18.000Z</time>
      </trkpt>
      <trkpt lat="51.645296" lon="0.789561">
        <ele>35.049354</ele>
        <time>2021-05-23T13:35:21.000Z</time>
      </trkpt>
      <trkpt lat="51.645226" lon="0.789676">
        <ele>34.990455</ele>
        <time>2021-05-23T13:35:22.000Z</time>
      </trkpt>
      <trkpt lat="51.644133" lon="0.793547">
        <ele>33.108703</ele>
        <time>2021-05-23T13:35:51.000Z</time>
      </trkpt>
      <trkpt lat="51.644096" lon="0.793789">
        <ele>32.978113</ele>
        <time>2021-05-23T13:35:53.000Z</time>
      </trkpt>
      <trkpt lat="51.643824" lon="0.794679">
        <ele>32.191185</ele>
        <time>2021-05-23T13:36:00.000Z</time>
      </trkpt>
      <trkpt lat="51.643519" lon="0.795693">
        <ele>31.239551</ele>
        <time>2021-05-23T13:36:08.000Z</time>
      </trkpt>
      <trkpt lat="51.64339" lon="0.796151">
        <ele>30.822678</ele>
        <time>2021-05-23T13:36:11.000Z</time>
      </trkpt>
      <trkpt lat="51.643282" lon="0.796385">
        <ele>30.565873</ele>
        <time>2021-05-23T13:36:13.000Z</time>
      </trkpt>
      <trkpt lat="51.643185" lon="0.796493">
        <ele>30.415478</ele>
        <time>2021-05-23T13:36:14.000Z</time>
      </trkpt>
      <trkpt lat="51.643065" lon="0.796601">
        <ele>30.236354</ele>
        <time>2021-05-23T13:36:16.000Z</time>
      </trkpt>
      <trkpt lat="51.642394" lon="0.796941">
        <ele>29.299026</ele>
        <time>2021-05-23T13:36:24.000Z</time>
      </trkpt>
      <trkpt lat="51.641584" lon="0.797567">
        <ele>28.139586</ele>
        <time>2021-05-23T13:36:34.000Z</time>
      </trkpt>
      <trkpt lat="51.641201" lon="0.797907">
        <ele>27.515378</ele>
        <time>2021-05-23T13:36:39.000Z</time>
      </trkpt>
      <trkpt lat="51.640604" lon="0.798607">
        <ele>26.462771</ele>
        <time>2021-05-23T13:36:47.000Z</time>
      </trkpt>
      <trkpt lat="51.640171" lon="0.799101">
        <ele>25.708351</ele>
        <time>2021-05-23T13:36:53.000Z</time>
      </trkpt>
      <trkpt lat="51.640079" lon="0.799202">
        <ele>25.556525</ele>
        <time>2021-05-23T13:36:54.000Z</time>
      </trkpt>
      <trkpt lat="51.639707" lon="0.799702">
        <ele>24.887042</ele>
        <time>2021-05-23T13:36:59.000Z</time>
      </trkpt>
      <trkpt lat="51.639336" lon="0.80024">
        <ele>24.210517</ele>
        <time>2021-05-23T13:37:05.000Z</time>
      </trkpt>
      <trkpt lat="51.639075" lon="0.8007">
        <ele>23.682603</ele>
        <time>2021-05-23T13:37:09.000Z</time>
      </trkpt>
      <trkpt lat="51.638845" lon="0.801121">
        <ele>23.205553</ele>
        <time>2021-05-23T13:37:13.000Z</time>
      </trkpt>
      <trkpt lat="51.638591" lon="0.80175">
        <ele>22.755001</ele>
        <time>2021-05-23T13:37:18.000Z</time>
      </trkpt>
      <trkpt lat="51.638365" lon="0.802324">
        <ele>22.374138</ele>
        <time>2021-05-23T13:37:23.000Z</time>
      </trkpt>
      <trkpt lat="51.638314" lon="0.802448">
        <ele>22.294426</ele>
        <time>2021-05-23T13:37:24.000Z</time>
      </trkpt>
      <trkpt lat="51.638195" lon="0.802768">
        <ele>22.092298</ele>
        <time>2021-05-23T13:37:27.000Z</time>
      </trkpt>
      <trkpt lat="51.638114" lon="0.803054">
        <ele>21.904841</ele>
        <time>2021-05-23T13:37:29.000Z</time>
      </trkpt>
      <trkpt lat="51.638053" lon="0.803228">
        <ele>21.798533</ele>
        <time>2021-05-23T13:37:30.000Z</time>
      </trkpt>
      <trkpt lat="51.637815" lon="0.804129">
        <ele>21.215993</ele>
        <time>2021-05-23T13:37:37.000Z</time>
      </trkpt>
      <trkpt lat="51.637464" lon="0.805505">
        <ele>20.252524</ele>
        <time>2021-05-23T13:37:47.000Z</time>
      </trkpt>
      <trkpt lat="51.636955" lon="0.807351">
        <ele>18.993353</ele>
        <time>2021-05-23T13:38:01.000Z</time>
      </trkpt>
      <trkpt lat="51.636884" lon="0.807654">
        <ele>18.803566</ele>
        <time>2021-05-23T13:38:03.000Z</time>
      </trkpt>
      <trkpt lat="51.63658" lon="0.808949">
        <ele>17.960902</ele>
        <time>2021-05-23T13:38:13.000Z</time>
      </trkpt>
      <trkpt lat="51.6365" lon="0.80961">
        <ele>17.753236</ele>
        <time>2021-05-23T13:38:18.000Z</time>
      </trkpt>
      <trkpt lat="51.636488" lon="0.809682">
        <ele>17.73419</ele>
        <time>2021-05-23T13:38:19.000Z</time>
      </trkpt>
      <trkpt lat="51.636317" lon="0.811041">
        <ele>17.400965</ele>
        <time>2021-05-23T13:38:29.000Z</time>
      </trkpt>
      <trkpt lat="51.636276" lon="0.811312">
        <ele>17.337381</ele>
        <time>2021-05-23T13:38:31.000Z</time>
      </trkpt>
      <trkpt lat="51.636228" lon="0.81174">
        <ele>17.232636</ele>
        <time>2021-05-23T13:38:34.000Z</time>
      </trkpt>
      <trkpt lat="51.636091" lon="0.81258">
        <ele>17.099169</ele>
        <time>2021-05-23T13:38:40.000Z</time>
      </trkpt>
      <trkpt lat="51.63586" lon="0.81415">
        <ele>16.890887</ele>
        <time>2021-05-23T13:38:51.000Z</time>
      </trkpt>
      <trkpt lat="51.635885" lon="0.814212">
        <ele>16.880018</ele>
        <time>2021-05-23T13:38:52.000Z</time>
      </trkpt>
      <trkpt lat="51.635934" lon="0.814336">
        <ele>16.861407</ele>
        <time>2021-05-23T13:38:53.000Z</time>
      </trkpt>
      <trkpt lat="51.635989" lon="0.814409">
        <ele>16.849023</ele>
        <time>2021-05-23T13:38:54.000Z</time>
      </trkpt>
      <trkpt lat="51.635983" lon="0.814426">
        <ele>16.8452</ele>
        <time>2021-05-23T13:38:54.000Z</time>
      </trkpt>
      <trkpt lat="51.636006" lon="0.814458">
        <ele>16.840576</ele>
        <time>2021-05-23T13:38:54.000Z</time>
      </trkpt>
      <trkpt lat="51.636031" lon="0.814494">
        <ele>16.832918</ele>
        <time>2021-05-23T13:38:54.000Z</time>
      </trkpt>
      <trkpt lat="51.636336" lon="0.814546">
        <ele>16.707384</ele>
        <time>2021-05-23T13:38:57.000Z</time>
      </trkpt>
      <trkpt lat="51.636473" lon="0.814554">
        <ele>16.6488</ele>
        <time>2021-05-23T13:38:59.000Z</time>
      </trkpt>
      <trkpt lat="51.636637" lon="0.814587">
        <ele>16.570246</ele>
        <time>2021-05-23T13:39:01.000Z</time>
      </trkpt>
      <trkpt lat="51.636748" lon="0.814591">
        <ele>16.516504</ele>
        <time>2021-05-23T13:39:02.000Z</time>
      </trkpt>
      <trkpt lat="51.636842" lon="0.814604">
        <ele>16.466131</ele>
        <time>2021-05-23T13:39:03.000Z</time>
      </trkpt>
      <trkpt lat="51.636972" lon="0.81461">
        <ele>16.409578</ele>
        <time>2021-05-23T13:39:04.000Z</time>
      </trkpt>
      <trkpt lat="51.63705" lon="0.814601">
        <ele>16.367268</ele>
        <time>2021-05-23T13:39:05.000Z</time>
      </trkpt>
      <trkpt lat="51.637066" lon="0.814602">
        <ele>16.360594</ele>
        <time>2021-05-23T13:39:05.000Z</time>
      </trkpt>
      <trkpt lat="51.637149" lon="0.814569">
        <ele>16.326674</ele>
        <time>2021-05-23T13:39:06.000Z</time>
      </trkpt>
      <trkpt lat="51.637217" lon="0.814535">
        <ele>16.291303</ele>
        <time>2021-05-23T13:39:07.000Z</time>
      </trkpt>
      <trkpt lat="51.637233" lon="0.814523">
        <ele>16.284026</ele>
        <time>2021-05-23T13:39:07.000Z</time>
      </trkpt>
      <trkpt lat="51.637305" lon="0.814427">
        <ele>16.234207</ele>
        <time>2021-05-23T13:39:08.000Z</time>
      </trkpt>
      <trkpt lat="51.637634" lon="0.813895">
        <ele>16.014022</ele>
        <time>2021-05-23T13:39:13.000Z</time>
      </trkpt>
      <trkpt lat="51.63792" lon="0.813536">
        <ele>15.846923</ele>
        <time>2021-05-23T13:39:17.000Z</time>
      </trkpt>
      <trkpt lat="51.638127" lon="0.813328">
        <ele>15.73055</ele>
        <time>2021-05-23T13:39:20.000Z</time>
      </trkpt>
      <trkpt lat="51.638614" lon="0.81301">
        <ele>15.478642</ele>
        <time>2021-05-23T13:39:26.000Z</time>
      </trkpt>
      <trkpt lat="51.6388" lon="0.812984">
        <ele>15.394141</ele>
        <time>2021-05-23T13:39:28.000Z</time>
      </trkpt>
      <trkpt lat="51.639234" lon="0.812905">
        <ele>15.186416</ele>
        <time>2021-05-23T13:39:33.000Z</time>
      </trkpt>
      <trkpt lat="51.639726" lon="0.812843">
        <ele>15.468592</ele>
        <time>2021-05-23T13:39:38.000Z</time>
      </trkpt>
      <trkpt lat="51.63983" lon="0.812829">
        <ele>15.595191</ele>
        <time>2021-05-23T13:39:39.000Z</time>
      </trkpt>
      <trkpt lat="51.641036" lon="0.812729">
        <ele>16.954066</ele>
        <time>2021-05-23T13:39:52.000Z</time>
      </trkpt>
      <trkpt lat="51.641153" lon="0.812727">
        <ele>17.083851</ele>
        <time>2021-05-23T13:39:53.000Z</time>
      </trkpt>
      <trkpt lat="51.641254" lon="0.81275">
        <ele>17.227997</ele>
        <time>2021-05-23T13:39:54.000Z</time>
      </trkpt>
      <trkpt lat="51.641335" lon="0.812806">
        <ele>17.367324</ele>
        <time>2021-05-23T13:39:55.000Z</time>
      </trkpt>
      <trkpt lat="51.641403" lon="0.812871">
        <ele>17.48885</ele>
        <time>2021-05-23T13:39:56.000Z</time>
      </trkpt>
      <trkpt lat="51.641472" lon="0.812928">
        <ele>17.639046</ele>
        <time>2021-05-23T13:39:57.000Z</time>
      </trkpt>
      <trkpt lat="51.641686" lon="0.812996">
        <ele>17.990599</ele>
        <time>2021-05-23T13:39:59.000Z</time>
      </trkpt>
      <trkpt lat="51.642425" lon="0.813071">
        <ele>19.199295</ele>
        <time>2021-05-23T13:40:07.000Z</time>
      </trkpt>
      <trkpt lat="51.642813" lon="0.813119">
        <ele>19.841551</ele>
        <time>2021-05-23T13:40:11.000Z</time>
      </trkpt>
      <trkpt lat="51.643261" lon="0.813212">
        <ele>20.408538</ele>
        <time>2021-05-23T13:40:16.000Z</time>
      </trkpt>
      <trkpt lat="51.643475" lon="0.813249">
        <ele>20.649138</ele>
        <time>2021-05-23T13:40:18.000Z</time>
      </trkpt>
      <trkpt lat="51.644295" lon="0.813587">
        <ele>21.570453</ele>
        <time>2021-05-23T13:40:27.000Z</time>
      </trkpt>
      <trkpt lat="51.64435" lon="0.813597">
        <ele>21.629771</ele>
        <time>2021-05-23T13:40:28.000Z</time>
      </trkpt>
      <trkpt lat="51.644832" lon="0.813696">
        <ele>22.132829</ele>
        <time>2021-05-23T13:40:33.000Z</time>
      </trkpt>
      <trkpt lat="51.644909" lon="0.813699">
        <ele>22.183093</ele>
        <time>2021-05-23T13:40:34.000Z</time>
      </trkpt>
      <trkpt lat="51.645333" lon="0.813742">
        <ele>22.507875</ele>
        <time>2021-05-23T13:40:39.000Z</time>
      </trkpt>
      <trkpt lat="51.645598" lon="0.813613">
        <ele>22.714729</ele>
        <time>2021-05-23T13:40:42.000Z</time>
      </trkpt>
      <trkpt lat="51.645872" lon="0.813262">
        <ele>22.975528</ele>
        <time>2021-05-23T13:40:46.000Z</time>
      </trkpt>
      <trkpt lat="51.645986" lon="0.813216">
        <ele>23.055106</ele>
        <time>2021-05-23T13:40:47.000Z</time>
      </trkpt>
      <trkpt lat="51.647289" lon="0.813119">
        <ele>23.399653</ele>
        <time>2021-05-23T13:41:02.000Z</time>
      </trkpt>
      <trkpt lat="51.647637" lon="0.813154">
        <ele>23.404093</ele>
        <time>2021-05-23T13:41:06.000Z</time>
      </trkpt>
      <trkpt lat="51.648135" lon="0.813263">
        <ele>23.410742</ele>
        <time>2021-05-23T13:41:12.000Z</time>
      </trkpt>
      <trkpt lat="51.648441" lon="0.813331">
        <ele>23.316929</ele>
        <time>2021-05-23T13:41:15.000Z</time>
      </trkpt>
      <trkpt lat="51.649023" lon="0.813741">
        <ele>23.058262</ele>
        <time>2021-05-23T13:41:22.000Z</time>
      </trkpt>
      <trkpt lat="51.649293" lon="0.814012">
        <ele>22.921647</ele>
        <time>2021-05-23T13:41:26.000Z</time>
      </trkpt>
      <trkpt lat="51.6495" lon="0.814237">
        <ele>22.825129</ele>
        <time>2021-05-23T13:41:29.000Z</time>
      </trkpt>
      <trkpt lat="51.652146" lon="0.815207">
        <ele>22.590405</ele>
        <time>2021-05-23T13:41:59.000Z</time>
      </trkpt>
      <trkpt lat="51.652478" lon="0.815329">
        <ele>22.713107</ele>
        <time>2021-05-23T13:42:03.000Z</time>
      </trkpt>
      <trkpt lat="51.652753" lon="0.815415">
        <ele>22.814425</ele>
        <time>2021-05-23T13:42:06.000Z</time>
      </trkpt>
      <trkpt lat="51.652983" lon="0.815497">
        <ele>22.899951</ele>
        <time>2021-05-23T13:42:09.000Z</time>
      </trkpt>
      <trkpt lat="51.653113" lon="0.815597">
        <ele>22.948911</ele>
        <time>2021-05-23T13:42:11.000Z</time>
      </trkpt>
      <trkpt lat="51.653218" lon="0.815593">
        <ele>22.987677</ele>
        <time>2021-05-23T13:42:12.000Z</time>
      </trkpt>
      <trkpt lat="51.65333" lon="0.815596">
        <ele>23.030402</ele>
        <time>2021-05-23T13:42:13.000Z</time>
      </trkpt>
      <trkpt lat="51.653418" lon="0.815471">
        <ele>23.144358</ele>
        <time>2021-05-23T13:42:14.000Z</time>
      </trkpt>
      <trkpt lat="51.65384" lon="0.813934">
        <ele>24.570273</ele>
        <time>2021-05-23T13:42:26.000Z</time>
      </trkpt>
      <trkpt lat="51.654119" lon="0.811069">
        <ele>27.678677</ele>
        <time>2021-05-23T13:42:46.000Z</time>
      </trkpt>
      <trkpt lat="51.65428" lon="0.809611">
        <ele>29.450694</ele>
        <time>2021-05-23T13:42:56.000Z</time>
      </trkpt>
      <trkpt lat="51.654388" lon="0.808917">
        <ele>30.289381</ele>
        <time>2021-05-23T13:43:01.000Z</time>
      </trkpt>
      <trkpt lat="51.654562" lon="0.808273">
        <ele>31.11695</ele>
        <time>2021-05-23T13:43:06.000Z</time>
      </trkpt>
      <trkpt lat="51.654817" lon="0.806799">
        <ele>32.689192</ele>
        <time>2021-05-23T13:43:17.000Z</time>
      </trkpt>
      <trkpt lat="51.654823" lon="0.806704">
        <ele>32.768026</ele>
        <time>2021-05-23T13:43:18.000Z</time>
      </trkpt>
      <trkpt lat="51.655399" lon="0.80545">
        <ele>33.863641</ele>
        <time>2021-05-23T13:43:29.000Z</time>
      </trkpt>
      <trkpt lat="51.656232" lon="0.804283">
        <ele>34.60487</ele>
        <time>2021-05-23T13:43:41.000Z</time>
      </trkpt>
      <trkpt lat="51.656459" lon="0.803618">
        <ele>34.741086</ele>
        <time>2021-05-23T13:43:46.000Z</time>
      </trkpt>
      <trkpt lat="51.656699" lon="0.80132">
        <ele>35.02308</ele>
        <time>2021-05-23T13:44:02.000Z</time>
      </trkpt>
      <trkpt lat="51.656764" lon="0.799872">
        <ele>35.114873</ele>
        <time>2021-05-23T13:44:12.000Z</time>
      </trkpt>
      <trkpt lat="51.656731" lon="0.798441">
        <ele>35.604379</ele>
        <time>2021-05-23T13:44:22.000Z</time>
      </trkpt>
      <trkpt lat="51.657036" lon="0.795602">
        <ele>36.924139</ele>
        <time>2021-05-23T13:44:42.000Z</time>
      </trkpt>
      <trkpt lat="51.657052" lon="0.795534">
        <ele>36.963967</ele>
        <time>2021-05-23T13:44:43.000Z</time>
      </trkpt>
      <trkpt lat="51.657046" lon="0.795534">
        <ele>36.963969</ele>
        <time>2021-05-23T13:44:43.000Z</time>
      </trkpt>
      <trkpt lat="51.657086" lon="0.794792">
        <ele>37.361665</ele>
        <time>2021-05-23T13:44:48.000Z</time>
      </trkpt>
      <trkpt lat="51.657033" lon="0.794055">
        <ele>37.757051</ele>
        <time>2021-05-23T13:44:53.000Z</time>
      </trkpt>
      <trkpt lat="51.656556" lon="0.792357">
        <ele>38.361925</ele>
        <time>2021-05-23T13:45:06.000Z</time>
      </trkpt>
      <trkpt lat="51.656491" lon="0.792125">
        <ele>38.439452</ele>
        <time>2021-05-23T13:45:08.000Z</time>
      </trkpt>
      <trkpt lat="51.656052" lon="0.790621">
        <ele>38.720486</ele>
        <time>2021-05-23T13:45:19.000Z</time>
      </trkpt>
      <trkpt lat="51.655969" lon="0.787081">
        <ele>38.580563</ele>
        <time>2021-05-23T13:45:43.000Z</time>
      </trkpt>
      <trkpt lat="51.655918" lon="0.786097">
        <ele>38.509478</ele>
        <time>2021-05-23T13:45:50.000Z</time>
      </trkpt>
      <trkpt lat="51.655806" lon="0.784659">
        <ele>38.38854</ele>
        <time>2021-05-23T13:46:00.000Z</time>
      </trkpt>
      <trkpt lat="51.655748" lon="0.784102">
        <ele>38.334704</ele>
        <time>2021-05-23T13:46:04.000Z</time>
      </trkpt>
      <trkpt lat="51.65578" lon="0.783576">
        <ele>38.286286</ele>
        <time>2021-05-23T13:46:08.000Z</time>
      </trkpt>
      <trkpt lat="51.655875" lon="0.783194">
        <ele>38.249442</ele>
        <time>2021-05-23T13:46:11.000Z</time>
      </trkpt>
      <trkpt lat="51.65595" lon="0.782935">
        <ele>38.222449</ele>
        <time>2021-05-23T13:46:13.000Z</time>
      </trkpt>
      <trkpt lat="51.656419" lon="0.78315">
        <ele>38.110751</ele>
        <time>2021-05-23T13:46:18.000Z</time>
      </trkpt>
      <trkpt lat="51.65694" lon="0.783261">
        <ele>37.973621</ele>
        <time>2021-05-23T13:46:24.000Z</time>
      </trkpt>
      <trkpt lat="51.657582" lon="0.782928">
        <ele>37.798246</ele>
        <time>2021-05-23T13:46:31.000Z</time>
      </trkpt>
      <trkpt lat="51.658055" lon="0.782814">
        <ele>37.756556</ele>
        <time>2021-05-23T13:46:36.000Z</time>
      </trkpt>
      <trkpt lat="51.658814" lon="0.782755">
        <ele>37.849415</ele>
        <time>2021-05-23T13:46:44.000Z</time>
      </trkpt>
      <trkpt lat="51.660104" lon="0.782675">
        <ele>38.315469</ele>
        <time>2021-05-23T13:46:58.000Z</time>
      </trkpt>
      <trkpt lat="51.662003" lon="0.782574">
        <ele>39.964299</ele>
        <time>2021-05-23T13:47:19.000Z</time>
      </trkpt>
      <trkpt lat="51.661994" lon="0.782375">
        <ele>40.085267</ele>
        <time>2021-05-23T13:47:20.000Z</time>
      </trkpt>
      <trkpt lat="51.662185" lon="0.782217">
        <ele>40.314912</ele>
        <time>2021-05-23T13:47:22.000Z</time>
      </trkpt>
      <trkpt lat="51.662389" lon="0.782166">
        <ele>40.535613</ele>
        <time>2021-05-23T13:47:24.000Z</time>
      </trkpt>
      <trkpt lat="51.663085" lon="0.782237">
        <ele>41.27835</ele>
        <time>2021-05-23T13:47:32.000Z</time>
      </trkpt>
      <trkpt lat="51.663648" lon="0.782269">
        <ele>41.821766</ele>
        <time>2021-05-23T13:47:38.000Z</time>
      </trkpt>
      <trkpt lat="51.663897" lon="0.782296">
        <ele>42.054083</ele>
        <time>2021-05-23T13:47:41.000Z</time>
      </trkpt>
      <trkpt lat="51.665083" lon="0.782332">
        <ele>43.101238</ele>
        <time>2021-05-23T13:47:54.000Z</time>
      </trkpt>
      <trkpt lat="51.667001" lon="0.782184">
        <ele>44.05495</ele>
        <time>2021-05-23T13:48:15.000Z</time>
      </trkpt>
      <trkpt lat="51.667151" lon="0.782215">
        <ele>44.074261</ele>
        <time>2021-05-23T13:48:17.000Z</time>
      </trkpt>
      <trkpt lat="51.667201" lon="0.782226">
        <ele>44.08217</ele>
        <time>2021-05-23T13:48:18.000Z</time>
      </trkpt>
      <trkpt lat="51.667841" lon="0.782214">
        <ele>44.170928</ele>
        <time>2021-05-23T13:48:25.000Z</time>
      </trkpt>
      <trkpt lat="51.667911" lon="0.782199">
        <ele>44.180266</ele>
        <time>2021-05-23T13:48:26.000Z</time>
      </trkpt>
      <trkpt lat="51.668108" lon="0.782168">
        <ele>44.20678</ele>
        <time>2021-05-23T13:48:28.000Z</time>
      </trkpt>
      <trkpt lat="51.668675" lon="0.782072">
        <ele>43.812332</ele>
        <time>2021-05-23T13:48:34.000Z</time>
      </trkpt>
      <trkpt lat="51.668786" lon="0.782057">
        <ele>43.581143</ele>
        <time>2021-05-23T13:48:35.000Z</time>
      </trkpt>
      <trkpt lat="51.669332" lon="0.781958">
        <ele>42.44788</ele>
        <time>2021-05-23T13:48:41.000Z</time>
      </trkpt>
      <trkpt lat="51.669717" lon="0.781941">
        <ele>41.642925</ele>
        <time>2021-05-23T13:48:45.000Z</time>
      </trkpt>
      <trkpt lat="51.670042" lon="0.781888">
        <ele>40.993923</ele>
        <time>2021-05-23T13:48:49.000Z</time>
      </trkpt>
      <trkpt lat="51.670528" lon="0.781829">
        <ele>39.337656</ele>
        <time>2021-05-23T13:48:54.000Z</time>
      </trkpt>
      <trkpt lat="51.672264" lon="0.78174">
        <ele>31.612263</ele>
        <time>2021-05-23T13:49:13.000Z</time>
      </trkpt>
      <trkpt lat="51.673711" lon="0.78151">
        <ele>26.732313</ele>
        <time>2021-05-23T13:49:29.000Z</time>
      </trkpt>
      <trkpt lat="51.673957" lon="0.781399">
        <ele>26.388762</ele>
        <time>2021-05-23T13:49:32.000Z</time>
      </trkpt>
      <trkpt lat="51.674044" lon="0.781871">
        <ele>26.72778</ele>
        <time>2021-05-23T13:49:35.000Z</time>
      </trkpt>
      <trkpt lat="51.674165" lon="0.782757">
        <ele>27.325548</ele>
        <time>2021-05-23T13:49:41.000Z</time>
      </trkpt>
      <trkpt lat="51.674163" lon="0.783402">
        <ele>27.75199</ele>
        <time>2021-05-23T13:49:45.000Z</time>
      </trkpt>
      <trkpt lat="51.673492" lon="0.787208">
        <ele>33.874441</ele>
        <time>2021-05-23T13:50:12.000Z</time>
      </trkpt>
      <trkpt lat="51.673438" lon="0.787795">
        <ele>34.311701</ele>
        <time>2021-05-23T13:50:16.000Z</time>
      </trkpt>
      <trkpt lat="51.673442" lon="0.787841">
        <ele>34.349754</ele>
        <time>2021-05-23T13:50:16.000Z</time>
      </trkpt>
      <trkpt lat="51.673466" lon="0.788596">
        <ele>34.910897</ele>
        <time>2021-05-23T13:50:21.000Z</time>
      </trkpt>
      <trkpt lat="51.673492" lon="0.7891">
        <ele>35.282234</ele>
        <time>2021-05-23T13:50:24.000Z</time>
      </trkpt>
      <trkpt lat="51.673519" lon="0.789465">
        <ele>35.547097</ele>
        <time>2021-05-23T13:50:27.000Z</time>
      </trkpt>
      <trkpt lat="51.673519" lon="0.789712">
        <ele>35.73013</ele>
        <time>2021-05-23T13:50:29.000Z</time>
      </trkpt>
      <trkpt lat="51.673638" lon="0.790663">
        <ele>36.03722</ele>
        <time>2021-05-23T13:50:36.000Z</time>
      </trkpt>
      <trkpt lat="51.674083" lon="0.793032">
        <ele>36.774021</ele>
        <time>2021-05-23T13:50:53.000Z</time>
      </trkpt>
      <trkpt lat="51.674318" lon="0.794444">
        <ele>37.098038</ele>
        <time>2021-05-23T13:51:03.000Z</time>
      </trkpt>
      <trkpt lat="51.674673" lon="0.79859">
        <ele>36.271328</ele>
        <time>2021-05-23T13:51:32.000Z</time>
      </trkpt>
      <trkpt lat="51.674733" lon="0.800227">
        <ele>34.824053</ele>
        <time>2021-05-23T13:51:43.000Z</time>
      </trkpt>
      <trkpt lat="51.674739" lon="0.801735">
        <ele>33.435003</ele>
        <time>2021-05-23T13:51:53.000Z</time>
      </trkpt>
      <trkpt lat="51.674746" lon="0.801778">
        <ele>33.400213</ele>
        <time>2021-05-23T13:51:53.000Z</time>
      </trkpt>
      <trkpt lat="51.67476" lon="0.802292">
        <ele>32.891176</ele>
        <time>2021-05-23T13:51:57.000Z</time>
      </trkpt>
      <trkpt lat="51.674776" lon="0.802458">
        <ele>32.725727</ele>
        <time>2021-05-23T13:51:58.000Z</time>
      </trkpt>
      <trkpt lat="51.674844" lon="0.80459">
        <ele>31.014289</ele>
        <time>2021-05-23T13:52:13.000Z</time>
      </trkpt>
      <trkpt lat="51.674992" lon="0.808567">
        <ele>29.668669</ele>
        <time>2021-05-23T13:52:40.000Z</time>
      </trkpt>
      <trkpt lat="51.675026" lon="0.809216">
        <ele>29.491376</ele>
        <time>2021-05-23T13:52:44.000Z</time>
      </trkpt>
      <trkpt lat="51.675034" lon="0.809511">
        <ele>29.408422</ele>
        <time>2021-05-23T13:52:46.000Z</time>
      </trkpt>
      <trkpt lat="51.675037" lon="0.809918">
        <ele>29.318559</ele>
        <time>2021-05-23T13:52:49.000Z</time>
      </trkpt>
      <trkpt lat="51.675065" lon="0.810596">
        <ele>29.21599</ele>
        <time>2021-05-23T13:52:54.000Z</time>
      </trkpt>
      <trkpt lat="51.675078" lon="0.81086">
        <ele>29.177894</ele>
        <time>2021-05-23T13:52:56.000Z</time>
      </trkpt>
      <trkpt lat="51.675134" lon="0.812379">
        <ele>28.95079</ele>
        <time>2021-05-23T13:53:06.000Z</time>
      </trkpt>
      <trkpt lat="51.675094" lon="0.813012">
        <ele>28.80977</ele>
        <time>2021-05-23T13:53:10.000Z</time>
      </trkpt>
      <trkpt lat="51.675062" lon="0.813345">
        <ele>28.721966</ele>
        <time>2021-05-23T13:53:12.000Z</time>
      </trkpt>
      <trkpt lat="51.675113" lon="0.814578">
        <ele>28.37565</ele>
        <time>2021-05-23T13:53:21.000Z</time>
      </trkpt>
      <trkpt lat="51.675132" lon="0.814811">
        <ele>28.313454</ele>
        <time>2021-05-23T13:53:23.000Z</time>
      </trkpt>
      <trkpt lat="51.675159" lon="0.815572">
        <ele>28.099187</ele>
        <time>2021-05-23T13:53:28.000Z</time>
      </trkpt>
      <trkpt lat="51.675174" lon="0.816312">
        <ele>27.124977</ele>
        <time>2021-05-23T13:53:33.000Z</time>
      </trkpt>
      <trkpt lat="51.675205" lon="0.817096">
        <ele>26.101055</ele>
        <time>2021-05-23T13:53:38.000Z</time>
      </trkpt>
      <trkpt lat="51.67533" lon="0.819285">
        <ele>23.08447</ele>
        <time>2021-05-23T13:53:53.000Z</time>
      </trkpt>
      <trkpt lat="51.675443" lon="0.822563">
        <ele>18.574225</ele>
        <time>2021-05-23T13:54:16.000Z</time>
      </trkpt>
      <trkpt lat="51.67566" lon="0.825715">
        <ele>15.449707</ele>
        <time>2021-05-23T13:54:38.000Z</time>
      </trkpt>
      <trkpt lat="51.675745" lon="0.829859">
        <ele>13.134025</ele>
        <time>2021-05-23T13:55:07.000Z</time>
      </trkpt>
      <trkpt lat="51.675753" lon="0.830449">
        <ele>13.123339</ele>
        <time>2021-05-23T13:55:11.000Z</time>
      </trkpt>
      <trkpt lat="51.675829" lon="0.834217">
        <ele>13.841193</ele>
        <time>2021-05-23T13:55:37.000Z</time>
      </trkpt>
      <trkpt lat="51.67601" lon="0.83805">
        <ele>14.278964</ele>
        <time>2021-05-23T13:56:04.000Z</time>
      </trkpt>
      <trkpt lat="51.676074" lon="0.840264">
        <ele>13.342389</ele>
        <time>2021-05-23T13:56:19.000Z</time>
      </trkpt>
      <trkpt lat="51.676131" lon="0.842541">
        <ele>12.430652</ele>
        <time>2021-05-23T13:56:35.000Z</time>
      </trkpt>
      <trkpt lat="51.676103" lon="0.843924">
        <ele>12.313667</ele>
        <time>2021-05-23T13:56:45.000Z</time>
      </trkpt>
      <trkpt lat="51.67602" lon="0.844502">
        <ele>12.265339</ele>
        <time>2021-05-23T13:56:49.000Z</time>
      </trkpt>
      <trkpt lat="51.675877" lon="0.845371">
        <ele>13.294711</ele>
        <time>2021-05-23T13:56:55.000Z</time>
      </trkpt>
      <trkpt lat="51.675921" lon="0.845579">
        <ele>13.535936</ele>
        <time>2021-05-23T13:56:57.000Z</time>
      </trkpt>
      <trkpt lat="51.675869" lon="0.847087">
        <ele>15.272346</ele>
        <time>2021-05-23T13:57:07.000Z</time>
      </trkpt>
      <trkpt lat="51.675825" lon="0.847786">
        <ele>16.110324</ele>
        <time>2021-05-23T13:57:12.000Z</time>
      </trkpt>
      <trkpt lat="51.675811" lon="0.848273">
        <ele>16.685507</ele>
        <time>2021-05-23T13:57:15.000Z</time>
      </trkpt>
      <trkpt lat="51.675797" lon="0.84881">
        <ele>17.344758</ele>
        <time>2021-05-23T13:57:19.000Z</time>
      </trkpt>
      <trkpt lat="51.675775" lon="0.849385">
        <ele>18.05004</ele>
        <time>2021-05-23T13:57:23.000Z</time>
      </trkpt>
      <trkpt lat="51.675794" lon="0.849722">
        <ele>18.457078</ele>
        <time>2021-05-23T13:57:25.000Z</time>
      </trkpt>
      <trkpt lat="51.675904" lon="0.849875">
        <ele>18.737595</ele>
        <time>2021-05-23T13:57:27.000Z</time>
      </trkpt>
      <trkpt lat="51.67653" lon="0.850002">
        <ele>19.865094</ele>
        <time>2021-05-23T13:57:34.000Z</time>
      </trkpt>
      <trkpt lat="51.676661" lon="0.850097">
        <ele>20.127009</ele>
        <time>2021-05-23T13:57:36.000Z</time>
      </trkpt>
      <trkpt lat="51.676695" lon="0.850143">
        <ele>20.17661</ele>
        <time>2021-05-23T13:57:36.000Z</time>
      </trkpt>
      <trkpt lat="51.676749" lon="0.850249">
        <ele>20.332331</ele>
        <time>2021-05-23T13:57:37.000Z</time>
      </trkpt>
      <trkpt lat="51.67678" lon="0.851059">
        <ele>21.188626</ele>
        <time>2021-05-23T13:57:43.000Z</time>
      </trkpt>
      <trkpt lat="51.676716" lon="0.851871">
        <ele>22.068373</ele>
        <time>2021-05-23T13:57:49.000Z</time>
      </trkpt>
      <trkpt lat="51.676721" lon="0.851946">
        <ele>22.152254</ele>
        <time>2021-05-23T13:57:50.000Z</time>
      </trkpt>
      <trkpt lat="51.676743" lon="0.852018">
        <ele>22.202634</ele>
        <time>2021-05-23T13:57:51.000Z</time>
      </trkpt>
      <trkpt lat="51.676798" lon="0.852141">
        <ele>22.273135</ele>
        <time>2021-05-23T13:57:52.000Z</time>
      </trkpt>
      <trkpt lat="51.676863" lon="0.852179">
        <ele>22.320019</ele>
        <time>2021-05-23T13:57:53.000Z</time>
      </trkpt>
      <trkpt lat="51.676987" lon="0.852191">
        <ele>22.419463</ele>
        <time>2021-05-23T13:57:54.000Z</time>
      </trkpt>
      <trkpt lat="51.677911" lon="0.852101">
        <ele>23.137184</ele>
        <time>2021-05-23T13:58:04.000Z</time>
      </trkpt>
      <trkpt lat="51.678117" lon="0.852143">
        <ele>23.296006</ele>
        <time>2021-05-23T13:58:06.000Z</time>
      </trkpt>
      <trkpt lat="51.678201" lon="0.852224">
        <ele>23.36421</ele>
        <time>2021-05-23T13:58:07.000Z</time>
      </trkpt>
      <trkpt lat="51.678231" lon="0.852308">
        <ele>23.418455</ele>
        <time>2021-05-23T13:58:08.000Z</time>
      </trkpt>
      <trkpt lat="51.678282" lon="0.852573">
        <ele>23.542819</ele>
        <time>2021-05-23T13:58:10.000Z</time>
      </trkpt>
      <trkpt lat="51.678442" lon="0.853943">
        <ele>23.399575</ele>
        <time>2021-05-23T13:58:20.000Z</time>
      </trkpt>
      <trkpt lat="51.678626" lon="0.855272">
        <ele>23.246273</ele>
        <time>2021-05-23T13:58:29.000Z</time>
      </trkpt>
      <trkpt lat="51.678712" lon="0.855443">
        <ele>23.22535</ele>
        <time>2021-05-23T13:58:31.000Z</time>
      </trkpt>
      <trkpt lat="51.67885" lon="0.855463">
        <ele>23.217462</ele>
        <time>2021-05-23T13:58:33.000Z</time>
      </trkpt>
      <trkpt lat="51.680021" lon="0.855083">
        <ele>23.144005</ele>
        <time>2021-05-23T13:58:46.000Z</time>
      </trkpt>
      <trkpt lat="51.680571" lon="0.85501">
        <ele>23.154129</ele>
        <time>2021-05-23T13:58:52.000Z</time>
      </trkpt>
      <trkpt lat="51.681163" lon="0.855129">
        <ele>23.317893</ele>
        <time>2021-05-23T13:58:59.000Z</time>
      </trkpt>
      <trkpt lat="51.681609" lon="0.855057">
        <ele>23.440818</ele>
        <time>2021-05-23T13:59:04.000Z</time>
      </trkpt>
      <trkpt lat="51.681669" lon="0.855023">
        <ele>23.457927</ele>
        <time>2021-05-23T13:59:05.000Z</time>
      </trkpt>
      <trkpt lat="51.682219" lon="0.854635">
        <ele>23.625095</ele>
        <time>2021-05-23T13:59:12.000Z</time>
      </trkpt>
      <trkpt lat="51.682433" lon="0.85449">
        <ele>23.670679</ele>
        <time>2021-05-23T13:59:15.000Z</time>
      </trkpt>
      <trkpt lat="51.682696" lon="0.854294">
        <ele>23.730922</ele>
        <time>2021-05-23T13:59:18.000Z</time>
      </trkpt>
      <trkpt lat="51.684121" lon="0.85393">
        <ele>24.027113</ele>
        <time>2021-05-23T13:59:34.000Z</time>
      </trkpt>
      <trkpt lat="51.685113" lon="0.853872">
        <ele>24.258001</ele>
        <time>2021-05-23T13:59:45.000Z</time>
      </trkpt>
      <trkpt lat="51.685926" lon="0.854023">
        <ele>24.424355</ele>
        <time>2021-05-23T13:59:54.000Z</time>
      </trkpt>
      <trkpt lat="51.687018" lon="0.853877">
        <ele>24.533079</ele>
        <time>2021-05-23T14:00:06.000Z</time>
      </trkpt>
      <trkpt lat="51.68812" lon="0.854017">
        <ele>24.246716</ele>
        <time>2021-05-23T14:00:18.000Z</time>
      </trkpt>
      <trkpt lat="51.688278" lon="0.854092">
        <ele>24.147253</ele>
        <time>2021-05-23T14:00:20.000Z</time>
      </trkpt>
      <trkpt lat="51.68835" lon="0.854218">
        <ele>24.090759</ele>
        <time>2021-05-23T14:00:21.000Z</time>
      </trkpt>
      <trkpt lat="51.6884" lon="0.854285">
        <ele>24.053493</ele>
        <time>2021-05-23T14:00:22.000Z</time>
      </trkpt>
      <trkpt lat="51.688885" lon="0.857244">
        <ele>22.571901</ele>
        <time>2021-05-23T14:00:43.000Z</time>
      </trkpt>
      <trkpt lat="51.688903" lon="0.857416">
        <ele>22.466562</ele>
        <time>2021-05-23T14:00:44.000Z</time>
      </trkpt>
      <trkpt lat="51.689521" lon="0.86373">
        <ele>18.735937</ele>
        <time>2021-05-23T14:01:28.000Z</time>
      </trkpt>
      <trkpt lat="51.689689" lon="0.866135">
        <ele>18.600459</ele>
        <time>2021-05-23T14:01:45.000Z</time>
      </trkpt>
      <trkpt lat="51.689701" lon="0.866255">
        <ele>18.605829</ele>
        <time>2021-05-23T14:01:46.000Z</time>
      </trkpt>
      <trkpt lat="51.689727" lon="0.866672">
        <ele>18.625008</ele>
        <time>2021-05-23T14:01:49.000Z</time>
      </trkpt>
      <trkpt lat="51.689753" lon="0.866889">
        <ele>18.634871</ele>
        <time>2021-05-23T14:01:51.000Z</time>
      </trkpt>
      <trkpt lat="51.689928" lon="0.86966">
        <ele>19.276506</ele>
        <time>2021-05-23T14:02:10.000Z</time>
      </trkpt>
      <trkpt lat="51.690262" lon="0.873123">
        <ele>20.06646</ele>
        <time>2021-05-23T14:02:34.000Z</time>
      </trkpt>
      <trkpt lat="51.690277" lon="0.873261">
        <ele>20.110135</ele>
        <time>2021-05-23T14:02:35.000Z</time>
      </trkpt>
      <trkpt lat="51.690444" lon="0.87491">
        <ele>20.622651</ele>
        <time>2021-05-23T14:02:47.000Z</time>
      </trkpt>
      <trkpt lat="51.690576" lon="0.876514">
        <ele>21.227645</ele>
        <time>2021-05-23T14:02:58.000Z</time>
      </trkpt>
      <trkpt lat="51.690601" lon="0.876842">
        <ele>21.380399</ele>
        <time>2021-05-23T14:03:00.000Z</time>
      </trkpt>
      <trkpt lat="51.690783" lon="0.878826">
        <ele>22.215229</ele>
        <time>2021-05-23T14:03:14.000Z</time>
      </trkpt>
      <trkpt lat="51.690958" lon="0.881137">
        <ele>22.849292</ele>
        <time>2021-05-23T14:03:30.000Z</time>
      </trkpt>
      <trkpt lat="51.69114" lon="0.882956">
        <ele>22.895006</ele>
        <time>2021-05-23T14:03:43.000Z</time>
      </trkpt>
      <trkpt lat="51.691185" lon="0.88308">
        <ele>22.891928</ele>
        <time>2021-05-23T14:03:44.000Z</time>
      </trkpt>
      <trkpt lat="51.691256" lon="0.883086">
        <ele>22.889152</ele>
        <time>2021-05-23T14:03:45.000Z</time>
      </trkpt>
      <trkpt lat="51.691618" lon="0.882995">
        <ele>22.875451</ele>
        <time>2021-05-23T14:03:49.000Z</time>
      </trkpt>
      <trkpt lat="51.691895" lon="0.882904">
        <ele>22.864904</ele>
        <time>2021-05-23T14:03:52.000Z</time>
      </trkpt>
      <trkpt lat="51.692068" lon="0.882861">
        <ele>22.841363</ele>
        <time>2021-05-23T14:03:54.000Z</time>
      </trkpt>
      <trkpt lat="51.692666" lon="0.882719">
        <ele>22.754832</ele>
        <time>2021-05-23T14:04:01.000Z</time>
      </trkpt>
      <trkpt lat="51.692998" lon="0.882667">
        <ele>22.704536</ele>
        <time>2021-05-23T14:04:05.000Z</time>
      </trkpt>
      <trkpt lat="51.693497" lon="0.88262">
        <ele>22.631032</ele>
        <time>2021-05-23T14:04:11.000Z</time>
      </trkpt>
      <trkpt lat="51.69426" lon="0.882558">
        <ele>22.493996</ele>
        <time>2021-05-23T14:04:19.000Z</time>
      </trkpt>
      <trkpt lat="51.694424" lon="0.882544">
        <ele>22.461311</ele>
        <time>2021-05-23T14:04:21.000Z</time>
      </trkpt>
      <trkpt lat="51.694749" lon="0.882517">
        <ele>22.401363</ele>
        <time>2021-05-23T14:04:25.000Z</time>
      </trkpt>
      <trkpt lat="51.694765" lon="0.882526">
        <ele>22.397697</ele>
        <time>2021-05-23T14:04:25.000Z</time>
      </trkpt>
      <trkpt lat="51.695079" lon="0.882499">
        <ele>22.336803</ele>
        <time>2021-05-23T14:04:28.000Z</time>
      </trkpt>
      <trkpt lat="51.6954" lon="0.882487">
        <ele>22.273024</ele>
        <time>2021-05-23T14:04:32.000Z</time>
      </trkpt>
      <trkpt lat="51.695822" lon="0.882526">
        <ele>22.368937</ele>
        <time>2021-05-23T14:04:37.000Z</time>
      </trkpt>
      <trkpt lat="51.69637" lon="0.882491">
        <ele>22.561246</ele>
        <time>2021-05-23T14:04:43.000Z</time>
      </trkpt>
      <trkpt lat="51.696581" lon="0.88248">
        <ele>22.635874</ele>
        <time>2021-05-23T14:04:45.000Z</time>
      </trkpt>
      <trkpt lat="51.696675" lon="0.88248">
        <ele>22.668387</ele>
        <time>2021-05-23T14:04:46.000Z</time>
      </trkpt>
      <trkpt lat="51.696907" lon="0.882463">
        <ele>22.747873</ele>
        <time>2021-05-23T14:04:49.000Z</time>
      </trkpt>
      <trkpt lat="51.697011" lon="0.882461">
        <ele>22.783571</ele>
        <time>2021-05-23T14:04:50.000Z</time>
      </trkpt>
      <trkpt lat="51.697236" lon="0.882388">
        <ele>22.869464</ele>
        <time>2021-05-23T14:04:53.000Z</time>
      </trkpt>
      <trkpt lat="51.697351" lon="0.88233">
        <ele>22.904474</ele>
        <time>2021-05-23T14:04:54.000Z</time>
      </trkpt>
      <trkpt lat="51.697456" lon="0.88228">
        <ele>22.930741</ele>
        <time>2021-05-23T14:04:55.000Z</time>
      </trkpt>
      <trkpt lat="51.697487" lon="0.882219">
        <ele>22.943911</ele>
        <time>2021-05-23T14:04:56.000Z</time>
      </trkpt>
      <trkpt lat="51.697537" lon="0.882148">
        <ele>22.962073</ele>
        <time>2021-05-23T14:04:57.000Z</time>
      </trkpt>
      <trkpt lat="51.697693" lon="0.881893">
        <ele>23.01739</ele>
        <time>2021-05-23T14:04:59.000Z</time>
      </trkpt>
      <trkpt lat="51.697743" lon="0.88182">
        <ele>23.03488</ele>
        <time>2021-05-23T14:05:00.000Z</time>
      </trkpt>
      <trkpt lat="51.697793" lon="0.881704">
        <ele>23.057696</ele>
        <time>2021-05-23T14:05:01.000Z</time>
      </trkpt>
      <trkpt lat="51.697941" lon="0.881509">
        <ele>23.104997</ele>
        <time>2021-05-23T14:05:03.000Z</time>
      </trkpt>
      <trkpt lat="51.697963" lon="0.881485">
        <ele>23.115046</ele>
        <time>2021-05-23T14:05:03.000Z</time>
      </trkpt>
      <trkpt lat="51.697998" lon="0.881475">
        <ele>23.121324</ele>
        <time>2021-05-23T14:05:03.000Z</time>
      </trkpt>
      <trkpt lat="51.698197" lon="0.881416">
        <ele>23.174406</ele>
        <time>2021-05-23T14:05:05.000Z</time>
      </trkpt>
      <trkpt lat="51.698442" lon="0.881371">
        <ele>23.236028</ele>
        <time>2021-05-23T14:05:08.000Z</time>
      </trkpt>
      <trkpt lat="51.69885" lon="0.8813">
        <ele>23.343855</ele>
        <time>2021-05-23T14:05:13.000Z</time>
      </trkpt>
      <trkpt lat="51.699148" lon="0.881276">
        <ele>23.142136</ele>
        <time>2021-05-23T14:05:16.000Z</time>
      </trkpt>
      <trkpt lat="51.699485" lon="0.881232">
        <ele>22.873472</ele>
        <time>2021-05-23T14:05:20.000Z</time>
      </trkpt>
      <trkpt lat="51.699602" lon="0.881238">
        <ele>22.795255</ele>
        <time>2021-05-23T14:05:21.000Z</time>
      </trkpt>
      <trkpt lat="51.699697" lon="0.88119">
        <ele>22.712258</ele>
        <time>2021-05-23T14:05:22.000Z</time>
      </trkpt>
      <trkpt lat="51.699983" lon="0.880854">
        <ele>22.446443</ele>
        <time>2021-05-23T14:05:26.000Z</time>
      </trkpt>
      <trkpt lat="51.700016" lon="0.880759">
        <ele>22.391955</ele>
        <time>2021-05-23T14:05:27.000Z</time>
      </trkpt>
      <trkpt lat="51.700152" lon="0.880609">
        <ele>22.268086</ele>
        <time>2021-05-23T14:05:29.000Z</time>
      </trkpt>
      <trkpt lat="51.70044" lon="0.880472">
        <ele>22.032213</ele>
        <time>2021-05-23T14:05:32.000Z</time>
      </trkpt>
      <trkpt lat="51.700661" lon="0.880438">
        <ele>21.831186</ele>
        <time>2021-05-23T14:05:34.000Z</time>
      </trkpt>
      <trkpt lat="51.700774" lon="0.880411">
        <ele>21.698363</ele>
        <time>2021-05-23T14:05:35.000Z</time>
      </trkpt>
      <trkpt lat="51.701182" lon="0.880372">
        <ele>21.27347</ele>
        <time>2021-05-23T14:05:40.000Z</time>
      </trkpt>
      <trkpt lat="51.701457" lon="0.880348">
        <ele>20.972867</ele>
        <time>2021-05-23T14:05:43.000Z</time>
      </trkpt>
      <trkpt lat="51.702783" lon="0.88028">
        <ele>19.733321</ele>
        <time>2021-05-23T14:05:58.000Z</time>
      </trkpt>
      <trkpt lat="51.702871" lon="0.880351">
        <ele>19.67301</ele>
        <time>2021-05-23T14:05:59.000Z</time>
      </trkpt>
      <trkpt lat="51.702929" lon="0.880483">
        <ele>19.599228</ele>
        <time>2021-05-23T14:06:00.000Z</time>
      </trkpt>
      <trkpt lat="51.702955" lon="0.880978">
        <ele>19.378575</ele>
        <time>2021-05-23T14:06:03.000Z</time>
      </trkpt>
      <trkpt lat="51.703062" lon="0.881212">
        <ele>19.259336</ele>
        <time>2021-05-23T14:06:05.000Z</time>
      </trkpt>
      <trkpt lat="51.703149" lon="0.881258">
        <ele>19.199936</ele>
        <time>2021-05-23T14:06:06.000Z</time>
      </trkpt>
      <trkpt lat="51.70449" lon="0.881575">
        <ele>18.211082</ele>
        <time>2021-05-23T14:06:21.000Z</time>
      </trkpt>
      <trkpt lat="51.705132" lon="0.881522">
        <ele>17.732741</ele>
        <time>2021-05-23T14:06:28.000Z</time>
      </trkpt>
      <trkpt lat="51.705567" lon="0.881594">
        <ele>17.315965</ele>
        <time>2021-05-23T14:06:33.000Z</time>
      </trkpt>
      <trkpt lat="51.706159" lon="0.88182">
        <ele>16.231888</ele>
        <time>2021-05-23T14:06:40.000Z</time>
      </trkpt>
      <trkpt lat="51.706393" lon="0.881981">
        <ele>15.78777</ele>
        <time>2021-05-23T14:06:43.000Z</time>
      </trkpt>
      <trkpt lat="51.706425" lon="0.882028">
        <ele>15.710483</ele>
        <time>2021-05-23T14:06:43.000Z</time>
      </trkpt>
      <trkpt lat="51.706451" lon="0.882082">
        <ele>15.627398</ele>
        <time>2021-05-23T14:06:43.000Z</time>
      </trkpt>
      <trkpt lat="51.706503" lon="0.882873">
        <ele>14.744541</ele>
        <time>2021-05-23T14:06:48.000Z</time>
      </trkpt>
      <trkpt lat="51.706453" lon="0.883956">
        <ele>13.31343</ele>
        <time>2021-05-23T14:06:55.000Z</time>
      </trkpt>
      <trkpt lat="51.706655" lon="0.8842">
        <ele>12.695443</ele>
        <time>2021-05-23T14:06:58.000Z</time>
      </trkpt>
      <trkpt lat="51.706742" lon="0.884257">
        <ele>12.470492</ele>
        <time>2021-05-23T14:06:59.000Z</time>
      </trkpt>
      <trkpt lat="51.706736" lon="0.884247">
        <ele>12.4705</ele>
        <time>2021-05-23T14:06:59.000Z</time>
      </trkpt>
      <trkpt lat="51.707077" lon="0.884354">
        <ele>11.663651</ele>
        <time>2021-05-23T14:07:03.000Z</time>
      </trkpt>
      <trkpt lat="51.707099" lon="0.884362">
        <ele>11.61772</ele>
        <time>2021-05-23T14:07:03.000Z</time>
      </trkpt>
      <trkpt lat="51.708285" lon="0.884595">
        <ele>9.612682</ele>
        <time>2021-05-23T14:07:16.000Z</time>
      </trkpt>
      <trkpt lat="51.708736" lon="0.884609">
        <ele>9.326061</ele>
        <time>2021-05-23T14:07:21.000Z</time>
      </trkpt>
      <trkpt lat="51.708911" lon="0.884582">
        <ele>9.212811</ele>
        <time>2021-05-23T14:07:23.000Z</time>
      </trkpt>
      <trkpt lat="51.709176" lon="0.884543">
        <ele>9.035893</ele>
        <time>2021-05-23T14:07:26.000Z</time>
      </trkpt>
      <trkpt lat="51.710512" lon="0.884574">
        <ele>10.433891</ele>
        <time>2021-05-23T14:07:41.000Z</time>
      </trkpt>
      <trkpt lat="51.711234" lon="0.884421">
        <ele>11.736378</ele>
        <time>2021-05-23T14:07:49.000Z</time>
      </trkpt>
      <trkpt lat="51.711721" lon="0.884211">
        <ele>12.697123</ele>
        <time>2021-05-23T14:07:55.000Z</time>
      </trkpt>
      <trkpt lat="51.711881" lon="0.884148">
        <ele>13.008692</ele>
        <time>2021-05-23T14:07:57.000Z</time>
      </trkpt>
      <trkpt lat="51.71249" lon="0.883875">
        <ele>14.237655</ele>
        <time>2021-05-23T14:08:04.000Z</time>
      </trkpt>
      <trkpt lat="51.713456" lon="0.883356">
        <ele>15.725783</ele>
        <time>2021-05-23T14:08:15.000Z</time>
      </trkpt>
      <trkpt lat="51.713613" lon="0.883277">
        <ele>15.826228</ele>
        <time>2021-05-23T14:08:17.000Z</time>
      </trkpt>
      <trkpt lat="51.71369" lon="0.883232">
        <ele>15.884693</ele>
        <time>2021-05-23T14:08:18.000Z</time>
      </trkpt>
      <trkpt lat="51.714004" lon="0.883032">
        <ele>16.103371</ele>
        <time>2021-05-23T14:08:22.000Z</time>
      </trkpt>
      <trkpt lat="51.714103" lon="0.882972">
        <ele>16.170231</ele>
        <time>2021-05-23T14:08:23.000Z</time>
      </trkpt>
      <trkpt lat="51.71441" lon="0.882738">
        <ele>16.39895</ele>
        <time>2021-05-23T14:08:27.000Z</time>
      </trkpt>
      <trkpt lat="51.71523" lon="0.882054">
        <ele>16.529516</ele>
        <time>2021-05-23T14:08:37.000Z</time>
      </trkpt>
      <trkpt lat="51.715588" lon="0.881586">
        <ele>16.423869</ele>
        <time>2021-05-23T14:08:42.000Z</time>
      </trkpt>
      <trkpt lat="51.715887" lon="0.881408">
        <ele>16.349851</ele>
        <time>2021-05-23T14:08:46.000Z</time>
      </trkpt>
      <trkpt lat="51.715996" lon="0.88138">
        <ele>16.324758</ele>
        <time>2021-05-23T14:08:47.000Z</time>
      </trkpt>
      <trkpt lat="51.716078" lon="0.8816">
        <ele>16.287056</ele>
        <time>2021-05-23T14:08:49.000Z</time>
      </trkpt>
      <trkpt lat="51.716185" lon="0.881815">
        <ele>16.246881</ele>
        <time>2021-05-23T14:08:51.000Z</time>
      </trkpt>
      <trkpt lat="51.71642" lon="0.882275">
        <ele>16.027949</ele>
        <time>2021-05-23T14:08:55.000Z</time>
      </trkpt>
      <trkpt lat="51.716529" lon="0.882475">
        <ele>15.932941</ele>
        <time>2021-05-23T14:08:57.000Z</time>
      </trkpt>
      <trkpt lat="51.716833" lon="0.882922">
        <ele>15.667138</ele>
        <time>2021-05-23T14:09:02.000Z</time>
      </trkpt>
      <trkpt lat="51.717155" lon="0.883237">
        <ele>15.425948</ele>
        <time>2021-05-23T14:09:06.000Z</time>
      </trkpt>
      <trkpt lat="51.717956" lon="0.884422">
        <ele>14.612122</ele>
        <time>2021-05-23T14:09:18.000Z</time>
      </trkpt>
      <trkpt lat="51.71897" lon="0.885469">
        <ele>13.563751</ele>
        <time>2021-05-23T14:09:31.000Z</time>
      </trkpt>
      <trkpt lat="51.719019" lon="0.8855">
        <ele>13.526725</ele>
        <time>2021-05-23T14:09:32.000Z</time>
      </trkpt>
      <trkpt lat="51.719626" lon="0.886068">
        <ele>13.123107</ele>
        <time>2021-05-23T14:09:40.000Z</time>
      </trkpt>
      <trkpt lat="51.72023" lon="0.886612">
        <ele>12.734219</ele>
        <time>2021-05-23T14:09:48.000Z</time>
      </trkpt>
      <trkpt lat="51.720536" lon="0.88695">
        <ele>12.524612</ele>
        <time>2021-05-23T14:09:52.000Z</time>
      </trkpt>
      <trkpt lat="51.720824" lon="0.887334">
        <ele>12.38448</ele>
        <time>2021-05-23T14:09:56.000Z</time>
      </trkpt>
      <trkpt lat="51.721088" lon="0.887792">
        <ele>12.236612</ele>
        <time>2021-05-23T14:10:00.000Z</time>
      </trkpt>
      <trkpt lat="51.721622" lon="0.888958">
        <ele>11.898088</ele>
        <time>2021-05-23T14:10:10.000Z</time>
      </trkpt>
      <trkpt lat="51.721906" lon="0.889391">
        <ele>11.689578</ele>
        <time>2021-05-23T14:10:14.000Z</time>
      </trkpt>
      <trkpt lat="51.722254" lon="0.889754">
        <ele>11.440497</ele>
        <time>2021-05-23T14:10:19.000Z</time>
      </trkpt>
      <trkpt lat="51.722661" lon="0.889989">
        <ele>11.182396</ele>
        <time>2021-05-23T14:10:24.000Z</time>
      </trkpt>
      <trkpt lat="51.723162" lon="0.89007">
        <ele>10.869793</ele>
        <time>2021-05-23T14:10:30.000Z</time>
      </trkpt>
      <trkpt lat="51.723806" lon="0.890023">
        <ele>10.67365</ele>
        <time>2021-05-23T14:10:37.000Z</time>
      </trkpt>
      <trkpt lat="51.725291" lon="0.889913">
        <ele>10.466749</ele>
        <time>2021-05-23T14:10:54.000Z</time>
      </trkpt>
      <trkpt lat="51.726339" lon="0.889866">
        <ele>10.594747</ele>
        <time>2021-05-23T14:11:06.000Z</time>
      </trkpt>
      <trkpt lat="51.726652" lon="0.889788">
        <ele>10.633197</ele>
        <time>2021-05-23T14:11:10.000Z</time>
      </trkpt>
      <trkpt lat="51.727317" lon="0.889716">
        <ele>10.654065</ele>
        <time>2021-05-23T14:11:17.000Z</time>
      </trkpt>
      <trkpt lat="51.727707" lon="0.889658">
        <ele>10.632354</ele>
        <time>2021-05-23T14:11:21.000Z</time>
      </trkpt>
      <trkpt lat="51.727803" lon="0.889651">
        <ele>10.628134</ele>
        <time>2021-05-23T14:11:22.000Z</time>
      </trkpt>
      <trkpt lat="51.728266" lon="0.889571">
        <ele>10.603346</ele>
        <time>2021-05-23T14:11:27.000Z</time>
      </trkpt>
      <trkpt lat="51.728322" lon="0.889581">
        <ele>10.599726</ele>
        <time>2021-05-23T14:11:28.000Z</time>
      </trkpt>
      <trkpt lat="51.729834" lon="0.889478">
        <ele>10.711194</ele>
        <time>2021-05-23T14:11:45.000Z</time>
      </trkpt>
      <trkpt lat="51.729981" lon="0.889468">
        <ele>10.730111</ele>
        <time>2021-05-23T14:11:47.000Z</time>
      </trkpt>
      <trkpt lat="51.731022" lon="0.8893">
        <ele>10.8097010852</ele>
        <time>2021-05-23T14:11:59.000Z</time>
      </trkpt>
      <trkpt lat="51.731969" lon="0.88952">
        <ele>10.8824872756</ele>
        <time>2021-05-23T14:12:10.000Z</time>
      </trkpt>
      <trkpt lat="51.732483" lon="0.889632">
        <ele>10.9219449782</ele>
        <time>2021-05-23T14:12:16.000Z</time>
      </trkpt>
    </trkseg>
  </trk>
</gpx>

<!--
Performance optimized by W3 Total Cache. Learn more: https://www.boldgrid.com/w3-total-cache/?utm_source=w3tc&utm_medium=footer_comment&utm_campaign=free_plugin

Page Caching using Disk: Enhanced{w3tc_pagecache_reject_reason} 

Served from: www.aquabike.world @ 2026-05-04 08:07:48 by W3 Total Cache
-->